GFSCGP_850_spd_000.txt.gz
Wind_Speed
14 12 15 17 17 11 13 16 12 10 5 10 6 12 14 16 14 14 16 14 13 13 11 11 9 9 8 7 7 6 5 5 5 5 7 8 10 11 11 14 15 15 16 16
10 17 17 12 7 11 12 12 11 6 6 11 8 11 12 14 16 15 15 16 15 14 14 12 12 10 8 6 6 5 5 5 4 6 8 8 9 9 10 13 13 12 11 14
16 19 12 12 13 15 14 15 12 13 9 11 8 10 12 14 13 15 14 15 15 16 16 15 14 12 11 9 7 7 6 6 6 5 5 6 8 10 9 9 11 13 13 16
13 12 14 16 16 14 14 10 13 15 14 12 16 10 18 17 16 17 20 18 18 17 16 16 16 13 14 11 8 6 3 2 4 7 6 8 9 9 9 9 11 14 13 18
12 15 14 14 14 10 6 8 9 12 17 7 13 9 3 16 18 20 22 22 21 20 19 18 18 16 15 13 11 7 3 4 5 8 5 6 7 7 8 8 11 11 11 13
12 8 11 8 6 6 13 13 7 8 7 10 12 12 12 10 18 19 24 24 23 22 21 21 21 19 16 14 12 7 4 4 6 6 9 12 10 9 7 8 8 9 9 8
10 14 9 19 14 11 12 15 8 9 8 10 5 7 13 2 5 13 21 27 27 25 24 24 25 22 19 16 13 8 5 6 7 7 10 11 10 10 8 10 10 10 8 8
16 13 14 14 12 12 17 15 6 7 9 6 3 7 6 2 4 13 14 23 28 26 27 27 26 23 20 17 13 9 6 7 8 9 12 12 11 6 7 8 8 6 7 8
14 12 12 14 8 10 11 10 5 1 3 8 7 6 9 8 8 10 12 17 28 26 27 28 26 23 21 18 14 11 8 9 10 9 13 10 8 6 7 8 9 7 9 7
9 11 14 8 10 4 8 11 9 9 6 9 6 6 3 5 7 8 14 19 25 26 27 27 27 24 21 18 15 12 10 11 12 11 12 8 7 6 7 7 8 8 8 9
13 12 10 10 12 15 8 11 8 5 5 7 6 3 6 2 2 4 10 18 23 29 29 29 28 25 23 19 17 14 11 13 11 12 10 9 6 6 7 7 8 9 10 10
18 11 12 16 5 6 15 18 16 10 11 6 7 8 4 4 3 3 5 13 21 28 29 28 28 26 24 22 18 15 12 11 10 9 9 8 7 7 8 9 9 11 12 13
13 11 14 12 9 5 11 11 13 16 10 7 8 3 6 4 4 5 8 13 18 24 28 29 30 30 27 23 19 16 13 11 10 10 9 9 8 8 8 9 10 11 13 15
10 15 18 16 18 14 18 15 17 16 12 11 11 13 10 5 7 8 10 13 17 23 29 30 30 31 27 23 20 17 13 11 10 10 10 10 9 9 9 10 12 13 14 16
11 12 15 20 17 14 15 18 19 20 17 15 12 7 11 8 11 12 12 11 18 23 29 34 35 32 27 23 20 16 14 12 11 12 11 11 11 11 12 13 14 14 15 15
6 9 9 15 12 15 14 17 17 18 12 9 9 11 8 9 13 16 19 16 17 23 27 29 30 29 26 24 20 16 14 13 13 13 11 11 12 12 13 13 14 15 14 14
8 7 8 14 11 10 15 14 16 12 10 10 9 8 10 12 14 17 18 18 17 19 22 27 31 30 25 23 20 16 15 14 14 13 11 11 11 11 12 12 13 13 14 15
7 9 7 6 8 13 2 1 12 13 12 10 7 8 11 13 16 17 16 16 15 16 20 24 28 26 23 20 18 17 16 16 14 13 12 11 12 13 12 12 12 12 14 14
5 8 8 8 13 13 8 5 7 11 12 9 8 9 12 9 12 10 3 4 5 10 16 22 24 23 22 20 19 19 18 18 15 14 14 12 13 13 13 13 13 13 13 13
6 6 10 8 17 20 13 9 10 2 9 10 5 8 8 5 9 7 6 6 8 11 15 20 21 21 19 17 19 21 22 20 18 16 14 13 12 13 14 15 14 13 12 11
9 9 14 14 12 11 9 9 9 9 3 7 8 9 8 9 7 3 8 7 8 12 15 17 21 21 20 18 19 25 24 23 20 15 13 13 14 15 16 15 15 13 13 13
11 9 10 11 11 13 10 8 10 6 7 6 10 11 13 14 9 7 8 10 11 13 17 19 20 19 18 19 21 25 25 26 19 15 15 13 13 16 19 16 13 13 15 14
6 3 5 3 2 7 5 2 6 9 12 16 13 15 14 16 13 12 12 12 12 14 15 15 16 15 14 14 19 17 19 17 18 20 18 16 16 20 16 17 17 14 14 13
3 1 4 2 6 2 5 6 9 10 14 17 18 19 14 15 12 10 12 11 11 11 10 8 9 11 11 12 14 14 11 19 17 14 12 17 19 14 14 14 13 13 14 15
5 2 4 6 3 5 2 8 11 13 13 13 12 13 14 15 14 13 12 11 9 7 4 7 10 7 6 7 7 7 10 11 11 13 14 9 10 12 12 11 14 12 16 17
5 4 6 4 6 5 6 15 15 12 11 7 5 8 11 14 14 12 11 9 7 4 4 5 7 4 6 4 4 6 7 8 11 10 10 11 12 13 12 11 9 10 11 11

GFSCGP_850_spd_003.txt.gz
Wind_Speed
22 14 16 18 18 16 13 14 14 7 13 12 6 16 15 17 16 17 20 20 17 16 16 15 14 12 11 10 8 7 7 9 8 6 6 7 8 9 10 12 13 14 14 14
18 20 18 16 12 15 9 13 11 11 9 7 6 14 14 17 16 18 19 20 21 20 20 18 16 13 12 11 10 9 7 7 6 6 7 8 5 7 9 10 10 8 9 11
19 22 19 15 14 12 15 16 14 8 11 13 12 13 16 16 19 17 19 20 22 23 23 21 18 16 13 11 11 9 8 6 5 5 6 7 6 7 7 6 6 7 10 13
16 17 19 16 16 16 18 15 12 10 9 13 17 12 18 17 17 20 23 24 22 23 22 22 21 20 17 13 11 10 8 6 4 3 6 10 9 8 8 10 10 16 12 11
20 17 15 18 18 19 6 13 9 15 13 16 14 13 17 9 18 21 24 25 25 24 23 24 23 22 19 16 13 11 10 5 7 4 4 5 7 8 7 9 11 10 9 10
18 14 18 18 17 14 11 8 8 11 11 13 15 9 12 18 27 23 26 29 29 27 26 23 23 23 22 19 16 14 10 4 3 3 2 4 5 5 6 8 8 8 9 8
20 21 23 17 16 12 13 12 8 9 11 13 7 11 7 7 9 7 22 30 32 30 29 27 26 25 24 22 19 15 11 6 4 4 3 4 6 6 7 7 7 10 7 8
15 18 20 14 14 11 15 14 11 7 10 11 9 8 12 10 9 7 11 28 28 29 29 29 28 27 24 23 21 18 13 8 7 6 4 6 6 4 8 7 8 7 8 8
18 19 20 21 20 19 15 16 17 13 5 10 4 12 9 9 7 5 10 13 28 30 29 29 29 28 26 25 23 20 14 10 8 7 6 4 6 7 7 11 9 7 11 8
13 14 26 21 22 14 9 11 10 7 8 10 9 6 5 10 9 9 10 12 17 28 30 29 30 28 27 26 23 19 16 11 9 7 6 6 7 7 7 8 8 9 10 10
17 11 17 17 14 16 13 11 12 13 7 6 6 4 14 6 7 4 6 7 14 23 28 30 30 30 28 26 24 21 17 13 10 8 7 7 6 6 8 8 8 9 11 12
19 9 14 21 19 21 20 22 17 10 11 8 9 4 6 5 6 4 3 4 11 19 26 30 31 31 29 29 26 23 19 14 11 9 9 8 7 7 7 9 10 10 11 12
19 15 13 18 18 13 15 18 20 21 15 17 8 4 8 4 1 2 8 8 12 17 25 30 30 32 31 31 28 24 20 15 12 10 8 8 8 8 9 9 9 10 11 13
11 18 16 16 20 17 20 21 18 20 13 12 17 7 14 11 5 3 8 9 13 18 26 31 32 34 32 32 30 25 20 15 13 11 9 9 10 9 9 10 10 10 12 15
15 15 17 21 24 21 20 22 22 22 19 18 14 8 10 8 8 8 13 13 11 17 23 29 32 33 32 31 30 25 20 16 13 12 10 9 10 10 10 11 11 12 14 15
16 14 17 20 20 22 20 19 23 22 21 18 19 16 5 4 5 10 12 15 17 19 22 25 29 29 32 31 29 25 21 16 14 12 10 10 10 11 11 11 11 13 14 14
14 14 14 18 19 21 16 16 19 19 18 16 17 9 7 7 12 12 13 14 15 19 17 23 28 30 32 30 28 26 20 16 16 13 12 12 11 11 10 10 12 13 13 14
9 12 12 13 17 21 13 12 12 18 14 9 10 8 5 9 12 13 12 14 15 17 18 21 25 28 29 28 26 23 17 17 16 15 14 13 12 12 11 12 13 14 13 14
5 9 11 13 14 11 12 5 12 13 14 8 6 7 7 12 8 20 10 5 6 11 14 18 22 26 28 26 26 22 17 16 16 17 17 15 13 13 13 14 14 14 14 15
12 9 11 13 17 19 17 3 3 8 11 12 12 6 5 10 8 9 5 4 4 4 8 14 20 24 25 25 23 19 17 18 21 20 17 15 15 14 14 15 14 13 15 15
14 11 14 14 16 17 11 17 28 19 4 8 5 0 5 7 8 2 3 5 7 9 12 17 21 23 24 24 20 19 19 21 23 19 18 17 15 15 15 16 18 16 16 15
8 15 15 15 19 19 5 13 14 6 5 9 6 5 7 13 15 12 9 10 11 13 15 19 20 21 21 19 17 18 20 21 19 20 19 18 17 16 15 18 18 13 14 17
14 5 4 6 5 11 13 11 8 7 7 7 10 13 16 19 23 21 14 14 15 16 17 18 19 18 16 14 13 14 16 16 18 20 21 19 17 15 15 13 14 13 17 17
11 3 5 5 9 9 6 7 8 9 10 12 13 15 17 20 20 23 10 13 14 15 16 17 17 15 12 10 11 12 12 12 14 17 16 15 16 15 11 14 14 18 17 14
5 1 4 10 5 1 10 9 11 9 8 9 11 13 16 18 19 17 11 11 10 10 11 11 10 10 8 5 5 5 7 10 10 11 12 12 13 14 13 13 14 15 16 19
9 6 6 3 8 7 8 10 10 10 9 10 10 10 9 10 12 10 11 12 12 12 8 6 5 1 1 4 5 5 5 6 7 10 12 13 13 14 16 13 11 14 14 13

GFSCGP_850_spd_006.txt.gz
Wind_Speed
21 15 18 19 18 18 15 12 17 14 22 25 13 16 18 21 21 19 21 19 19 18 21 17 17 15 19 16 12 11 10 12 13 13 8 8 9 8 8 10 12 15 15 14
17 20 21 18 20 20 19 9 11 15 17 11 17 17 17 17 20 23 23 21 21 21 22 21 19 16 16 16 11 11 10 10 8 5 5 6 7 6 10 9 11 11 9 9
21 22 22 17 16 16 15 10 10 14 12 4 8 20 11 14 18 22 22 23 23 24 25 25 23 21 19 17 16 15 12 7 6 6 5 5 2 6 7 4 2 3 9 13
23 23 21 18 17 17 18 12 18 16 13 11 15 13 18 22 17 16 25 26 26 27 27 26 25 24 22 20 18 16 15 11 7 7 5 9 10 8 8 10 10 15 19 20
22 21 24 21 19 16 13 16 17 12 12 14 14 9 15 16 17 17 25 28 28 29 29 29 27 24 23 21 21 19 16 14 13 6 9 8 6 8 5 8 12 16 8 12
22 21 19 20 19 16 18 9 14 8 11 14 17 12 6 10 18 18 13 29 29 29 29 29 30 30 26 24 21 18 21 14 8 4 0 1 2 6 9 10 9 4 7 6
23 24 16 15 18 20 14 12 8 10 11 13 16 15 11 19 19 20 21 44 30 28 28 26 30 34 30 27 24 23 20 13 8 5 4 3 4 5 4 4 4 9 5 6
17 19 21 16 20 16 13 16 10 13 11 13 13 9 16 14 24 33 37 44 33 33 31 31 28 33 33 29 26 23 20 16 11 9 8 5 3 2 2 6 11 12 7 6
18 21 22 22 18 17 16 17 18 18 14 7 6 9 10 8 7 4 8 12 27 25 32 34 31 34 34 30 30 26 23 18 14 12 8 3 3 4 6 12 14 5 6 8
19 14 21 18 17 16 17 17 13 12 10 11 8 10 10 15 9 10 8 6 9 30 35 35 33 35 35 32 30 28 26 21 15 14 7 1 4 7 7 6 7 8 9 11
25 17 21 22 16 21 15 12 9 13 11 9 10 4 13 11 9 7 7 9 5 12 21 26 27 33 36 32 31 30 26 24 19 16 11 11 10 7 8 8 7 8 10 12
25 8 13 27 21 24 20 17 11 9 9 8 10 4 13 11 11 10 7 1 6 4 16 28 27 30 34 32 31 30 26 24 20 17 12 9 8 6 10 10 8 10 12 12
18 13 10 14 20 20 18 16 20 18 14 13 11 4 8 9 9 8 7 4 9 15 9 22 23 29 34 34 34 31 29 24 20 17 16 11 9 8 9 9 9 10 12 12
19 18 13 14 16 17 21 22 22 20 11 14 12 6 9 9 9 11 7 7 7 15 19 24 25 29 38 39 38 34 32 26 22 21 16 12 13 12 9 9 10 13 11 14
16 12 17 18 21 20 17 24 21 21 19 16 9 19 4 7 7 2 3 3 6 8 15 24 29 30 38 38 38 35 31 27 22 23 17 15 16 14 10 11 11 11 12 15
11 9 12 19 20 19 22 22 23 24 23 23 20 14 22 17 17 9 0 4 9 8 13 16 29 33 32 38 39 37 32 29 25 18 20 17 16 13 12 11 13 13 14 17
14 13 13 16 18 20 21 21 22 18 16 14 11 7 14 14 7 2 1 4 8 9 13 18 22 25 29 38 37 35 34 29 27 25 20 17 17 15 15 14 13 14 16 15
9 14 12 14 16 21 18 21 19 16 16 17 17 18 9 4 2 3 2 6 6 11 13 16 14 18 26 33 34 31 29 29 26 26 20 18 18 17 17 17 15 15 16 16
11 5 9 13 16 16 21 9 11 16 15 9 8 10 5 8 2 9 9 4 1 7 10 14 14 19 24 31 30 29 27 27 28 28 24 22 20 19 20 19 17 16 17 17
23 24 10 12 12 18 14 10 6 18 13 18 20 10 8 7 5 7 12 6 1 4 6 9 12 16 26 32 30 30 29 29 28 25 23 21 20 20 20 19 18 16 19 20
14 9 12 11 12 17 15 7 18 6 13 28 2 11 13 6 9 8 7 4 4 5 6 7 12 18 27 30 28 30 30 30 29 25 22 20 20 20 21 21 19 20 22 27
16 5 10 12 14 18 13 9 9 9 14 2 4 12 3 2 4 9 9 11 11 9 10 12 14 21 25 25 25 29 27 24 21 19 19 20 20 21 19 20 21 21 21 22
11 8 8 2 2 25 18 22 22 10 10 9 7 5 5 8 10 11 14 18 17 15 15 17 21 19 19 25 25 16 13 12 15 12 14 19 19 17 20 24 20 20 18 19
8 12 1 5 7 4 17 20 17 12 7 4 3 5 8 11 13 14 12 19 20 22 25 25 21 22 21 21 19 17 14 13 12 13 15 17 19 22 22 24 18 15 17 16
9 5 8 1 10 7 17 13 10 8 8 9 9 10 12 14 14 15 17 14 12 7 20 8 19 21 16 9 11 17 11 10 10 11 11 15 15 16 19 21 16 15 20 17
7 4 2 7 11 10 13 8 11 10 10 9 10 10 11 13 15 10 8 8 9 7 13 10 8 4 4 7 29 18 18 14 13 7 9 12 15 14 13 7 7 8 12 15

GFSCGP_850_spd_009.txt.gz
Wind_Speed
20 4 7 12 12 12 11 10 10 7 9 8 8 15 17 25 24 21 27 30 30 26 31 24 22 21 22 18 13 16 11 12 13 11 8 8 8 8 8 8 10 12 10 12
7 9 13 17 18 12 10 12 12 14 17 9 9 12 12 11 6 30 27 28 30 29 35 26 22 22 23 22 19 16 16 15 14 11 6 5 4 4 2 5 6 8 8 7
11 11 19 21 18 12 11 6 13 13 18 13 11 3 4 13 25 28 34 31 30 32 32 31 26 24 28 25 20 14 16 13 13 11 7 4 4 3 5 6 5 7 6 10
12 15 22 21 16 11 7 5 5 4 17 9 12 6 7 20 15 18 30 34 32 38 35 31 29 26 30 27 20 15 17 14 11 8 7 6 6 6 5 8 9 8 11 10
14 17 19 20 16 7 7 8 6 8 5 5 11 5 9 18 13 10 19 33 35 43 40 37 32 29 30 27 23 20 17 15 12 11 13 12 12 11 11 9 11 13 7 6
13 25 16 16 12 9 6 4 5 7 1 2 7 8 6 15 19 17 20 31 38 43 44 41 38 35 35 32 27 24 22 20 17 15 11 11 11 13 17 16 16 11 3 6
16 20 16 14 9 9 5 4 2 3 1 7 8 7 8 20 19 21 16 31 31 45 47 47 44 42 40 39 31 27 26 24 18 15 10 3 1 2 5 6 6 6 6 5
9 14 17 16 10 11 8 9 6 7 4 10 12 8 6 22 31 32 34 35 33 34 42 49 47 47 45 43 38 32 27 24 21 16 10 6 4 7 6 5 8 7 8 9
10 12 12 11 6 11 10 6 10 3 4 3 4 6 6 13 15 22 28 28 36 39 27 41 50 51 47 47 42 35 30 27 24 19 15 8 5 6 10 9 10 12 11 8
10 7 15 11 12 13 11 8 4 3 3 6 6 2 3 6 10 10 14 23 34 38 35 47 48 49 48 48 44 38 33 29 26 22 17 10 4 2 4 7 6 6 6 9
19 7 13 13 10 10 2 5 4 7 6 6 2 3 4 9 10 10 10 26 34 36 41 28 34 40 51 51 46 41 35 31 28 25 18 12 8 8 8 6 5 5 6 8
23 6 11 16 10 13 9 9 10 5 6 2 5 5 12 11 9 16 14 18 16 13 33 41 42 45 48 52 47 42 38 33 30 26 20 16 15 13 12 9 9 7 8 9
15 13 10 7 12 14 15 11 9 6 4 5 4 3 1 8 7 19 18 16 18 12 17 37 50 48 52 52 47 44 39 37 32 29 23 20 18 12 12 12 10 8 7 8
18 7 8 8 10 11 12 15 8 8 5 6 6 6 6 9 7 7 17 12 13 19 19 34 40 48 54 55 49 47 41 38 32 29 24 22 18 14 11 9 8 8 7 8
14 9 8 8 7 5 8 8 8 8 8 7 5 11 11 12 10 14 12 9 6 8 22 33 39 50 52 53 50 47 42 38 30 26 23 23 20 15 13 11 9 7 7 8
14 6 7 4 3 6 6 10 17 17 11 8 7 7 16 24 19 17 15 16 10 9 12 13 31 37 48 52 52 49 44 38 31 29 28 26 23 19 18 14 11 10 10 11
10 7 4 5 2 4 6 5 5 7 13 11 10 8 9 8 7 12 16 11 6 8 9 9 12 26 38 49 52 51 43 28 34 36 32 30 26 22 19 16 15 15 15 15
4 4 4 4 4 7 6 6 3 15 14 14 9 13 16 17 21 19 18 15 12 10 12 12 13 14 29 40 49 48 42 43 44 39 32 29 26 24 20 21 20 19 16 17
6 5 5 4 5 4 5 8 4 5 3 6 16 9 18 29 26 17 16 16 15 10 8 9 11 12 21 30 42 47 45 43 43 35 30 31 27 25 23 23 20 19 19 20
11 8 5 4 5 1 5 4 9 2 4 2 17 14 7 14 5 3 15 11 9 9 7 6 9 14 22 31 41 43 43 39 35 31 29 27 26 25 25 24 21 21 24 23
3 3 6 5 4 7 9 18 12 6 6 7 15 22 17 6 12 18 10 7 8 12 10 8 8 12 20 32 37 36 31 31 28 28 23 24 24 23 23 23 22 25 25 24
6 3 1 3 4 4 28 15 5 2 22 20 16 11 22 14 9 8 3 4 13 14 11 12 12 18 20 34 35 31 25 20 19 22 24 24 23 21 22 24 24 26 25 20
5 5 2 2 5 6 9 13 28 32 26 23 17 15 14 13 12 8 10 12 17 20 18 14 14 18 22 27 28 22 14 17 6 20 15 16 17 18 22 25 24 23 17 26
5 3 4 2 5 4 14 17 21 27 29 18 16 15 14 13 13 12 13 14 22 12 21 20 21 20 17 15 24 23 15 9 12 20 2 7 13 18 18 20 19 15 18 16
1 2 2 4 8 7 15 13 12 16 18 19 16 16 16 14 13 11 13 15 12 16 25 24 17 8 21 19 22 18 11 4 26 14 7 19 12 24 26 24 21 17 20 18
4 6 4 3 2 5 9 13 11 14 15 10 13 18 11 9 11 4 8 5 6 12 17 13 13 22 22 21 8 13 16 9 19 19 21 17 16 14 18 19 16 13 15 13

GFSCGP_850_spd_012.txt.gz
Wind_Speed
6 3 7 10 8 7 4 11 13 13 11 10 18 13 20 28 28 28 29 30 32 36 35 32 28 26 23 21 22 21 21 14 15 14 11 10 8 9 10 9 11 13 13 9
4 7 11 7 5 5 4 7 12 3 12 7 13 17 20 25 30 32 31 32 35 35 35 34 30 28 26 25 23 24 19 17 14 12 10 9 7 7 8 7 7 9 9 9
7 8 6 5 7 4 5 10 13 9 7 7 12 1 6 14 25 24 32 43 44 41 38 35 31 30 28 28 23 22 20 20 17 15 12 10 9 8 9 8 7 10 8 9
7 13 9 8 8 6 8 11 18 9 15 7 8 7 7 14 15 10 24 33 38 43 41 38 35 31 28 30 25 24 20 19 18 15 15 14 11 11 11 9 10 11 10 11
9 10 14 10 16 8 12 9 11 12 16 7 5 4 18 7 14 14 18 35 39 45 45 43 41 36 32 30 29 22 20 20 18 18 15 13 13 15 14 13 12 12 12 10
10 17 8 12 18 10 14 4 7 5 5 2 11 12 4 10 26 18 18 33 37 45 49 47 43 38 34 33 30 25 24 24 22 18 14 14 15 15 15 16 15 14 16 11
7 19 10 15 7 8 5 6 1 2 0 7 8 10 14 21 24 23 25 38 41 49 51 51 46 43 39 38 37 32 30 29 26 21 17 15 16 15 15 17 18 17 14 10
6 16 17 7 13 11 8 10 6 7 3 6 7 6 10 17 35 40 34 46 44 48 51 54 52 49 46 45 43 40 35 34 30 26 23 19 14 10 10 12 10 10 9 11
6 9 7 12 11 9 9 4 9 7 1 3 4 8 8 6 17 25 26 36 41 46 47 48 55 52 49 50 47 45 42 38 35 31 27 21 12 10 10 9 8 10 13 13
8 3 8 13 6 7 13 7 3 3 6 4 5 5 6 5 13 14 16 28 34 43 45 50 55 52 50 53 52 49 46 41 37 32 29 21 15 12 11 10 10 11 13 12
12 5 11 1 7 12 1 3 3 6 5 6 3 6 7 9 16 18 17 32 32 43 48 52 50 54 52 56 55 55 51 45 40 35 31 26 20 16 11 9 9 9 9 9
10 7 14 20 14 11 9 10 8 6 5 2 5 6 4 11 16 22 21 29 34 37 44 49 53 54 57 58 57 58 55 49 43 37 34 29 23 17 11 9 9 7 7 7
10 6 9 10 7 3 7 6 7 5 4 7 6 6 4 5 9 17 20 23 24 29 32 41 47 52 54 57 57 60 57 52 45 38 34 32 28 19 12 12 11 8 8 8
16 6 10 15 9 5 5 8 7 8 5 6 6 4 5 8 12 12 30 33 30 27 34 38 44 48 51 55 56 59 57 53 48 40 33 35 29 20 14 12 10 11 10 10
14 10 7 9 19 12 14 16 9 6 8 9 8 11 10 14 16 22 33 28 26 30 35 40 40 45 48 50 53 55 56 55 49 43 36 37 28 22 18 14 12 12 13 12
6 8 10 16 17 8 7 9 11 9 6 1 6 8 9 22 18 22 33 33 28 21 21 23 29 36 46 52 53 54 57 58 50 44 40 34 27 26 22 17 14 14 17 14
11 7 6 11 6 7 2 5 3 3 4 5 7 10 11 5 7 16 23 25 25 20 13 10 12 20 32 45 50 53 57 58 52 45 39 33 29 27 25 20 17 18 20 16
6 9 1 5 5 6 7 2 13 10 5 8 4 8 19 21 29 23 24 25 21 16 12 12 11 12 17 28 44 49 54 57 47 43 35 35 30 26 30 25 21 24 21 19
4 6 5 5 5 4 2 6 4 7 3 5 7 1 9 24 19 10 24 21 16 13 11 8 11 15 20 20 31 47 50 50 48 42 32 37 34 32 33 29 24 23 21 21
8 9 5 3 6 6 2 8 12 4 5 8 6 7 7 8 5 4 21 17 16 14 8 7 11 15 19 20 25 40 46 50 51 41 31 36 34 34 36 28 24 24 22 22
6 5 5 3 4 3 5 14 2 8 5 5 17 13 10 4 6 21 19 13 8 4 5 10 16 17 18 19 25 37 42 46 44 30 30 33 36 34 31 23 24 24 24 24
4 4 4 4 4 4 23 8 7 3 14 23 20 18 22 19 10 9 5 3 7 9 10 14 19 18 17 18 27 34 38 40 31 27 30 32 30 31 31 22 23 23 25 28
1 5 3 4 1 7 10 11 21 21 22 28 33 23 18 16 12 8 7 6 7 8 11 21 25 22 15 17 21 28 31 32 29 28 19 23 19 28 26 15 20 26 28 25
3 2 5 5 2 6 6 13 14 19 26 27 23 25 25 22 20 16 12 11 15 13 10 14 24 17 14 17 22 27 25 19 13 11 10 14 28 20 22 18 26 21 19 18
2 6 5 1 4 10 6 15 18 20 19 11 12 16 11 11 17 15 17 10 6 7 6 17 18 19 18 22 22 19 15 12 12 8 6 4 26 14 18 22 20 17 16 15
5 6 5 5 6 6 3 15 18 20 17 11 13 14 21 19 13 9 16 14 6 6 16 18 12 10 9 13 18 18 14 9 7 12 5 17 24 24 21 16 13 16 17 12

GFSCGP_850_spd_015.txt.gz
Wind_Speed
7 4 7 11 9 7 10 8 17 10 8 5 8 8 20 30 27 26 28 28 32 37 36 34 32 30 30 24 22 23 22 18 17 18 17 16 14 12 14 14 15 16 16 13
3 8 12 6 7 9 8 9 13 2 9 5 7 8 18 24 29 33 33 32 36 39 38 37 36 34 31 26 24 24 21 20 19 19 17 14 13 12 12 12 11 10 9 8
7 6 8 7 6 8 5 8 10 8 10 5 9 4 12 13 19 26 30 36 34 40 42 41 40 36 33 30 26 27 24 22 22 17 16 16 14 12 11 12 10 11 9 10
6 7 7 5 6 7 4 8 8 10 17 8 8 5 9 13 15 15 26 31 34 37 42 42 44 38 35 32 27 26 24 27 22 21 20 17 14 12 11 12 12 11 11 14
8 7 7 5 7 8 9 9 9 9 15 5 5 4 6 13 10 21 26 32 36 41 46 46 46 41 33 32 31 29 25 25 24 24 21 18 17 14 14 13 12 13 12 12
10 5 7 10 6 9 2 4 8 6 5 5 12 8 5 10 27 26 24 32 38 43 49 49 47 42 35 31 30 33 29 28 27 26 23 19 17 15 14 15 17 16 14 13
4 8 4 4 4 4 5 7 2 3 2 6 9 7 11 18 24 28 27 35 39 44 47 52 50 47 42 37 35 37 34 32 31 29 25 22 18 15 15 15 16 17 15 15
7 9 9 3 8 8 7 10 6 7 5 6 7 7 12 18 28 38 34 39 34 41 49 51 53 51 48 44 40 39 39 36 36 33 29 24 18 16 15 16 16 16 13 12
7 8 3 6 6 11 4 4 9 5 1 3 5 6 8 7 11 24 33 29 35 42 48 53 53 53 51 47 45 43 43 41 39 36 32 27 20 19 17 14 13 13 14 12
8 3 7 13 5 6 13 7 1 2 6 5 4 3 5 6 6 12 14 25 37 43 44 50 51 53 54 52 48 45 45 44 42 40 35 30 24 20 19 18 17 15 13 13
8 6 6 4 8 12 3 3 3 5 4 7 4 7 9 8 8 14 19 36 39 40 46 48 51 54 57 56 52 50 49 48 46 43 39 33 28 24 18 17 16 14 11 12
10 7 12 14 5 3 7 10 9 7 6 1 4 7 3 9 9 18 23 30 35 45 47 49 53 53 56 58 55 55 53 52 50 47 43 38 30 29 23 19 17 14 13 13
9 4 7 8 4 1 4 5 6 3 4 9 6 6 1 4 7 19 20 30 40 46 42 46 45 50 54 57 56 57 58 57 53 51 48 44 35 33 29 22 18 15 13 13
20 6 15 16 9 5 5 6 8 8 5 6 7 7 4 7 9 10 26 30 39 43 46 48 47 53 54 56 58 56 55 58 59 56 53 52 45 36 32 24 19 17 15 14
15 9 8 19 16 6 7 9 7 8 12 10 11 10 10 12 12 20 37 36 35 39 43 46 49 48 49 51 52 53 55 57 57 60 59 55 50 35 32 26 20 18 17 16
4 7 10 8 11 15 11 14 13 17 2 3 6 7 7 16 6 13 29 35 35 35 38 44 47 46 47 47 48 49 51 54 56 57 59 48 34 25 26 25 24 22 20 17
6 11 6 17 6 6 4 11 6 6 5 7 5 10 7 4 7 18 29 37 42 38 34 34 36 35 36 39 38 40 44 47 51 49 51 48 36 26 41 38 35 25 21 20
5 8 3 12 6 6 10 1 7 11 3 2 5 2 11 18 36 30 35 46 36 29 23 20 17 15 15 13 20 28 34 39 45 45 47 46 41 45 34 40 40 28 23 24
4 5 2 7 7 2 4 5 4 6 5 4 5 4 4 10 12 4 23 25 27 25 20 15 12 9 4 8 16 19 27 34 40 44 44 39 34 43 32 34 39 31 23 26
4 4 5 3 8 6 2 10 15 7 3 8 7 3 6 16 9 5 18 20 18 14 12 12 8 5 6 7 12 18 26 32 36 38 38 39 32 39 37 30 27 29 25 27
5 4 4 2 4 2 8 17 10 6 4 15 8 5 6 6 3 11 13 12 13 11 7 3 3 5 8 12 8 20 22 25 29 28 29 29 29 25 29 27 23 23 26 31
3 2 3 3 5 2 19 3 6 1 6 15 25 30 35 30 25 23 18 13 7 4 4 5 8 14 17 14 15 16 19 19 20 19 21 28 27 25 24 21 18 21 25 40
1 3 4 3 4 2 11 8 14 8 9 21 34 31 35 36 30 25 19 13 9 7 8 12 10 15 22 21 15 13 15 16 17 21 24 26 20 18 16 15 23 30 20 25
2 5 5 3 1 3 14 14 15 22 27 26 25 23 22 24 23 24 22 18 17 16 15 15 14 16 18 15 10 9 13 13 15 20 22 19 19 16 19 22 15 27 24 25
2 7 5 2 3 5 16 19 21 22 16 18 17 17 15 13 15 16 15 18 12 16 14 11 10 12 13 9 9 11 12 11 13 13 11 9 17 15 19 13 12 16 19 18
2 6 4 4 8 14 12 18 19 17 19 17 15 16 21 20 17 9 7 12 13 8 6 7 5 6 5 11 16 15 15 16 19 14 10 17 20 17 14 16 19 22 17 14

GFSCGP_850_spd_018.txt.gz
Wind_Speed
8 4 7 11 10 7 8 7 12 3 1 2 6 4 15 24 23 23 26 29 33 36 34 33 33 31 31 29 28 27 25 21 18 17 18 19 17 16 16 17 17 18 17 16
4 9 10 8 7 8 9 8 11 1 4 2 1 4 9 19 26 28 27 27 33 38 35 35 36 36 34 32 28 27 25 24 19 20 18 19 16 16 15 14 15 15 13 11
6 5 10 8 5 7 7 17 7 18 7 3 5 4 7 10 19 22 26 33 32 34 37 36 35 36 35 35 31 25 23 26 23 21 20 22 20 17 15 16 15 12 8 8
6 5 13 9 10 9 7 8 14 10 12 8 7 5 7 14 16 16 29 30 35 39 38 39 39 38 39 35 31 27 25 27 24 22 23 23 21 17 13 12 13 14 13 13
7 6 8 6 10 9 8 8 10 12 10 6 2 2 7 13 13 21 28 35 37 44 43 42 42 42 40 36 34 31 25 27 28 27 26 26 24 19 15 14 14 14 15 15
10 3 9 11 5 13 10 8 7 5 4 2 9 10 6 7 21 25 23 36 39 43 45 44 42 40 41 39 36 34 31 29 29 30 30 27 25 21 18 16 15 14 15 16
2 7 3 5 6 2 6 7 1 3 1 5 6 5 13 10 14 23 22 36 40 40 44 46 44 43 43 44 40 38 35 35 34 34 32 30 26 22 18 15 15 15 16 16
8 6 10 4 7 8 7 9 6 7 6 5 3 9 14 21 23 24 25 29 32 36 45 48 48 46 46 46 43 40 40 39 37 37 35 31 27 24 19 18 17 15 16 15
7 6 4 6 5 10 5 4 7 7 2 3 5 8 7 7 9 14 27 24 34 42 45 50 49 49 47 47 49 46 45 42 41 40 37 34 30 26 21 19 17 16 16 15
8 2 6 4 6 3 8 8 4 2 5 4 4 4 6 5 11 11 8 26 37 41 41 46 50 49 51 50 51 49 45 44 43 43 41 38 33 28 22 20 18 17 14 15
7 4 4 5 8 12 3 3 5 5 4 7 4 6 9 11 12 12 15 31 33 40 45 47 49 49 51 54 53 53 50 47 47 47 44 42 38 32 26 22 20 18 16 16
9 8 9 11 4 6 11 10 9 6 5 3 4 7 5 11 8 7 21 28 30 37 42 44 46 46 48 52 55 56 55 52 50 50 47 45 41 36 30 25 20 19 18 17
6 4 8 6 6 1 5 5 6 5 4 8 6 7 3 6 7 17 19 20 27 33 38 41 41 44 46 48 51 55 58 57 54 53 51 48 45 40 31 26 18 18 18 17
13 6 11 17 13 6 5 7 7 8 5 6 7 8 6 9 10 9 19 23 27 33 38 39 40 41 42 42 44 48 54 55 56 55 52 51 48 41 33 20 11 17 18 18
10 11 8 18 10 8 9 9 10 8 7 8 8 11 13 13 13 18 29 27 26 32 37 41 43 41 40 40 41 43 46 47 51 53 53 48 47 46 37 22 17 22 26 27
3 6 10 20 14 13 11 10 10 8 5 5 2 8 9 9 10 7 24 30 32 36 41 44 43 39 39 38 38 41 41 41 42 45 47 44 45 45 46 43 36 34 33 33
2 5 4 17 7 7 6 18 12 6 5 7 8 16 7 7 9 18 25 31 39 41 43 42 39 37 35 33 33 33 33 34 36 38 40 40 43 51 51 42 37 38 38 33
5 2 4 5 5 5 11 2 13 14 4 5 5 6 9 10 27 26 26 34 40 42 41 34 31 29 28 26 20 16 25 28 31 34 35 37 39 42 45 39 40 27 37 37
4 3 3 8 5 4 2 4 4 5 4 3 5 8 3 4 8 6 7 17 23 22 18 16 14 13 14 13 9 11 17 20 23 27 30 32 31 35 41 39 36 27 33 36
7 2 4 1 7 8 4 4 3 2 1 4 1 9 3 6 4 3 7 7 11 13 13 15 16 15 12 10 7 7 12 16 16 20 22 21 24 28 30 35 29 24 30 35
6 4 1 2 3 3 5 7 1 5 4 6 7 5 2 5 3 14 22 24 21 19 15 13 10 8 5 2 4 6 10 14 14 12 13 16 19 23 24 25 25 25 27 30
4 4 1 2 1 3 14 4 5 5 2 22 31 25 27 25 26 25 30 30 25 20 15 10 6 3 4 2 5 11 11 10 8 9 10 12 17 22 27 21 26 30 23 20
4 4 4 3 2 4 11 4 11 11 13 26 35 31 31 31 28 28 30 27 25 21 17 12 8 3 2 1 12 14 10 6 7 10 10 11 14 17 14 14 14 18 18 21
3 6 5 3 5 5 11 17 20 22 31 32 30 26 25 22 19 20 20 19 18 15 14 13 11 11 12 9 6 1 2 3 5 9 10 12 13 11 15 16 15 17 18 15
1 1 6 5 5 8 9 17 21 24 28 28 27 26 26 19 19 17 14 11 11 7 6 7 7 6 7 5 5 3 3 2 5 6 9 12 14 18 17 14 10 7 5 7
6 1 3 5 7 12 5 8 14 26 29 26 25 27 23 21 19 14 15 14 12 10 7 5 4 3 7 4 3 3 4 3 5 8 11 9 11 16 14 9 8 9 7 8

GFSCGP_850_spd_021.txt.gz
Wind_Speed
5 9 15 17 15 12 15 15 16 9 10 11 14 12 7 17 22 24 25 27 27 29 29 28 29 30 29 29 28 27 26 23 22 19 19 20 19 18 15 16 16 17 17 16
6 15 14 14 13 9 15 15 14 7 12 12 11 14 10 17 27 28 27 28 29 28 26 27 30 30 32 32 31 29 29 28 26 24 21 21 19 18 16 16 16 15 14 15
13 8 10 13 12 12 12 17 14 14 12 4 6 15 15 14 22 24 28 29 28 30 28 28 31 33 34 34 34 32 28 29 28 25 25 24 22 21 18 17 15 14 13 11
10 9 17 13 18 15 17 15 16 16 12 13 12 11 11 16 18 22 29 31 32 30 29 28 30 33 34 35 33 33 29 27 28 29 28 27 23 20 17 14 12 13 12 12
9 11 14 21 20 15 12 12 18 17 18 9 9 7 14 8 16 23 31 35 36 33 32 31 32 34 31 31 34 34 32 29 27 29 29 26 25 22 18 14 13 14 15 16
14 4 14 15 17 18 10 12 6 5 9 9 17 14 13 9 15 22 27 35 36 35 35 33 34 35 37 36 35 35 34 32 29 29 30 28 26 24 21 17 15 15 15 16
12 14 7 11 18 15 14 16 7 8 7 9 12 12 17 11 19 22 20 34 41 39 36 37 35 34 39 39 38 37 37 36 33 32 32 31 29 26 23 19 17 16 15 16
16 14 17 14 18 15 21 20 11 17 10 10 4 11 13 17 29 18 21 20 28 36 40 41 42 44 41 41 39 39 39 39 37 37 37 35 33 30 27 22 19 16 15 14
15 17 4 12 9 18 15 13 17 9 1 7 7 6 10 13 15 18 27 21 27 33 40 45 42 46 43 42 40 40 41 40 39 41 39 37 36 33 29 24 19 16 16 16
10 7 15 17 14 9 16 15 10 8 17 15 8 5 7 6 13 16 15 22 28 33 34 38 44 49 47 42 41 41 42 43 41 41 42 41 39 34 28 23 19 15 18 17
15 12 6 8 18 21 8 9 5 7 9 15 15 13 8 13 13 12 16 23 28 28 34 38 44 46 47 44 44 45 44 44 44 42 45 44 42 37 30 27 18 16 15 14
14 13 14 15 7 9 24 20 18 11 12 6 11 14 5 14 14 12 18 20 16 21 28 31 33 34 39 45 46 46 46 46 46 46 47 46 44 40 31 24 21 17 12 13
9 9 11 15 16 9 8 17 21 19 14 18 15 12 4 6 10 19 22 20 17 15 21 25 28 34 37 38 43 47 48 49 49 50 50 48 48 42 38 38 34 18 6 10
10 6 12 16 20 16 16 12 17 19 15 16 17 18 10 10 12 16 22 23 20 17 20 24 28 32 34 36 37 39 43 41 40 45 48 48 48 46 41 41 38 32 22 33
7 10 16 20 22 23 24 22 21 19 23 19 18 18 17 15 17 20 26 17 17 18 21 28 30 31 33 33 33 34 36 37 38 41 42 46 46 45 45 47 50 48 28 23
7 5 8 15 25 23 27 27 23 23 24 20 22 16 13 17 16 16 22 18 19 23 25 28 30 31 32 32 31 30 30 30 31 34 35 38 41 41 46 52 56 50 43 32
7 5 5 7 17 20 22 25 24 20 21 21 20 14 11 12 15 21 23 26 30 31 28 32 36 36 32 28 26 24 24 22 23 24 27 29 30 34 40 49 55 52 44 37
7 5 2 3 4 9 16 23 25 24 20 18 16 12 11 13 11 14 19 26 36 29 27 31 32 30 28 23 19 15 16 15 15 17 21 23 24 26 32 41 47 50 45 36
7 6 3 3 7 8 5 4 13 22 23 15 16 15 11 7 5 11 14 20 25 28 24 21 18 19 18 14 15 13 10 9 12 14 16 19 20 22 28 35 41 44 44 35
11 8 6 2 5 6 3 2 4 1 14 14 11 11 9 9 7 6 6 9 14 10 12 16 18 17 18 18 15 14 12 9 7 7 8 10 14 20 25 30 36 40 44 36
6 3 2 6 4 6 7 9 2 9 5 4 10 11 14 7 0 5 9 12 15 20 25 25 25 26 23 20 16 14 12 9 8 11 12 10 12 17 19 25 29 32 33 32
7 6 2 3 4 12 16 2 5 3 7 10 13 22 27 23 19 19 19 19 20 23 26 26 25 23 20 17 16 13 8 9 12 15 12 10 13 14 17 20 25 25 29 26
6 4 7 8 5 12 11 1 4 7 11 14 19 20 35 34 26 24 28 28 28 24 23 20 18 14 11 10 6 7 7 7 4 12 10 10 11 13 12 17 19 22 19 22
4 2 5 8 4 7 5 12 14 18 19 16 17 17 22 33 28 23 21 22 21 21 22 20 18 17 13 10 8 5 5 5 7 5 6 11 13 14 14 15 16 17 17 16
3 2 9 4 9 10 4 9 10 18 20 23 24 23 21 27 26 27 20 19 15 13 14 14 13 11 11 9 7 11 14 12 9 6 10 12 13 12 12 15 13 12 12 13
7 3 3 7 18 3 7 13 18 21 19 21 24 25 25 24 24 26 24 17 15 14 11 9 10 8 9 9 12 12 9 6 6 9 9 7 6 9 11 10 9 11 10 12

GFSCGP_850_spd_024.txt.gz
Wind_Speed
25 17 22 24 22 20 15 15 15 14 14 16 15 14 11 13 19 21 24 25 26 27 25 25 25 24 22 21 20 21 21 21 19 17 15 15 14 14 12 12 13 13 13 14
15 22 22 20 22 23 18 18 17 13 9 15 13 15 13 14 19 22 25 26 27 26 26 26 26 26 26 24 24 23 25 24 23 18 16 14 12 13 13 11 13 12 11 11
19 20 20 21 20 23 21 20 18 14 12 15 9 14 15 16 19 20 25 27 29 29 28 29 30 29 28 27 26 26 27 27 27 23 18 16 15 14 12 12 11 11 10 10
20 18 22 19 24 22 23 21 18 16 14 13 14 11 13 16 18 19 25 29 31 31 30 29 30 31 31 30 27 27 29 30 29 29 24 21 16 13 11 9 9 8 9 8
20 21 20 24 24 23 23 17 17 18 18 17 14 9 13 5 14 18 25 30 32 31 31 32 32 32 33 30 29 27 30 31 30 29 29 24 21 16 13 11 11 8 10 10
22 17 19 23 21 23 20 12 15 18 16 19 21 14 14 13 15 16 18 29 33 34 32 31 30 30 31 31 31 29 30 32 32 31 29 31 26 20 15 15 11 10 10 11
22 21 17 18 23 24 21 18 12 15 15 15 20 16 16 9 12 14 14 23 30 32 33 33 32 32 32 33 32 32 33 33 34 34 31 31 31 26 21 18 13 11 10 10
21 22 26 18 26 26 28 26 15 25 16 14 18 16 19 19 24 24 19 14 21 31 35 36 37 36 35 35 35 34 35 35 35 35 34 33 32 25 21 18 14 12 11 10
20 27 27 25 19 26 28 27 25 23 20 17 18 15 22 14 17 19 19 18 20 26 34 39 38 39 38 37 39 40 39 36 36 37 36 36 35 30 21 20 19 17 16 12
14 15 21 24 22 27 28 23 24 21 25 23 21 21 13 17 19 19 17 16 21 24 28 34 39 41 40 38 37 38 39 38 36 37 39 37 35 33 29 28 25 21 19 17
24 15 18 20 26 25 21 20 25 23 22 18 18 18 16 14 13 12 12 15 17 17 25 30 36 39 41 38 36 36 37 38 37 37 39 39 38 35 34 32 29 26 21 18
27 15 17 25 26 27 25 25 27 18 25 20 21 17 18 20 18 24 25 20 14 14 17 24 30 34 38 40 38 35 35 36 39 38 39 40 41 40 39 36 32 30 25 20
22 21 15 19 19 24 29 27 28 26 21 27 20 19 16 11 12 14 17 17 14 11 13 18 26 32 36 37 39 38 35 35 34 31 34 37 40 42 44 37 39 34 29 25
8 19 23 18 24 21 21 27 29 28 20 22 25 22 23 22 18 19 15 17 20 15 14 17 24 30 32 33 38 42 35 32 29 30 30 32 36 44 43 43 44 42 41 34
15 18 17 25 23 24 25 25 26 29 29 27 24 29 22 23 18 22 24 22 21 14 17 21 25 29 30 32 34 31 30 29 28 28 28 30 32 37 38 43 45 44 46 44
14 14 18 21 24 24 21 25 27 28 28 29 31 30 22 27 34 28 28 26 25 21 21 21 24 27 30 30 29 26 26 26 26 27 28 27 29 30 35 40 45 49 50 49
17 14 16 19 21 23 25 27 27 29 28 28 28 25 24 28 24 30 30 31 28 27 23 20 26 31 28 27 25 26 25 24 25 26 25 24 25 24 24 31 39 50 50 50
13 17 15 15 17 21 20 24 26 28 28 30 28 25 23 28 30 33 36 31 27 26 26 20 21 23 25 25 24 23 22 24 24 25 24 22 22 19 20 26 30 38 48 53
17 12 14 14 16 13 15 13 14 24 28 25 26 23 25 28 22 20 25 24 28 25 24 21 21 23 25 25 25 25 24 24 22 21 21 19 16 17 18 21 24 27 32 39
19 18 14 10 19 18 6 8 9 10 14 24 25 25 24 22 15 16 16 19 20 15 18 18 20 24 24 26 26 26 25 24 22 19 16 14 13 15 16 18 21 22 25 28
15 16 20 17 13 9 6 7 2 6 5 23 28 33 27 21 18 7 7 11 9 10 12 17 20 21 23 25 25 25 23 20 17 16 15 14 12 14 17 16 20 19 19 20
20 16 13 12 13 16 6 4 5 6 15 15 13 15 20 18 12 12 11 15 17 18 20 22 24 22 23 24 24 23 21 20 18 13 10 10 14 16 15 15 18 17 17 19
18 16 12 6 4 6 5 2 2 4 6 11 1 7 13 16 16 19 22 24 23 21 23 23 24 25 23 23 24 22 17 12 13 12 14 16 16 13 13 13 15 14 13 15
3 8 4 10 5 8 13 14 13 17 8 5 11 16 18 21 21 18 22 25 28 26 25 23 24 24 22 19 16 15 15 13 10 12 14 15 15 13 11 10 11 12 12 14
5 5 11 13 12 15 13 16 15 16 14 14 21 21 18 18 17 15 18 19 19 23 22 21 19 21 19 16 14 13 13 15 13 15 14 12 13 14 13 14 12 8 9 9
7 4 5 8 14 16 11 12 8 12 11 13 20 22 21 21 21 19 20 18 15 19 19 18 16 14 16 17 17 17 16 14 15 13 11 11 11 11 10 10 10 10 8 11

GFSCGP_850_spd_027.txt.gz
Wind_Speed
27 19 25 28 26 22 22 20 11 15 23 18 17 13 13 18 18 21 25 25 26 26 25 25 25 25 24 23 22 22 22 22 21 19 16 15 13 15 11 12 19 10 14 13
19 25 26 26 26 26 27 22 18 14 20 19 18 18 15 20 17 20 23 27 27 27 27 27 26 27 27 26 24 25 24 24 24 19 17 16 14 13 11 11 11 9 10 9
24 25 27 28 26 26 26 25 17 17 20 17 18 19 18 17 21 21 21 24 28 29 30 30 30 30 29 29 28 27 28 27 25 23 19 17 13 14 9 12 12 12 9 11
26 22 27 28 30 27 25 25 19 19 16 13 19 15 21 20 21 20 24 25 27 30 31 31 32 32 32 31 29 30 30 30 28 26 21 20 16 15 12 11 9 9 9 9
25 23 28 30 29 28 25 25 22 22 18 23 23 17 12 21 24 19 22 27 27 29 32 33 34 34 33 32 32 31 33 32 29 28 26 22 21 16 13 11 9 9 8 10
25 27 28 24 27 25 23 24 24 23 19 16 19 18 19 17 19 20 26 27 27 28 30 31 31 32 33 34 33 32 34 35 32 32 28 29 23 21 16 14 11 9 9 9
23 28 24 21 22 26 29 25 16 17 17 19 26 20 20 16 15 18 19 24 26 27 29 31 33 33 33 36 36 35 35 36 35 33 31 28 32 23 21 14 16 12 11 11
22 22 30 22 29 28 31 28 20 26 18 20 25 23 21 18 10 20 15 18 27 28 30 33 34 34 35 36 39 38 37 38 35 35 33 31 28 27 25 23 19 15 14 13
21 26 22 28 27 28 30 29 27 27 24 20 20 23 19 7 19 17 18 19 18 26 29 35 35 36 36 38 40 41 39 39 39 34 34 33 33 31 28 25 23 18 17 15
23 18 24 26 25 28 34 24 27 23 28 26 25 23 16 20 17 18 16 19 21 20 27 30 35 37 37 37 39 41 42 40 41 37 34 35 36 36 34 29 27 23 21 21
27 20 16 25 31 31 22 28 25 26 24 21 19 19 19 19 18 22 22 26 23 25 25 28 33 36 40 39 39 41 42 42 42 39 38 37 37 35 35 33 33 31 27 27
27 18 18 21 23 28 28 29 31 18 28 20 22 19 14 17 15 13 20 19 15 22 23 29 29 33 38 42 41 41 40 38 39 38 40 40 39 38 38 38 36 34 33 31
23 24 18 21 22 27 30 33 32 32 22 27 22 21 17 4 17 26 23 21 24 7 5 9 16 29 36 42 45 43 42 39 36 36 36 39 41 42 43 42 40 38 38 35
10 22 27 20 24 18 28 30 32 30 24 21 26 26 23 23 14 11 12 14 15 14 12 15 20 25 33 38 45 45 42 38 36 35 35 38 42 44 43 42 43 43 43 40
16 21 26 30 27 23 24 30 30 34 29 28 25 31 28 24 23 20 27 24 26 21 14 13 17 21 29 35 39 45 40 40 37 38 38 38 39 40 38 38 40 42 42 41
22 19 21 24 26 27 25 25 26 28 30 30 31 30 24 30 31 21 22 27 23 20 23 14 15 21 29 35 38 38 44 39 39 38 39 37 37 38 39 37 35 37 35 36
24 19 19 22 22 21 25 26 27 28 28 28 29 27 23 25 25 25 28 30 29 30 29 24 18 23 29 33 35 37 41 40 38 37 37 36 36 37 35 29 30 36 35 40
20 21 16 16 20 26 19 23 27 26 24 25 27 26 26 27 38 39 33 28 34 36 32 33 22 23 28 31 31 33 32 39 39 40 33 33 34 32 29 26 30 33 32 35
20 18 17 16 19 20 23 25 25 24 28 26 27 25 27 36 35 34 43 43 37 34 36 36 31 25 27 31 33 33 34 36 36 35 34 33 29 28 26 27 28 27 26 29
21 16 15 19 24 28 20 6 6 3 12 12 17 18 24 25 19 17 31 39 39 32 36 33 28 20 26 32 32 33 32 32 33 31 33 29 26 26 23 21 21 22 22 24
22 19 22 18 17 21 8 9 4 11 4 6 10 14 20 17 22 27 22 25 21 30 25 25 24 25 29 31 32 33 30 29 27 26 25 25 24 21 18 20 19 21 22 21
24 22 19 20 23 11 6 5 11 4 4 9 10 11 16 23 25 36 7 7 10 16 19 23 23 24 25 30 34 31 29 27 28 25 22 21 20 17 18 18 16 17 18 18
24 22 17 19 21 12 15 5 4 3 3 6 10 11 6 14 8 1 4 5 9 13 14 19 24 25 25 26 30 31 28 28 27 24 22 20 19 15 16 18 16 14 15 14
18 23 18 10 9 10 16 13 11 8 7 3 3 2 4 3 4 7 8 8 10 12 14 18 25 28 29 27 28 29 28 25 24 22 20 19 18 20 16 13 11 10 11 11
5 21 12 14 17 18 18 17 16 15 11 10 8 17 21 17 13 15 16 15 15 17 19 22 25 29 28 26 26 25 26 23 19 17 16 16 16 14 17 19 18 13 11 8
3 7 3 10 18 18 17 17 17 16 14 13 17 21 24 19 15 17 17 14 14 15 16 17 21 26 25 26 26 23 21 20 19 17 15 15 16 15 12 12 11 8 6 8

GFSCGP_850_spd_030.txt.gz
Wind_Speed
27 16 21 26 25 24 24 20 24 14 18 19 19 17 16 39 27 25 27 27 28 28 28 28 28 28 27 27 28 28 27 26 22 22 19 19 19 16 16 15 16 17 17 11
20 25 26 24 26 26 28 26 24 22 26 27 17 25 32 32 24 27 29 28 29 29 29 30 30 29 30 30 30 30 30 29 30 24 22 17 11 15 13 7 13 11 8 8
25 24 25 26 26 28 27 26 22 10 24 23 16 18 22 23 27 26 27 33 31 31 31 33 32 32 32 33 33 33 32 32 30 26 21 21 14 18 10 15 8 9 13 9
25 25 26 27 29 28 26 26 26 14 17 13 20 14 17 21 23 22 27 27 34 33 33 33 35 34 33 34 34 34 31 32 31 28 25 21 24 16 13 12 13 14 13 7
24 25 28 29 31 30 25 26 24 22 17 19 18 13 14 18 20 24 22 29 29 35 34 34 37 37 35 35 37 36 33 29 32 30 30 24 20 17 16 13 17 14 12 11
24 28 28 27 27 29 26 25 25 22 18 14 16 13 25 19 19 7 24 30 30 30 35 35 35 38 41 38 37 39 38 34 31 31 33 27 23 23 18 16 16 16 16 12
25 27 25 25 24 27 28 25 15 17 17 17 23 22 14 12 15 5 12 27 35 34 33 38 38 38 43 43 42 39 42 39 33 35 32 33 31 25 27 20 19 13 12 15
22 21 29 24 29 25 25 26 16 20 18 19 23 20 14 23 23 15 36 37 37 34 32 36 40 40 40 45 43 42 42 43 37 34 37 33 33 34 30 30 20 24 18 18
21 25 20 30 23 27 26 26 26 25 23 17 18 17 21 17 16 28 40 12 11 17 30 35 37 40 39 42 46 46 42 42 40 35 37 37 35 36 38 31 28 20 19 19
24 18 23 24 27 29 28 18 24 20 26 25 20 20 12 19 20 15 17 22 29 32 43 36 35 38 39 39 43 46 46 43 42 41 38 39 39 36 36 36 32 30 24 24
27 22 20 24 27 27 20 23 24 21 21 17 17 16 16 18 22 19 22 25 29 19 29 38 40 40 42 40 41 46 46 46 44 44 41 41 40 40 36 35 35 35 33 29
27 18 20 27 26 29 30 29 28 18 22 18 19 16 16 7 21 20 19 23 22 22 28 31 39 39 40 43 42 46 45 47 47 46 43 44 41 40 40 39 39 40 37 35
22 22 17 24 25 25 30 28 27 27 23 21 19 17 22 8 12 20 17 24 29 29 8 7 32 41 41 46 45 46 47 46 46 45 46 45 44 42 42 41 39 41 41 40
19 21 28 19 20 19 24 29 29 27 19 22 20 20 26 10 20 18 16 22 13 15 15 13 8 24 46 48 51 49 49 47 46 45 46 47 46 45 44 41 40 39 42 42
15 16 20 28 31 27 27 29 28 28 26 22 23 21 24 23 12 13 10 13 12 10 10 19 14 15 19 36 49 50 47 48 45 46 45 46 47 45 43 42 41 39 40 42
19 18 17 24 28 30 28 27 27 30 29 29 26 25 20 26 28 14 27 22 19 18 18 15 20 19 16 21 42 52 49 47 47 47 47 43 43 43 44 42 40 39 39 42
20 16 16 21 23 24 26 30 24 24 26 23 24 23 17 16 13 14 21 24 22 30 29 22 18 21 22 23 35 43 51 46 48 47 47 45 43 43 43 41 39 40 39 38
18 19 14 16 18 27 16 23 25 25 21 22 21 19 18 16 19 21 23 13 14 18 23 18 19 20 22 26 29 33 42 45 45 47 45 46 45 45 42 40 39 37 35 37
17 15 15 16 18 18 25 19 21 21 23 18 20 20 19 24 26 23 26 27 22 25 23 22 26 29 24 26 33 34 35 45 44 44 44 43 44 43 42 39 35 33 31 32
23 16 14 16 22 26 16 22 22 15 15 19 20 18 11 6 14 15 30 30 29 27 29 24 23 27 29 35 37 39 40 38 44 43 43 37 39 40 39 34 32 26 27 29
14 14 17 14 15 18 12 15 13 12 3 7 8 5 5 7 9 18 22 25 35 35 31 31 31 26 32 34 39 40 41 40 40 37 35 34 34 33 31 27 20 20 21 20
8 9 13 15 16 13 7 9 12 4 9 8 7 6 6 10 14 17 20 15 8 8 9 12 13 15 11 33 36 38 37 33 34 32 33 32 31 29 26 22 20 23 19 22
17 15 11 12 10 9 11 14 6 4 3 5 6 7 7 10 13 15 2 5 2 2 2 4 4 7 18 26 33 36 32 31 31 32 32 32 28 25 23 23 24 21 20 21
14 15 8 14 14 4 18 23 6 3 6 2 6 5 3 4 6 2 3 2 2 4 5 7 14 18 19 21 26 30 32 34 34 33 29 28 30 27 23 21 20 19 15 18
3 10 12 10 10 10 9 14 12 11 12 12 14 13 15 16 16 16 13 7 6 8 9 14 18 19 19 24 28 31 34 35 34 32 32 31 27 23 21 21 19 15 14 16
5 3 4 4 21 21 16 14 17 20 19 19 18 20 21 20 18 16 17 19 21 15 14 18 21 22 22 24 24 23 27 32 34 31 27 27 26 22 21 21 22 16 12 14

GFSCGP_850_spd_033.txt.gz
Wind_Speed
21 8 16 13 15 13 14 15 13 5 11 7 4 12 16 18 15 19 35 37 37 39 35 37 35 34 32 32 32 34 31 27 23 23 20 17 18 18 18 19 16 11 12 13
10 19 12 14 12 18 21 18 19 12 7 9 16 16 16 15 22 24 31 37 39 39 39 37 38 37 35 35 35 34 33 31 28 25 24 17 16 17 10 18 19 21 12 10
17 9 18 18 19 19 23 20 15 10 5 7 7 11 11 13 20 25 27 42 43 45 44 42 43 40 40 39 38 36 35 32 32 27 23 19 16 15 17 18 16 15 13 12
16 18 19 22 22 18 20 21 21 15 15 8 13 8 15 15 19 16 28 39 41 44 46 46 45 45 43 42 39 37 36 34 34 33 29 26 26 19 20 9 15 13 14 13
19 19 21 20 24 19 23 13 18 18 7 14 12 3 8 18 17 21 24 38 42 45 49 47 50 49 47 44 44 41 38 35 32 36 33 27 28 25 24 15 15 12 19 15
17 20 19 20 15 20 15 15 20 15 6 4 16 9 8 9 23 23 24 36 46 45 46 47 50 51 49 46 46 45 41 38 33 29 34 32 29 25 27 21 20 20 21 18
20 23 16 21 17 16 20 15 12 10 10 5 20 15 13 13 10 26 23 30 36 46 45 48 48 51 53 51 49 48 46 42 37 30 34 36 33 30 25 23 22 22 19 18
14 17 22 15 25 15 18 17 13 10 11 9 7 10 10 16 18 27 37 34 28 30 47 50 52 53 55 54 52 50 49 45 41 35 33 36 37 32 31 28 21 22 21 16
14 19 8 23 17 20 8 20 14 6 10 6 7 9 6 19 7 13 23 31 31 32 30 48 55 53 55 56 55 53 50 48 44 40 34 36 38 40 35 35 33 24 22 19
16 7 21 18 22 17 18 6 14 12 15 18 15 9 7 18 14 14 12 15 14 21 35 37 52 57 55 56 57 54 52 49 46 42 39 35 37 40 40 36 36 34 28 27
25 20 18 19 18 22 8 17 10 7 14 9 8 14 6 10 20 19 20 33 33 37 42 48 55 58 59 54 56 57 55 50 48 44 41 38 36 39 40 40 40 35 31 29
24 17 17 24 15 23 24 14 11 9 5 5 10 15 8 7 23 27 27 31 36 51 55 58 50 54 55 57 54 58 57 55 50 46 42 40 39 38 41 41 41 40 40 38
16 20 12 15 17 20 24 20 15 13 5 15 5 12 17 14 14 23 27 26 27 39 34 50 47 50 55 57 55 56 57 55 51 49 46 42 41 41 43 42 41 41 39 43
9 20 28 20 19 5 7 22 19 19 16 10 23 9 15 5 8 14 29 29 15 19 28 21 52 51 56 59 57 56 58 54 51 50 48 46 45 44 44 44 41 41 41 42
4 15 21 27 16 16 25 14 26 25 21 17 14 16 14 14 10 11 20 20 23 24 28 22 40 46 56 57 55 52 56 58 52 50 49 48 45 45 45 45 44 40 42 43
10 8 11 10 20 27 20 19 24 26 24 21 16 17 5 8 17 14 17 34 14 15 19 25 29 51 52 53 49 48 55 57 55 50 48 46 44 46 46 46 45 43 41 42
9 4 4 9 7 4 11 30 22 13 18 19 19 12 7 9 4 11 23 30 34 32 20 25 26 29 40 39 36 45 54 57 56 54 50 47 45 45 46 46 45 44 42 39
17 15 9 5 7 11 4 10 18 15 11 10 12 13 11 11 18 8 8 21 12 21 27 35 28 30 23 24 28 35 48 58 57 55 53 50 46 45 42 43 44 43 39 38
16 11 7 6 9 3 7 9 4 7 12 8 5 9 10 18 14 14 16 13 23 24 15 10 14 24 24 26 22 29 40 54 57 57 54 52 48 46 43 43 43 40 37 36
15 12 10 3 8 19 4 5 11 7 6 3 3 7 9 6 2 4 8 8 8 24 20 28 24 21 19 23 27 31 39 51 56 55 55 54 51 49 46 44 43 38 36 32
4 5 13 3 4 3 3 10 18 7 7 5 16 12 12 6 4 5 7 5 6 9 25 27 33 27 23 23 30 34 39 42 47 53 51 51 46 47 46 45 41 35 31 26
4 5 7 6 4 5 3 3 3 3 14 12 15 13 13 10 9 8 6 8 5 6 3 4 15 26 30 32 26 32 39 36 44 48 37 41 41 43 45 41 36 29 27 27
2 1 5 5 2 3 11 11 11 9 15 9 4 4 6 5 3 10 14 12 8 4 4 5 6 11 15 24 28 36 39 41 40 38 37 36 38 40 36 33 32 24 28 27
8 13 5 9 12 18 9 6 6 14 11 13 19 18 22 27 25 21 16 11 8 6 2 3 9 12 16 19 25 32 37 36 35 40 38 38 36 32 29 26 24 25 25 23
4 6 9 6 12 24 26 40 16 9 20 23 26 25 24 23 21 16 14 13 10 7 10 12 17 19 21 23 25 30 35 35 38 39 37 36 34 31 29 27 23 21 20 19
3 3 4 3 14 6 11 28 36 21 28 24 27 29 23 24 24 23 21 15 14 11 7 11 15 19 22 24 27 31 32 31 30 29 26 28 27 28 29 27 26 22 17 19

GFSCGP_850_spd_036.txt.gz
Wind_Speed
13 5 13 11 7 7 5 7 7 4 7 18 17 14 23 32 30 31 34 37 38 44 41 36 35 38 40 36 34 30 33 34 29 27 23 23 31 28 26 19 15 15 15 16
5 12 9 9 7 10 12 15 13 5 3 2 11 16 19 16 30 38 36 35 38 40 43 44 42 40 43 41 37 32 33 33 31 29 26 22 17 23 25 19 20 18 16 11
13 7 11 9 10 11 13 17 8 6 3 4 7 2 6 6 6 23 31 40 40 45 46 47 49 48 45 45 42 38 36 37 35 31 26 24 18 17 23 22 24 20 18 13
10 14 13 17 14 14 14 15 9 7 5 9 8 5 8 15 12 14 29 35 39 44 50 50 52 53 50 48 44 41 39 39 38 33 30 30 27 23 25 20 21 19 15 17
9 18 19 17 18 17 14 10 9 9 6 3 3 3 6 10 19 13 22 36 43 46 51 52 54 56 55 50 47 45 43 41 39 35 34 33 31 25 23 22 15 18 18 20
19 17 15 19 14 17 11 8 6 4 4 10 13 13 6 9 10 20 22 37 41 42 45 52 56 54 56 54 51 49 47 44 41 37 35 35 34 28 31 24 20 21 18 22
10 17 9 9 10 10 11 6 5 5 6 10 11 11 12 19 13 21 25 36 37 46 46 50 50 54 55 57 56 53 50 48 45 41 37 34 33 30 33 27 26 22 22 24
11 9 16 11 18 14 10 16 9 8 4 5 6 9 10 12 20 38 44 46 41 47 50 53 57 59 60 59 58 57 54 51 48 44 40 34 33 33 31 29 31 28 25 21
8 10 4 15 14 19 10 11 11 7 3 2 4 7 8 12 8 19 36 36 40 48 50 55 60 61 61 62 61 60 58 54 51 47 43 38 34 37 34 30 31 30 24 21
7 3 11 22 9 17 19 7 5 1 12 15 5 7 6 8 14 17 24 33 43 47 51 51 54 60 60 60 62 60 59 57 53 49 46 42 36 38 36 35 36 33 26 25
20 9 10 4 13 16 8 11 3 6 9 13 8 15 8 10 12 14 21 44 45 43 50 51 49 55 60 57 58 60 60 59 57 52 48 45 41 37 39 39 38 39 36 32
9 12 16 26 9 12 21 16 13 11 8 5 16 19 3 10 10 15 24 37 42 38 45 45 58 54 51 53 55 60 59 59 58 55 49 47 44 41 39 42 42 41 42 40
8 10 11 8 12 12 8 12 18 6 4 20 7 2 9 6 5 14 15 17 25 35 34 42 47 45 45 49 54 60 61 59 57 56 53 49 49 45 42 41 43 43 44 42
13 6 12 21 11 6 7 17 13 17 12 11 21 5 6 1 7 9 25 32 34 37 39 31 34 43 45 50 53 60 63 60 58 57 55 52 50 47 43 42 43 45 44 45
6 6 5 10 16 19 11 11 22 22 21 20 8 10 10 9 9 9 24 28 40 44 34 38 45 42 52 51 57 62 65 61 59 58 57 55 51 47 44 44 44 45 45 45
4 5 7 7 12 23 22 19 21 17 21 19 8 8 10 14 19 14 21 31 33 29 37 36 29 38 52 60 61 65 64 62 59 59 59 56 52 51 49 47 46 45 44 44
4 3 7 6 6 18 17 33 16 12 9 10 11 8 9 8 8 12 18 27 29 36 38 28 28 43 56 61 67 62 58 59 59 61 60 58 54 52 52 50 47 47 45 43
8 2 3 6 3 17 16 16 21 9 7 6 7 9 15 13 28 29 24 21 25 22 27 22 28 35 51 55 56 58 56 57 59 59 60 60 57 53 51 51 50 48 46 43
20 8 4 3 4 4 3 4 9 10 13 9 10 10 9 23 19 5 22 20 21 33 22 18 22 24 32 33 46 51 53 55 56 56 57 61 59 54 51 49 49 48 46 42
21 19 9 3 2 6 4 4 10 7 2 4 10 10 9 8 10 5 15 19 20 18 20 20 20 28 34 37 41 47 51 53 54 54 55 56 60 56 52 47 45 46 43 40
4 1 7 12 5 8 4 7 5 9 7 2 6 9 10 6 10 21 18 17 17 28 26 23 21 23 20 22 38 42 44 46 40 41 40 52 57 57 52 49 45 45 41 36
5 4 3 5 6 5 31 22 6 6 7 9 14 13 24 25 22 19 17 17 14 13 22 28 27 33 35 33 37 35 37 35 34 45 45 45 51 54 52 51 47 44 39 34
6 6 4 5 3 6 24 14 26 13 11 7 12 12 14 18 25 26 25 21 17 14 12 11 15 27 32 30 31 36 39 37 38 44 47 48 49 48 49 50 47 43 37 37
6 6 4 1 4 14 24 39 26 16 19 14 11 13 13 26 25 26 24 19 16 12 9 8 10 15 21 28 32 38 40 44 48 50 51 50 49 47 47 47 45 41 38 42
2 1 6 0 9 20 17 32 25 14 19 20 20 25 26 25 23 24 21 17 13 8 3 5 11 18 20 22 25 29 36 41 43 46 43 42 43 42 43 46 46 39 33 29
1 2 3 4 5 4 7 22 28 38 32 24 24 24 23 22 22 21 20 16 10 5 3 6 7 10 15 19 23 26 28 33 37 44 42 35 34 36 34 38 28 20 21 15

GFSCGP_850_spd_039.txt.gz
Wind_Speed
10 7 12 9 7 5 6 3 4 4 8 1 13 6 21 31 28 28 32 34 36 39 49 44 41 38 39 38 37 34 35 33 31 32 30 30 28 27 27 23 19 15 13 14
2 14 8 8 8 8 6 6 6 5 6 9 10 9 19 22 32 37 37 37 40 37 37 46 47 44 44 41 39 39 38 34 33 33 31 28 27 31 28 26 25 19 16 13
11 6 11 9 6 9 6 10 5 7 0 2 5 3 12 18 12 24 30 37 40 42 41 43 45 47 46 47 44 42 40 37 33 32 32 29 25 24 28 31 28 23 20 15
6 9 10 7 10 10 10 5 6 8 5 5 6 5 14 17 18 17 27 33 36 39 45 47 48 47 47 49 47 43 41 38 35 36 35 33 31 29 24 27 27 24 22 22
10 14 17 13 14 8 9 6 7 6 5 1 5 2 7 18 16 21 25 39 40 42 46 50 54 53 53 50 49 47 44 42 38 36 37 35 33 30 23 24 24 23 23 19
15 9 14 17 9 13 5 3 2 0 3 7 12 8 9 10 26 23 26 38 46 46 48 52 56 54 55 52 52 50 48 46 43 39 38 38 35 31 26 27 28 25 25 23
5 18 4 7 9 6 6 7 4 3 4 11 10 7 15 9 15 21 24 40 46 49 50 52 51 50 53 56 56 55 53 51 48 44 42 40 37 32 29 29 30 28 24 25
9 5 17 7 10 11 10 14 6 8 4 7 5 10 13 16 18 30 31 42 45 46 49 52 56 57 58 59 59 59 58 56 53 48 45 43 38 34 29 30 33 32 28 25
9 9 4 12 7 17 8 12 12 3 2 3 5 8 6 9 11 14 20 23 34 44 47 50 56 59 59 60 61 61 62 59 56 51 48 45 41 38 34 32 31 33 32 26
7 2 8 10 11 10 14 8 4 2 11 14 5 7 6 10 17 12 10 23 34 40 45 51 53 57 58 59 60 60 61 61 56 55 50 47 43 41 35 32 34 37 35 32
1 4 4 7 8 19 3 9 4 7 6 10 2 10 9 9 11 13 15 30 38 41 47 53 52 52 57 58 59 60 60 60 59 57 53 50 46 43 40 35 37 36 35 33
7 2 15 18 5 14 19 14 12 5 10 6 11 10 3 17 14 9 15 28 41 45 45 44 51 50 51 52 54 59 59 59 59 58 57 52 48 45 44 39 39 39 38 37
8 4 2 6 3 3 8 10 16 13 1 21 7 6 8 7 7 15 18 25 27 34 38 46 48 45 48 51 55 59 58 58 57 58 57 57 53 50 47 45 40 42 42 42
4 3 5 11 4 5 8 10 15 16 11 14 20 4 4 7 11 9 15 22 25 34 43 46 46 41 46 50 54 55 58 57 55 57 55 56 58 52 48 48 46 43 44 45
4 4 4 7 11 15 15 15 25 19 24 16 14 14 13 10 10 11 18 18 19 29 38 45 50 50 50 51 50 51 52 54 54 54 56 55 54 54 50 50 50 47 45 47
5 4 5 6 10 13 16 19 24 29 23 14 7 8 9 17 25 16 25 22 23 32 39 48 55 52 50 51 53 54 51 52 52 50 51 53 53 53 54 52 51 51 49 47
2 2 5 5 6 10 12 31 20 12 13 18 14 8 8 8 10 15 30 32 31 30 34 45 44 44 45 47 53 55 54 50 51 50 50 52 54 54 53 55 53 53 53 51
5 4 2 5 5 7 12 10 19 17 9 7 5 11 11 14 28 36 34 24 33 29 28 39 48 48 38 47 50 51 52 52 53 54 52 51 54 55 54 53 55 55 55 54
18 6 3 3 3 9 12 3 6 12 9 7 12 10 9 25 12 9 33 29 27 24 21 24 39 37 41 43 45 47 47 46 49 54 53 53 56 56 55 55 54 55 56 55
22 19 7 3 4 6 2 15 25 13 18 15 12 11 10 9 4 12 30 32 30 27 26 25 33 40 38 33 28 34 38 42 47 51 51 53 55 56 56 56 56 54 54 55
9 9 13 10 5 8 12 21 15 8 7 15 18 20 13 8 16 24 21 24 26 24 22 34 24 30 29 25 27 27 32 34 35 42 48 52 53 54 52 52 54 55 53 51
8 10 7 7 7 8 14 9 7 10 34 28 17 21 29 33 28 20 18 23 28 26 24 26 26 23 20 31 36 36 40 32 31 33 41 48 48 48 48 48 49 52 51 47
5 5 8 8 6 3 2 4 18 23 29 29 20 14 20 24 25 27 21 17 18 16 21 26 22 25 23 31 35 37 34 30 33 36 41 45 41 45 47 50 52 52 53 49
6 9 6 6 5 5 16 27 31 34 32 14 4 17 24 25 22 25 21 17 13 10 8 7 6 5 9 15 22 28 35 37 41 46 48 49 49 49 45 47 49 48 47 43
10 6 13 15 4 4 11 22 27 36 18 17 13 17 21 23 21 19 19 16 13 10 7 5 4 5 6 8 10 11 15 23 30 35 42 44 44 40 38 39 35 35 35 38
10 7 8 9 7 6 6 13 20 23 11 22 24 23 23 23 21 19 19 16 13 11 8 5 4 6 9 11 13 15 16 16 16 19 25 29 35 35 35 35 19 30 28 26

GFSCGP_850_spd_042.txt.gz
Wind_Speed
11 5 11 13 8 4 6 4 6 4 3 5 9 5 9 25 25 25 30 33 34 42 41 39 38 36 33 32 33 31 33 28 29 30 32 30 27 26 23 19 17 17 12 12
5 19 11 9 8 8 6 3 5 5 7 3 5 9 8 16 27 34 34 34 38 34 33 40 40 40 39 34 33 34 34 32 34 33 30 29 27 27 25 22 22 21 18 15
17 6 12 10 6 12 6 12 5 5 6 2 5 4 8 10 8 20 26 32 34 37 41 40 43 44 43 42 40 37 36 36 37 36 33 31 30 30 29 28 26 25 22 17
6 8 20 10 12 11 9 7 6 8 1 4 5 5 5 13 19 17 25 33 37 38 39 42 45 47 46 47 43 42 40 39 38 38 39 36 32 31 28 27 29 31 27 23
11 14 13 19 15 10 8 7 9 6 5 1 3 1 6 11 13 19 24 34 38 43 48 47 48 49 49 46 48 45 44 42 41 40 39 38 37 31 26 23 22 25 25 23
8 5 12 10 8 12 9 6 6 5 4 7 10 8 5 8 20 20 25 35 38 40 46 49 49 48 50 50 49 49 48 46 45 43 41 40 37 34 30 28 25 25 26 27
5 11 4 7 8 5 8 6 1 1 2 11 10 7 15 11 18 24 26 41 42 45 46 50 51 51 53 53 51 50 49 49 48 46 44 42 39 36 31 28 27 27 28 28
8 6 16 6 10 11 9 10 6 7 5 11 6 10 8 13 18 29 34 42 40 40 45 49 57 58 57 54 55 53 51 51 50 48 47 44 41 37 33 32 28 29 31 29
7 9 4 10 6 16 6 9 10 5 2 2 5 6 6 5 12 15 28 30 35 41 43 50 55 59 61 58 56 55 53 49 52 51 49 48 45 42 36 33 31 30 32 31
3 2 7 18 6 12 10 11 4 1 6 6 5 4 6 10 12 14 9 25 36 40 44 50 51 52 58 61 58 56 53 51 50 52 52 51 47 44 39 34 33 31 31 34
6 3 3 8 11 16 4 5 3 6 6 6 1 6 8 10 15 19 19 29 36 39 43 45 49 54 54 54 56 57 55 55 53 53 54 52 51 48 44 40 34 33 33 33
2 1 6 7 2 14 20 14 7 8 7 5 4 8 4 10 11 11 15 31 34 35 37 41 45 47 49 53 53 54 54 54 55 55 53 53 51 50 47 44 38 35 34 34
5 2 2 4 8 3 5 10 7 4 2 18 7 6 8 6 7 15 18 24 22 23 29 35 38 42 48 51 51 50 51 52 52 53 53 53 52 52 50 47 42 39 37 37
2 1 3 3 3 3 6 8 9 15 11 13 20 3 4 8 10 10 22 25 29 27 22 29 37 43 47 51 51 49 49 49 49 50 51 51 52 51 50 47 46 43 40 39
3 0 2 4 11 8 12 16 14 20 21 13 10 15 10 9 10 18 34 26 21 22 21 21 31 42 45 48 49 49 48 48 47 47 49 52 51 50 49 50 49 46 44 43
5 3 2 4 10 14 13 14 17 14 12 17 12 9 9 18 21 14 19 21 24 23 20 20 26 35 43 45 47 49 48 46 45 45 46 48 50 50 50 50 51 48 47 46
3 2 2 4 6 9 12 13 13 10 10 12 17 11 7 9 10 16 30 33 30 33 32 29 24 31 37 42 45 47 45 45 47 46 46 47 48 49 48 49 50 52 51 49
4 2 2 4 4 8 7 3 10 20 18 14 9 13 17 16 28 37 40 42 43 42 38 37 30 25 33 40 42 43 45 46 48 48 47 49 48 48 46 45 48 49 52 53
17 5 3 4 6 10 18 4 4 4 13 13 11 10 13 31 28 17 36 40 39 32 34 33 27 21 31 39 41 42 44 46 48 46 47 46 47 48 48 48 46 48 50 53
13 13 6 4 6 7 3 3 6 5 5 7 10 11 14 9 7 9 34 30 34 32 35 23 25 23 27 42 45 42 43 46 47 47 46 47 48 49 49 47 45 46 47 50
5 7 15 13 5 6 4 6 5 8 6 15 11 16 16 10 19 28 24 22 24 27 29 24 27 25 22 30 41 43 41 44 43 45 45 44 45 46 46 46 44 43 44 46
6 6 5 6 6 15 1 5 4 3 12 19 23 25 26 27 34 31 26 23 20 24 27 25 27 23 22 23 32 34 33 33 38 39 39 36 36 37 41 42 41 39 38 43
4 7 4 9 6 5 8 6 8 9 10 16 26 33 29 32 36 42 32 18 14 17 19 21 19 21 19 19 23 26 28 28 29 30 32 31 33 36 37 37 37 39 37 36
5 3 7 6 8 7 4 8 10 10 13 24 24 22 18 18 19 16 17 17 17 15 14 11 12 12 10 8 9 15 22 26 21 20 21 24 29 29 29 29 30 30 30 29
7 6 5 8 20 15 9 6 9 11 11 16 12 6 11 19 27 30 28 26 26 25 24 21 19 16 13 9 8 5 2 7 11 14 14 14 17 22 24 25 27 23 24 27
9 8 5 9 12 14 5 3 6 2 6 13 9 17 20 22 31 34 32 28 27 26 22 21 19 15 14 12 9 6 3 3 3 3 4 5 10 14 16 19 17 15 16 22

GFSCGP_850_spd_048.txt.gz
Wind_Speed
29 19 26 27 24 20 13 12 18 15 9 13 16 15 12 16 22 23 26 28 30 31 30 30 30 30 29 28 28 27 28 28 27 26 23 21 20 18 18 17 17 15 15 13
18 28 23 22 22 21 22 17 19 13 7 9 16 15 13 13 22 25 26 29 30 28 29 32 32 32 33 32 31 30 31 31 32 28 26 22 20 19 19 17 16 18 16 14
24 14 24 24 23 23 23 23 18 15 11 14 13 15 15 11 17 23 26 28 27 30 31 33 34 36 34 34 33 31 33 31 32 28 25 24 20 20 20 20 18 18 19 17
24 15 26 22 26 25 25 24 18 16 12 13 15 15 19 20 17 18 25 27 31 33 32 32 34 35 37 36 34 33 33 33 30 32 26 29 27 23 22 19 18 18 19 19
21 25 23 27 25 24 21 17 18 21 18 17 21 10 16 12 18 19 21 29 31 33 36 36 36 38 39 36 35 33 33 36 34 34 32 28 29 24 18 19 19 21 20 23
26 17 23 23 19 23 11 18 15 15 17 19 24 20 17 17 18 18 22 27 31 32 35 36 36 35 36 35 34 32 34 39 38 37 36 36 30 29 22 22 18 17 16 18
24 28 19 18 23 20 23 20 11 14 17 20 19 21 20 9 17 20 19 26 30 33 34 37 37 36 36 37 37 37 39 42 41 40 38 38 38 35 33 25 20 19 17 18
20 21 29 27 25 23 29 25 13 20 15 18 18 17 22 22 24 8 23 23 25 30 33 36 39 40 39 39 42 42 41 45 43 42 41 39 38 36 32 30 25 21 21 19
21 27 26 21 22 24 25 27 25 17 9 10 15 19 16 13 18 25 24 22 27 27 32 35 38 41 40 38 41 47 49 47 46 45 44 43 41 40 33 33 31 28 24 21
17 17 20 26 27 26 19 24 22 17 22 20 13 18 13 18 23 19 22 28 25 27 30 34 35 39 42 41 42 44 47 48 47 49 48 46 45 42 41 40 37 34 30 28
16 14 22 21 26 26 22 18 23 17 17 13 14 13 16 17 17 22 21 27 29 29 28 32 35 35 38 40 38 40 42 47 48 46 47 48 47 45 42 44 43 40 37 35
12 10 13 26 24 25 27 24 27 14 23 20 15 10 8 5 12 18 21 25 27 26 26 26 28 29 30 35 39 41 42 41 43 46 45 45 45 46 44 43 44 42 40 38
1 13 15 14 18 24 26 27 24 25 16 21 18 5 8 7 4 3 9 10 15 20 21 23 23 26 30 33 38 40 40 42 40 41 43 46 46 46 49 46 43 43 42 41
8 11 21 19 16 18 26 27 29 28 20 19 19 15 13 8 4 7 8 9 7 9 13 19 23 26 27 30 35 44 42 37 38 38 39 46 49 49 48 49 46 45 43 43
7 12 7 15 3 5 11 29 30 29 27 26 19 20 19 11 10 8 7 6 4 5 7 12 17 19 20 25 34 41 41 42 38 43 44 45 47 50 51 51 51 48 46 44
5 3 6 15 11 9 11 14 16 21 28 27 26 24 13 12 15 24 21 19 18 18 18 14 16 17 18 21 26 31 36 40 43 44 47 45 45 46 50 52 53 50 49 47
5 5 7 15 12 11 16 22 21 19 20 18 23 17 16 20 16 17 19 16 18 20 17 14 14 17 18 20 20 24 30 32 38 46 47 45 46 45 45 45 47 49 50 48
7 7 8 6 7 17 13 13 19 24 21 20 19 16 15 17 23 24 25 27 30 30 24 18 18 15 17 18 20 20 23 32 37 39 42 45 46 45 42 41 43 44 46 48
13 9 7 11 13 11 7 4 5 10 14 16 19 16 17 25 26 28 27 25 28 30 32 26 24 21 20 20 19 21 23 27 31 38 38 41 42 41 41 41 42 41 38 38
14 12 9 7 16 17 3 11 13 7 9 2 1 6 8 14 14 12 20 21 23 27 27 29 29 28 25 26 20 24 26 29 32 35 36 36 37 39 39 38 37 35 34 32
12 11 14 13 12 8 13 8 2 13 5 6 7 7 8 8 11 20 27 28 22 19 19 20 22 24 27 21 21 27 26 27 28 30 31 33 34 35 34 33 32 30 30 27
9 9 11 14 17 21 10 11 11 10 13 14 14 13 15 18 20 23 26 31 32 32 28 24 23 20 20 21 24 24 25 24 24 27 28 30 32 31 27 32 29 28 28 29
12 11 9 11 10 11 11 15 17 18 21 23 23 22 23 26 27 29 31 29 30 29 28 24 22 18 18 23 25 23 23 23 23 24 28 29 27 25 25 26 24 24 26 26
17 19 14 16 20 22 22 26 22 20 26 27 26 28 27 32 33 35 33 29 26 25 24 22 19 17 15 20 22 22 21 23 24 23 23 22 22 22 21 21 20 22 23 25
13 11 14 19 21 27 30 29 32 24 17 23 26 27 27 29 35 35 36 32 26 20 17 15 14 12 13 16 17 17 18 17 20 20 20 21 20 21 20 21 21 20 20 20
22 24 17 18 24 21 24 27 22 19 23 26 28 30 29 28 36 36 24 19 13 10 10 11 11 10 10 11 16 12 16 18 19 20 19 18 18 19 21 25 25 25 23 24

GFSCGP_850_spd_051.txt.gz
Wind_Speed
28 19 26 30 28 23 22 22 22 20 13 20 18 14 20 21 23 25 28 28 29 30 30 31 31 31 30 29 28 28 28 27 24 22 20 19 18 16 15 14 15 14 11 10
19 28 27 26 26 28 27 22 22 14 18 19 18 18 19 19 22 22 27 29 29 28 30 32 33 33 33 32 32 31 31 30 30 23 22 19 18 16 15 14 16 15 12 12
29 19 28 26 25 26 27 25 19 19 17 13 10 16 16 19 20 22 26 28 28 30 31 33 34 36 35 35 34 33 34 33 32 26 22 21 19 18 16 17 16 16 15 14
30 24 27 27 29 27 28 26 22 20 19 17 22 15 20 18 17 17 26 30 32 31 32 33 35 36 37 37 35 35 36 35 32 32 24 25 23 20 19 18 17 16 17 16
31 24 21 28 27 28 26 23 23 21 18 18 20 18 16 24 23 22 22 31 30 32 35 36 36 37 38 36 36 36 37 36 33 32 32 27 27 22 17 18 17 21 18 18
29 24 23 20 26 23 21 21 20 23 19 19 24 20 16 14 19 23 25 28 30 33 33 35 34 34 35 36 35 35 37 38 37 34 34 34 28 27 22 20 19 18 16 18
27 32 23 21 23 23 23 20 14 17 18 17 25 23 19 16 20 19 20 30 30 31 34 35 36 34 34 36 36 35 38 40 41 41 37 38 37 30 29 25 22 19 17 17
22 24 33 22 28 24 26 25 16 22 19 18 24 25 23 24 22 15 28 29 32 32 33 35 37 38 38 39 42 42 41 42 42 42 42 39 40 33 30 30 23 21 21 17
25 31 30 32 26 27 24 27 26 23 23 17 21 21 25 21 24 20 14 25 31 32 34 35 37 39 38 40 43 45 44 45 44 43 43 42 39 40 36 33 32 28 23 20
29 19 32 28 26 29 30 22 24 18 24 19 20 15 16 21 16 19 24 19 28 29 35 35 37 38 40 41 45 47 48 47 47 46 46 45 44 42 41 36 35 29 29 27
33 24 18 27 28 27 25 24 28 21 19 17 12 11 14 15 19 22 20 30 28 30 34 35 35 38 41 41 40 43 46 49 49 48 49 48 48 47 44 43 41 37 34 30
36 12 22 30 28 27 28 30 27 18 24 18 13 8 9 5 9 15 22 24 32 29 31 33 35 35 36 39 39 41 43 44 49 47 47 51 51 49 48 45 45 43 40 39
3 16 17 25 26 25 30 28 28 26 20 22 17 10 13 7 1 12 16 22 23 27 28 32 33 33 33 36 41 42 42 43 41 43 44 47 49 50 51 49 46 44 43 41
10 17 23 20 24 23 29 31 30 27 19 19 20 17 12 10 8 5 4 7 13 21 18 21 27 31 32 33 36 40 41 40 41 41 42 45 49 51 48 46 46 45 44 42
7 15 19 25 19 8 26 29 31 31 23 25 16 21 15 15 10 11 15 10 6 5 5 8 15 18 19 26 31 37 43 40 41 44 46 48 48 47 48 47 44 44 45 46
7 13 19 22 21 8 14 19 33 28 28 23 23 17 15 12 10 5 7 7 6 9 14 9 12 18 21 25 27 30 36 43 40 41 46 44 44 47 48 48 48 45 45 48
11 10 9 15 17 12 18 19 16 20 26 25 21 19 15 8 6 5 5 7 7 9 9 11 12 13 19 22 21 25 31 34 41 44 39 43 42 45 46 47 49 51 52 51
13 9 9 10 17 22 13 18 16 14 14 13 13 11 10 9 12 13 15 16 16 16 16 15 13 13 13 17 20 20 20 29 37 38 44 41 44 45 45 45 48 50 50 52
13 10 6 10 12 8 17 12 14 14 18 17 15 14 12 13 11 15 15 16 19 19 18 17 17 18 16 14 18 16 19 23 31 41 44 47 43 46 45 48 47 44 44 45
14 12 10 9 14 14 7 13 4 7 8 7 11 17 17 15 11 11 9 11 13 11 12 12 15 19 22 16 19 19 19 25 33 31 40 42 42 44 46 46 44 41 40 41
12 12 14 14 9 11 4 12 3 12 5 18 10 8 5 4 9 17 17 18 17 18 18 18 16 14 16 19 23 22 24 29 27 27 29 37 40 43 41 40 39 38 37 32
7 13 12 13 17 20 10 7 4 9 7 13 13 12 9 11 14 15 18 21 22 22 22 22 22 22 19 18 20 26 29 33 30 28 29 31 34 34 31 38 35 35 34 33
8 7 7 9 10 12 14 12 10 7 8 11 13 15 16 17 18 18 20 22 24 25 24 22 23 23 21 18 19 26 31 29 31 28 30 30 32 31 31 31 34 30 31 28
11 16 13 14 15 18 24 19 16 18 17 16 19 18 19 22 22 21 22 23 26 26 24 21 20 22 22 20 20 27 25 25 27 29 28 30 31 32 29 26 25 25 25 25
17 19 17 20 21 27 30 28 27 25 25 26 21 21 24 26 27 26 26 26 27 25 22 17 14 13 15 14 16 16 19 25 24 24 23 26 25 27 25 24 26 23 21 24
21 19 16 17 25 22 22 25 26 31 30 30 24 28 27 28 31 30 29 28 24 20 18 15 13 12 12 12 10 12 15 18 20 21 21 20 21 21 23 25 28 28 27 26

GFSCGP_850_spd_054.txt.gz
Wind_Speed
29 18 24 28 25 22 20 22 23 21 21 24 21 20 24 17 8 23 33 35 33 33 33 33 31 32 32 32 33 33 30 29 27 24 23 21 19 17 15 15 13 13 13 9
21 28 26 25 24 26 27 25 23 21 12 6 20 25 25 23 37 51 30 27 34 32 33 34 34 35 35 36 36 35 36 33 29 28 24 22 19 17 16 16 16 19 16 11
28 18 26 26 26 27 28 27 24 21 17 11 22 10 27 29 32 40 36 41 34 35 34 35 37 37 38 39 39 38 38 36 36 30 27 21 20 19 20 17 17 20 18 15
29 26 28 27 28 27 27 28 27 24 18 14 20 9 26 16 20 23 33 35 34 37 35 36 38 38 39 39 41 40 38 39 38 35 26 29 29 26 25 20 19 20 18 14
30 28 31 27 29 27 26 25 25 25 19 17 20 16 14 20 18 21 22 35 34 38 40 41 40 42 41 40 40 41 39 38 38 37 32 27 29 27 21 21 19 21 21 19
32 32 28 30 23 27 24 22 24 23 18 17 22 18 19 16 20 20 22 29 38 38 40 40 41 39 41 39 40 39 40 39 38 37 38 33 30 29 26 22 24 22 23 21
27 34 29 25 21 25 24 23 14 17 17 17 21 20 14 16 23 18 21 29 31 39 40 40 42 41 42 40 40 40 41 41 39 40 39 40 36 30 30 28 25 24 22 21
24 23 34 23 28 24 28 26 14 24 17 18 22 21 19 21 18 27 29 36 32 32 39 42 42 43 44 45 45 44 45 43 41 41 43 39 41 39 33 32 30 26 24 20
23 29 22 34 24 25 26 25 24 20 21 17 18 22 24 25 23 19 14 31 35 35 34 40 42 45 45 45 46 49 48 47 43 42 44 44 40 42 41 35 34 27 25 24
30 21 31 30 26 28 30 21 21 17 22 22 19 22 18 23 20 26 20 19 26 36 35 40 41 43 44 48 48 50 49 49 45 43 43 46 45 42 41 40 36 36 29 24
30 27 25 29 32 27 21 22 25 20 16 15 15 14 16 24 25 20 19 26 23 33 37 37 40 42 45 48 47 48 49 49 48 46 44 44 46 45 42 42 40 36 36 34
18 26 21 31 30 31 27 28 26 12 20 16 14 10 14 11 23 18 16 30 30 26 36 37 38 42 44 43 45 48 49 49 51 49 46 45 45 45 45 43 42 40 36 33
14 10 18 27 25 29 33 30 30 23 17 20 15 12 7 9 9 17 20 23 19 28 24 36 38 40 43 45 43 45 48 48 46 45 47 45 45 48 48 46 43 43 40 39
9 10 19 19 21 18 27 30 29 29 16 16 17 14 10 9 6 1 11 19 20 26 26 33 38 41 42 45 47 45 44 46 45 45 44 46 47 47 46 47 45 44 44 43
15 16 17 23 23 25 28 27 29 29 23 20 19 20 14 13 11 6 14 11 7 21 18 15 25 40 44 42 45 47 44 44 43 45 46 47 45 45 44 44 44 44 43 44
17 11 12 17 22 21 24 32 31 29 29 23 24 18 12 16 22 12 14 11 10 6 7 4 4 5 14 38 42 43 46 42 43 44 47 46 45 44 44 45 46 45 44 42
12 11 10 16 17 20 21 15 15 26 24 24 19 16 19 20 19 17 12 10 4 5 8 4 2 3 10 11 28 33 39 43 41 42 44 47 46 47 46 45 45 45 46 45
12 12 9 9 13 15 11 10 16 12 25 24 20 15 11 10 17 21 15 9 2 3 7 7 7 9 14 18 20 24 25 30 39 43 41 42 46 47 46 46 46 45 45 47
10 9 7 6 8 9 13 15 16 10 8 6 7 19 7 9 10 15 10 5 5 9 10 12 14 17 14 20 25 27 29 30 32 37 44 43 43 45 47 48 47 45 44 46
10 10 9 9 8 10 7 6 6 3 12 19 10 5 3 5 4 9 18 14 11 11 8 7 8 10 9 8 6 26 31 30 29 27 32 42 44 44 49 49 48 46 46 46
13 10 11 10 6 5 9 19 10 11 6 17 24 24 25 8 12 13 10 10 10 11 13 12 14 15 15 13 12 9 13 28 24 25 27 29 41 46 43 44 44 44 44 44
4 11 9 12 14 7 4 8 7 7 14 18 18 20 19 17 13 12 13 14 15 16 16 15 15 16 18 20 13 18 24 21 23 29 28 27 31 37 41 41 43 42 41 41
2 6 7 6 12 15 18 19 15 7 8 12 13 15 16 14 16 18 21 19 20 20 22 20 18 19 21 20 19 21 25 25 23 23 29 30 28 31 34 35 41 38 38 38
14 16 10 14 13 18 17 18 19 14 11 11 12 14 14 15 17 20 25 28 27 25 26 22 26 21 20 20 22 25 25 23 27 27 28 29 31 31 30 33 33 34 34 36
16 21 16 17 16 21 24 23 23 23 20 19 18 16 17 16 17 19 21 25 28 24 26 26 25 22 17 13 15 19 20 21 23 22 27 28 29 28 29 30 28 30 31 31
17 19 14 17 32 28 31 35 29 24 21 19 21 22 22 17 20 21 24 26 29 26 27 22 22 22 21 17 15 19 20 16 16 25 24 24 25 25 27 31 34 32 30 31

GFSCGP_850_spd_057.txt.gz
Wind_Speed
25 12 22 21 18 9 14 17 12 14 17 14 10 19 25 25 27 29 29 26 27 40 44 43 48 47 43 43 40 38 32 28 26 23 27 27 28 23 23 19 15 13 12 9
13 25 15 15 17 18 19 20 17 15 18 12 19 23 21 23 17 33 35 31 33 38 38 40 42 46 47 47 43 41 38 32 30 27 24 25 23 23 20 22 18 14 13 10
21 9 19 21 19 21 19 19 19 14 13 10 16 9 14 8 10 19 27 45 42 44 43 43 46 44 45 44 43 42 39 37 34 30 26 22 22 19 21 17 22 18 18 17
23 20 21 24 22 21 18 21 21 21 11 5 11 8 12 17 17 16 33 40 39 42 45 45 50 46 47 47 45 42 40 40 38 34 31 28 29 28 25 21 16 20 21 17
25 24 25 22 24 19 18 11 19 21 15 9 7 6 11 25 23 21 32 43 44 43 50 50 54 53 51 49 49 44 41 39 41 39 35 31 29 28 25 23 22 18 18 16
19 21 20 24 21 21 16 15 17 18 14 13 9 11 7 22 24 25 35 46 51 47 50 52 55 50 51 47 48 46 44 41 41 43 40 36 34 31 29 27 25 21 20 20
20 25 26 24 20 18 19 12 7 9 9 11 10 6 8 10 11 30 34 51 55 54 53 53 49 50 49 49 48 49 46 44 42 42 44 41 36 32 30 28 25 25 24 24
21 22 27 21 22 19 19 20 7 11 6 10 8 8 8 11 2 23 46 59 53 54 55 54 55 55 54 52 50 50 49 47 44 42 42 42 41 36 33 29 30 25 25 23
12 28 11 27 18 22 12 19 11 4 6 2 5 8 12 18 10 8 16 44 51 52 55 54 56 56 58 55 53 53 51 48 45 42 42 42 43 43 38 33 31 30 28 25
13 22 23 20 24 22 19 11 13 9 9 11 9 9 14 13 17 10 12 26 41 50 52 53 56 55 57 56 54 54 52 50 45 42 42 42 42 43 43 38 34 33 30 27
20 6 26 18 23 27 12 12 15 6 6 6 5 11 11 17 21 18 16 23 37 36 51 53 54 56 56 54 53 54 54 51 48 44 41 41 42 41 42 43 38 35 34 29
18 8 7 28 20 15 18 19 11 11 13 4 4 10 5 10 26 22 15 27 34 40 52 53 53 56 57 53 54 53 54 53 50 44 43 42 41 42 42 43 41 38 35 37
15 6 6 12 12 20 21 22 20 6 6 10 8 11 4 11 18 27 17 25 34 35 46 51 51 54 56 54 53 52 52 51 48 48 45 43 41 42 42 41 40 40 38 37
25 12 15 11 13 6 8 20 22 17 8 8 12 6 9 7 9 8 18 18 33 35 45 48 48 54 55 52 52 51 51 50 48 48 48 46 44 43 41 40 39 39 40 39
12 13 14 20 21 15 15 21 22 20 18 13 9 8 9 5 8 8 16 18 25 28 34 45 48 50 55 52 51 51 50 49 48 46 45 45 43 42 41 40 41 41 40 41
18 10 17 10 11 11 11 15 29 21 21 14 10 11 9 9 16 17 23 23 23 24 24 31 35 43 53 54 52 52 51 50 48 47 46 41 40 40 41 40 40 40 39 39
19 12 10 5 6 5 6 11 8 19 19 20 15 9 6 8 11 13 26 22 21 22 21 21 16 13 47 51 52 51 50 47 47 48 47 46 44 41 38 37 38 39 40 39
19 19 4 5 5 2 6 8 10 9 11 5 9 5 16 10 17 24 26 25 20 18 16 16 15 12 8 19 44 49 49 49 46 46 48 47 47 45 42 41 41 38 39 41
16 15 5 3 3 5 7 12 10 4 13 23 18 15 16 29 38 27 31 31 29 26 21 17 16 15 15 7 16 36 40 45 49 46 45 47 48 47 47 46 46 42 41 41
15 12 3 4 3 2 18 28 38 15 9 19 20 22 11 28 12 5 27 27 25 22 19 15 13 12 10 9 7 16 33 34 38 43 44 43 41 41 45 46 46 45 43 42
11 5 7 6 3 5 16 24 23 8 5 17 24 25 24 17 12 24 26 28 24 20 17 10 5 11 14 12 6 5 12 30 34 32 27 29 36 43 42 42 44 45 45 43
7 5 2 4 2 3 21 16 12 6 13 16 21 27 26 28 28 27 28 29 29 22 16 12 7 10 11 13 12 10 8 7 17 25 30 31 30 31 38 41 42 42 43 43
5 4 4 2 4 15 25 11 25 25 20 21 19 18 20 20 22 22 24 25 24 25 19 15 15 13 12 15 14 15 14 16 17 18 24 24 32 29 28 34 41 40 40 42
13 5 4 10 10 18 32 16 27 33 35 33 21 21 18 17 13 16 18 20 19 19 23 17 16 17 14 12 15 18 16 18 20 17 22 22 27 28 27 27 33 36 40 43
9 10 13 11 13 32 22 27 31 35 36 35 33 22 17 18 15 10 13 16 17 16 23 21 20 23 18 17 14 15 16 20 24 23 23 25 28 29 29 28 30 35 36 39
17 11 5 12 32 27 38 46 41 37 38 33 33 30 24 17 16 9 13 16 17 18 20 24 26 25 21 20 21 18 15 17 20 22 22 24 28 30 30 30 30 33 32 34

GFSCGP_850_spd_060.txt.gz
Wind_Speed
19 9 16 18 10 8 6 7 10 8 16 25 23 22 20 28 19 30 35 36 39 46 49 46 46 43 46 41 39 35 43 39 34 30 31 33 29 28 23 16 16 15 12 11
4 20 12 8 9 14 13 14 16 14 10 10 20 23 25 22 28 29 36 38 42 40 45 48 46 48 51 48 45 41 42 40 35 28 27 35 34 30 27 22 19 16 14 13
17 8 17 13 17 17 16 16 14 13 6 7 14 5 11 13 15 21 28 36 37 39 42 45 50 49 50 51 50 47 45 41 37 30 27 26 32 32 29 29 25 21 16 15
15 17 14 20 17 18 16 16 15 16 5 4 12 5 12 16 21 18 27 30 34 38 41 46 48 53 54 54 54 50 48 44 38 34 31 29 32 34 33 27 27 24 19 17
18 18 20 18 27 17 15 11 12 13 5 4 11 1 7 18 20 23 27 35 38 41 40 46 50 54 57 56 56 54 51 46 42 38 34 33 32 31 28 25 22 20 23 19
13 21 18 24 13 18 11 9 11 3 4 8 10 9 5 15 29 25 25 35 38 42 42 46 49 53 55 57 56 59 54 49 44 40 38 38 35 31 30 27 24 23 20 20
6 23 16 18 16 17 15 6 6 3 6 9 10 6 14 24 29 25 29 37 40 44 46 45 48 47 52 58 58 59 56 51 47 42 41 40 38 32 30 30 28 24 23 23
6 17 19 12 20 13 12 17 9 12 5 9 4 9 12 13 32 40 42 48 45 47 45 43 50 54 55 59 58 58 56 52 49 45 41 41 40 36 34 32 29 29 27 23
8 7 5 18 18 20 9 16 14 4 2 1 4 7 7 9 12 16 36 41 42 52 49 50 50 53 54 60 61 60 58 55 52 48 42 40 41 40 38 35 31 30 27 26
3 9 16 19 11 20 24 7 6 3 16 10 5 6 12 9 11 9 16 36 48 50 54 48 50 53 56 62 64 61 59 56 54 50 46 42 41 41 40 37 34 31 30 27
4 4 14 12 11 14 15 16 5 6 5 10 4 10 8 10 11 11 15 38 44 49 51 53 53 54 59 60 62 61 59 57 54 51 48 46 43 41 42 41 38 34 31 32
8 5 6 12 10 5 7 10 13 9 11 3 5 14 6 12 12 10 17 40 53 51 57 57 55 54 53 55 59 61 59 57 53 47 47 47 43 42 43 43 42 38 35 34
6 3 7 11 3 3 5 5 7 5 5 9 11 15 5 7 7 22 28 33 50 49 52 54 54 53 54 58 57 60 58 56 52 48 46 44 44 43 42 42 42 41 39 37
6 3 10 10 16 17 11 17 9 9 7 7 12 21 8 14 12 16 18 32 39 53 53 56 53 54 55 59 60 59 58 54 51 48 45 42 41 41 40 38 38 39 39 39
3 6 13 20 23 24 24 22 20 14 14 13 11 9 8 10 11 10 18 31 37 43 51 53 53 53 56 56 59 58 56 54 52 48 45 41 38 39 38 38 37 36 37 38
3 5 14 21 20 18 19 18 12 11 16 8 7 8 9 10 12 5 14 23 28 41 52 54 54 55 57 59 59 59 56 53 51 50 46 42 41 39 40 39 39 37 37 36
3 1 7 7 7 10 2 14 10 3 11 7 16 11 3 3 9 15 14 33 24 28 40 48 54 57 59 59 57 56 55 52 50 47 44 44 43 43 41 39 39 39 37 36
6 3 4 6 8 6 9 19 12 18 20 21 14 12 9 16 27 35 33 29 38 37 28 24 33 35 40 44 49 53 49 48 47 47 44 41 41 40 38 37 36 34 35 36
14 7 5 3 3 2 17 19 14 6 14 21 19 8 18 28 42 31 32 30 33 38 37 36 33 21 36 35 40 44 42 44 43 45 45 42 41 40 39 39 37 34 34 34
11 7 6 8 3 2 9 25 31 6 16 19 24 21 17 10 14 4 22 29 30 30 32 32 31 31 29 20 21 34 36 39 42 43 44 43 42 42 42 39 39 36 37 37
5 4 8 9 6 4 21 26 21 9 9 24 22 20 25 15 8 15 27 30 30 29 28 27 25 25 22 20 19 16 25 36 40 42 44 45 44 41 38 40 41 42 42 41
2 2 2 4 3 3 29 13 7 5 18 24 27 27 22 21 22 25 26 28 26 27 27 26 25 22 17 14 13 14 13 8 5 13 36 40 41 39 37 37 38 39 40 41
5 3 2 3 3 4 16 8 17 16 18 22 27 30 29 20 19 20 22 23 24 24 24 22 22 19 16 11 8 6 3 3 4 5 8 18 22 27 31 32 32 34 36 39
10 12 2 10 3 15 30 24 19 15 25 28 29 27 27 33 16 15 21 22 21 22 23 20 19 19 17 12 9 5 2 2 5 7 11 13 17 22 25 29 32 32 34 36
10 8 8 7 5 30 4 9 19 32 39 42 35 27 20 23 17 20 20 21 21 21 22 23 20 19 16 11 6 5 4 3 3 9 12 14 18 20 23 28 31 33 32 35
14 6 5 7 24 20 30 38 38 33 37 39 32 30 21 17 16 18 20 19 21 20 19 19 19 17 16 11 7 4 6 8 9 12 15 18 20 23 26 27 33 34 34 35

GFSCGP_850_spd_063.txt.gz
Wind_Speed
11 4 18 22 7 4 2 4 5 4 7 15 18 12 20 29 25 26 31 32 34 38 40 39 39 42 39 35 36 36 35 32 30 28 26 26 24 21 17 15 13 11 10 7
5 14 11 8 8 10 7 8 7 5 4 6 14 16 16 20 31 35 34 34 36 35 36 40 44 45 43 41 40 39 39 36 34 31 29 27 28 27 23 19 16 15 14 11
7 7 15 11 10 13 11 14 10 4 4 8 10 7 10 14 19 25 32 37 35 40 40 42 47 48 50 44 44 43 40 38 40 36 32 32 29 30 30 27 22 17 15 14
9 18 10 14 16 12 12 11 15 9 6 6 7 5 7 20 20 19 31 39 39 40 40 44 46 47 54 52 50 46 44 41 40 41 36 33 29 37 36 32 27 22 19 17
13 10 11 14 20 11 11 6 10 5 7 6 8 2 6 12 19 22 26 36 41 44 46 48 51 53 51 54 52 52 48 45 41 45 41 35 30 31 36 35 29 28 23 20
8 20 9 20 10 14 4 5 5 2 4 10 10 10 6 7 18 23 28 35 38 42 44 49 50 49 51 51 52 54 52 50 46 46 45 39 32 31 31 32 32 27 27 26
9 8 7 8 9 11 12 5 4 3 6 10 9 8 18 11 20 24 23 37 41 40 43 44 47 50 52 54 54 53 56 53 51 48 48 42 36 31 31 29 29 29 26 26
4 6 5 2 14 10 12 13 6 6 4 9 7 7 11 13 20 31 39 40 42 45 46 48 48 51 53 53 55 57 55 55 54 50 51 45 39 33 32 30 28 30 28 25
4 6 10 14 13 8 8 15 10 2 1 2 3 6 10 7 10 15 26 27 36 40 46 49 49 50 51 52 57 57 56 56 55 52 51 48 41 36 35 33 29 30 28 25
1 6 3 8 9 12 16 6 5 1 15 10 4 4 8 9 10 10 12 28 35 42 46 42 48 50 53 55 57 56 56 54 55 54 53 49 43 37 35 34 33 32 30 27
2 3 7 6 5 3 1 12 4 6 6 12 4 7 6 9 11 14 14 29 36 42 45 47 54 50 53 50 54 56 57 56 56 53 52 52 46 41 37 36 35 33 31 30
1 3 5 9 14 19 9 7 11 8 9 4 3 16 6 10 9 9 15 30 41 42 45 47 52 51 49 49 51 56 56 57 57 54 52 51 47 44 41 39 37 35 35 33
1 0 4 9 2 5 6 8 10 8 3 9 9 12 6 7 6 11 16 22 32 39 41 46 44 44 50 54 55 54 55 56 55 55 54 53 50 48 45 41 39 38 36 36
5 3 5 5 3 8 12 22 22 4 5 16 17 3 8 8 8 10 18 21 23 36 42 44 47 50 51 57 55 54 55 54 52 53 54 52 51 49 45 41 40 39 38 37
2 3 7 8 10 16 21 26 27 15 14 8 14 12 12 10 11 8 20 37 32 34 44 45 47 50 50 51 50 53 54 53 50 50 52 50 46 44 42 39 39 38 38 37
1 2 2 5 11 23 21 23 19 22 18 17 13 12 6 8 8 15 19 25 27 34 44 47 49 50 50 54 55 55 54 51 47 48 47 44 46 45 42 39 38 37 37 36
4 2 2 6 7 17 10 6 13 12 14 4 8 2 8 9 13 18 24 19 15 33 42 47 49 50 52 54 53 55 54 50 49 48 47 45 45 44 41 39 39 39 38 36
6 4 3 3 8 5 9 12 8 16 20 21 17 14 8 15 19 31 30 29 9 12 29 38 43 43 48 50 48 48 49 51 50 49 47 45 44 43 41 41 40 38 37 37
7 5 3 1 5 7 2 7 10 6 13 21 18 20 9 6 23 25 35 30 26 22 19 25 31 35 35 39 38 44 45 45 44 45 44 42 41 39 40 40 39 35 36 36
7 5 2 1 5 5 5 16 27 13 8 20 22 20 18 17 9 6 27 29 30 31 28 22 25 29 29 31 32 37 43 40 41 41 40 39 39 38 38 35 34 32 33 32
5 3 4 7 5 2 10 26 25 6 1 17 23 26 27 10 6 17 25 28 31 30 34 35 30 27 22 29 32 32 35 39 38 34 36 35 36 36 37 35 34 33 33 33
3 2 0 3 4 4 23 11 7 3 9 14 21 24 27 25 15 20 23 27 28 30 29 31 33 32 29 23 26 29 28 28 26 28 33 29 30 32 33 35 35 34 35 35
4 3 1 1 3 9 19 17 17 9 9 16 21 27 26 25 19 19 22 23 24 25 25 26 26 26 26 26 24 25 20 17 15 14 13 17 21 23 25 28 29 32 31 31
7 14 3 7 6 17 28 10 18 17 17 20 20 22 25 20 20 20 18 19 20 20 21 20 21 22 21 19 19 19 17 14 12 12 11 9 7 10 16 20 24 27 30 30
4 7 5 5 6 25 9 31 32 30 22 23 25 22 22 17 16 18 17 15 18 17 17 16 16 18 16 14 13 11 10 9 9 10 10 9 9 9 10 14 19 24 26 28
14 5 4 3 18 13 24 35 28 24 20 18 23 30 26 23 20 15 16 11 12 16 16 15 15 13 13 12 10 7 4 2 2 6 9 11 12 13 14 16 19 23 26 29

GFSCGP_850_spd_066.txt.gz
Wind_Speed
8 5 20 16 5 4 4 4 5 4 6 6 9 7 15 22 20 24 28 30 32 36 34 36 36 37 38 35 34 32 33 31 33 29 27 25 21 16 15 15 12 11 7 4
4 14 8 6 7 6 7 2 3 5 7 7 7 13 9 16 23 29 31 32 34 32 32 36 40 39 40 38 37 33 33 33 32 30 29 26 23 18 14 15 13 12 9 7
8 6 13 12 6 10 9 10 4 2 4 2 4 3 6 10 17 21 25 28 30 36 38 40 42 44 42 41 40 38 35 35 34 30 29 26 25 23 21 20 16 13 11 9
6 10 14 12 10 11 9 10 12 5 4 4 6 4 6 10 18 19 27 30 32 34 35 38 42 43 47 45 43 41 38 38 37 33 31 30 27 26 27 24 22 18 14 12
8 6 9 9 17 12 7 12 12 8 6 4 3 1 6 12 14 19 25 34 35 38 40 42 45 53 50 46 45 43 39 40 39 38 36 34 32 29 27 28 26 25 22 18
6 4 4 9 10 15 6 3 4 2 5 10 12 8 6 7 15 19 24 33 37 39 41 44 46 48 47 49 46 47 44 42 41 39 37 38 37 32 28 26 30 29 26 23
7 3 2 2 6 8 7 6 2 3 5 12 8 6 15 4 12 17 23 35 41 41 42 43 45 44 47 50 52 49 50 48 45 42 40 37 38 35 30 26 24 29 30 27
4 2 3 6 1 8 9 11 6 7 4 9 5 9 13 14 19 22 27 36 35 38 40 43 49 51 49 51 51 51 50 50 48 47 44 40 38 39 35 29 25 25 26 26
4 5 4 3 2 1 4 14 9 3 1 1 4 8 9 5 7 7 16 24 35 42 43 45 48 51 52 51 52 53 50 49 49 46 47 44 41 40 40 33 27 26 25 24
3 4 2 5 6 8 7 4 3 1 10 8 4 6 7 9 15 9 7 22 33 40 42 41 45 49 52 55 55 54 51 48 47 46 46 45 43 40 41 37 32 29 27 25
2 3 7 5 4 2 5 4 3 4 7 10 3 8 6 7 9 12 13 28 32 38 43 47 51 53 52 51 53 55 54 51 50 49 45 44 44 43 42 40 35 32 29 26
1 4 4 9 6 5 4 3 3 3 6 4 5 11 4 9 8 8 11 28 33 35 42 48 50 49 47 49 51 54 53 52 50 47 47 46 43 44 42 42 37 33 32 30
4 1 3 8 3 4 4 2 4 3 3 7 7 6 7 12 5 12 17 21 31 34 35 38 37 43 48 52 54 53 52 49 47 47 47 47 45 44 42 40 38 36 32 31
3 2 5 5 1 4 5 7 3 2 1 6 6 4 3 9 8 9 16 14 12 16 26 36 39 45 49 53 54 53 50 47 44 46 46 48 46 43 40 39 39 37 35 32
4 3 4 11 13 11 14 18 10 5 9 4 6 5 7 10 9 6 10 12 16 19 23 29 39 46 47 47 50 52 48 46 43 44 45 45 45 45 42 39 39 39 38 35
3 2 1 8 10 14 15 15 13 12 15 13 16 20 6 5 4 12 15 17 17 18 24 35 40 44 49 49 53 52 50 47 43 40 40 39 41 41 41 37 37 39 38 36
4 2 2 6 5 5 7 10 8 10 9 5 5 5 12 4 10 15 17 18 18 19 18 27 43 47 50 52 53 52 51 47 43 39 35 37 38 38 38 38 40 39 38 37
7 5 3 6 6 5 2 8 12 14 13 13 11 14 5 8 11 20 25 22 21 18 13 18 34 46 50 49 50 45 45 45 41 38 37 37 35 36 38 39 39 40 39 38
10 6 3 3 4 5 4 7 7 6 8 12 14 16 18 16 7 19 31 25 22 17 8 12 27 32 35 41 45 44 40 38 42 41 39 37 36 36 35 36 37 36 36 34
7 5 4 3 4 6 6 13 17 13 4 11 16 16 16 13 7 5 27 32 25 20 11 11 23 26 32 35 39 39 38 37 39 37 37 37 36 35 34 32 33 34 35 34
7 4 8 9 4 3 11 24 23 6 3 13 15 19 21 6 6 12 25 30 32 29 24 19 23 28 30 31 31 31 32 35 33 33 33 33 31 30 29 28 28 29 28 28
3 4 4 4 5 5 20 10 7 8 15 12 16 21 23 19 20 21 25 29 32 34 34 31 24 17 21 29 29 28 27 27 28 28 27 27 25 25 26 26 26 26 25 26
2 3 1 3 2 8 14 16 12 9 11 14 18 22 21 18 19 23 23 27 28 29 29 30 31 32 22 19 22 26 26 25 24 23 23 25 23 24 24 24 24 24 24 26
3 6 2 3 2 11 17 6 23 17 13 16 17 18 16 15 16 18 21 21 24 26 27 26 26 28 29 26 23 20 17 15 15 19 23 23 22 25 25 25 25 25 26 27
4 10 7 3 6 21 7 24 23 25 20 14 15 15 13 15 15 16 17 18 17 20 23 23 23 24 24 20 18 18 19 18 19 18 17 15 15 17 19 21 22 23 23 24
12 3 3 3 15 13 17 26 26 21 22 18 18 17 13 16 17 15 12 13 11 15 17 18 18 19 20 18 14 11 9 10 12 13 12 11 10 11 13 15 17 19 21 23

GFSCGP_850_spd_069.txt.gz
Wind_Speed
10 13 21 21 15 10 7 5 12 7 8 13 16 15 13 19 19 23 26 29 31 35 31 30 29 30 32 34 34 33 31 29 28 28 27 25 22 17 14 12 11 7 6 4
6 19 17 15 11 15 12 6 8 9 5 9 12 17 12 19 26 29 29 29 31 29 32 32 31 31 34 37 36 35 34 31 31 29 28 27 23 19 14 13 12 10 9 6
12 2 16 16 14 15 18 18 9 6 4 9 5 11 12 16 17 22 25 26 27 31 34 34 34 34 32 39 39 39 36 34 32 33 29 27 24 21 17 15 13 11 10 8
12 14 13 18 23 18 19 15 14 11 5 9 10 11 10 15 19 19 27 29 31 32 32 33 35 34 35 40 42 38 37 35 34 33 34 30 27 25 23 18 15 13 10 8
9 10 15 16 19 18 13 8 16 18 13 11 12 7 14 14 16 21 27 32 33 33 35 36 38 39 38 37 42 42 40 35 35 36 34 30 29 24 21 20 17 18 16 14
12 2 11 13 14 18 11 5 11 12 13 17 19 12 14 13 18 18 23 31 34 35 36 35 36 34 35 35 40 43 42 40 37 37 36 34 31 27 24 22 20 22 22 20
2 12 6 6 11 17 16 13 5 8 11 17 16 15 17 8 17 18 19 30 35 37 38 38 37 36 36 38 39 46 45 44 41 40 40 38 34 32 29 26 22 22 24 25
3 8 10 4 10 10 21 18 8 12 12 15 16 12 15 23 17 12 18 24 29 35 38 40 41 40 41 44 47 49 48 46 45 42 41 39 36 34 31 31 28 22 21 21
2 4 3 3 1 7 11 21 19 9 2 9 14 17 16 7 17 21 21 18 25 32 37 41 41 42 43 45 47 48 50 47 46 46 42 40 38 36 33 31 29 28 22 19
2 5 1 3 5 11 9 7 16 13 19 13 8 17 13 20 20 14 11 20 24 28 32 35 38 42 45 47 45 44 45 46 46 46 45 43 41 38 35 33 31 31 26 21
1 2 2 4 5 7 8 10 8 9 17 15 10 9 5 17 15 20 24 27 24 25 29 35 39 43 47 45 46 46 45 43 45 44 43 42 41 39 38 36 32 31 29 25
1 1 5 5 2 8 6 5 10 11 13 15 16 17 2 8 7 6 11 18 23 25 27 33 37 36 38 44 45 51 49 47 45 43 43 43 41 39 38 37 33 30 30 28
2 1 4 6 4 4 2 2 0 2 1 13 13 13 9 18 18 14 15 15 10 18 22 23 26 36 42 46 47 51 52 51 48 47 46 44 43 42 40 37 35 31 29 29
2 3 8 8 9 8 5 3 2 4 10 16 16 14 9 10 14 13 11 9 7 6 16 22 27 35 40 44 48 50 51 49 50 51 50 47 46 43 40 37 35 33 30 29
2 5 8 15 14 15 16 18 15 12 9 10 15 16 14 12 13 16 11 10 12 10 9 15 26 35 42 42 45 48 48 49 47 49 49 48 43 40 40 40 36 32 32 30
1 3 5 15 10 11 17 18 18 17 18 12 16 16 7 14 12 12 11 13 11 14 14 14 19 29 39 44 49 50 50 49 46 47 45 43 41 40 39 39 38 36 32 32
3 2 3 8 9 14 11 16 19 13 8 15 13 10 10 9 6 12 17 14 14 16 17 16 17 27 39 39 42 47 50 48 48 45 41 40 38 38 37 37 37 37 36 34
6 4 2 6 10 7 5 12 10 12 5 3 6 7 9 3 7 11 14 17 18 19 21 23 21 22 36 39 36 41 41 48 48 46 41 38 38 36 35 35 36 36 37 36
17 8 4 4 6 16 9 7 6 3 5 6 5 8 12 11 10 3 18 19 16 16 21 24 24 25 30 37 42 42 43 46 44 44 43 38 36 35 35 36 35 33 34 34
15 14 7 6 6 7 5 11 13 6 6 8 10 10 12 8 7 4 22 21 18 13 14 15 16 16 26 38 37 44 44 42 40 40 41 38 37 35 33 30 28 28 29 31
7 9 14 11 8 8 6 17 17 6 3 17 11 12 12 6 6 14 16 18 21 16 12 5 5 13 24 36 37 41 39 37 34 36 39 38 33 28 27 28 30 31 32 32
5 9 6 6 6 13 9 6 5 6 16 14 14 13 13 10 10 12 15 19 25 28 19 16 12 16 16 28 32 32 30 31 31 28 30 30 30 30 29 29 29 29 28 29
3 3 2 4 2 6 7 10 12 13 16 17 17 15 13 12 12 14 16 19 22 26 29 29 23 18 20 21 21 22 26 28 26 26 24 25 25 25 26 26 27 28 28 28
2 1 2 3 2 12 16 12 11 15 19 18 16 15 13 12 12 14 15 16 19 24 30 31 32 32 29 21 17 16 18 18 20 22 23 25 26 26 26 25 25 25 27 27
2 7 4 4 7 15 8 13 14 14 16 13 12 12 11 10 13 14 15 14 14 17 22 25 31 33 32 27 24 19 15 14 17 19 19 21 23 21 22 24 24 26 26 25
8 3 3 3 11 10 10 16 12 13 16 16 13 12 10 9 12 15 15 13 12 14 16 19 21 24 26 27 24 21 17 15 15 15 13 11 10 21 25 25 25 25 26 26

GFSCGP_850_spd_072.txt.gz
Wind_Speed
20 16 21 21 18 17 9 11 17 16 11 17 18 16 16 16 16 19 22 25 28 31 32 30 29 29 28 27 26 26 25 23 23 21 19 17 16 13 10 8 10 7 5 4
11 20 18 15 15 16 14 12 14 11 15 14 17 17 13 18 18 21 23 25 26 28 31 32 31 31 32 30 28 28 28 27 27 21 20 17 15 13 10 8 10 8 8 5
17 6 19 15 16 16 19 18 13 15 15 13 15 17 17 17 18 19 20 22 24 29 32 34 34 33 33 33 32 30 34 32 30 22 21 18 15 13 13 10 10 9 9 7
17 21 6 19 20 19 19 18 15 12 11 14 19 14 20 18 19 19 24 27 28 29 31 33 35 36 36 36 32 31 32 35 34 32 23 22 19 17 14 12 11 10 10 7
15 15 19 15 17 21 18 11 15 18 16 17 15 13 13 22 18 21 25 29 30 32 32 34 37 38 37 35 35 33 32 37 36 35 29 25 23 18 15 14 13 14 12 10
18 17 14 22 15 15 10 12 14 15 16 18 23 16 17 16 20 21 24 29 31 32 34 34 34 35 34 35 33 34 33 40 40 39 37 33 26 23 19 17 15 13 12 11
17 16 15 11 18 18 16 16 10 11 14 17 22 21 17 8 21 19 20 28 30 32 33 34 35 36 37 38 37 36 38 41 42 39 39 37 34 29 22 18 16 14 13 13
11 15 20 16 19 16 22 19 13 18 14 16 22 17 22 24 1 17 23 24 26 30 33 34 37 37 38 39 40 39 42 46 44 41 40 39 36 30 27 23 19 16 15 13
5 17 2 3 14 17 16 22 21 22 10 11 17 21 15 18 23 18 15 15 24 27 31 35 37 39 38 39 42 44 44 46 46 45 43 40 40 38 28 27 24 22 18 14
4 8 5 8 8 17 19 12 19 16 20 19 14 18 17 23 18 20 22 22 21 23 27 31 35 38 39 39 39 40 43 47 48 46 44 42 41 40 38 33 30 25 20 20
8 5 6 5 13 20 15 16 16 18 17 14 15 12 11 16 22 21 16 21 23 24 23 29 34 38 41 38 37 39 39 40 40 45 46 44 42 40 39 36 34 31 27 25
3 6 11 16 6 7 12 14 26 14 24 17 17 14 6 6 17 15 21 23 24 25 21 23 28 31 36 40 39 40 40 39 38 42 48 47 46 43 37 38 35 32 30 26
1 6 9 15 16 9 9 9 12 18 20 23 17 18 8 9 3 6 8 5 4 7 14 22 24 29 35 38 40 40 40 39 37 38 39 43 45 43 42 40 38 35 32 29
6 11 11 13 10 10 5 9 6 15 16 16 17 13 19 17 13 5 7 6 5 5 6 16 23 28 31 36 40 43 40 39 38 37 38 40 45 46 43 41 39 36 34 31
6 13 12 14 14 12 15 15 15 16 16 21 19 20 19 7 5 9 11 8 7 6 3 6 16 22 26 31 37 40 40 40 39 41 39 43 46 45 42 41 39 37 35 33
8 13 9 15 17 14 17 17 18 19 19 17 17 19 13 11 14 14 9 11 9 8 8 9 9 15 22 29 35 38 43 43 44 45 46 44 47 46 44 43 42 40 37 35
9 9 9 13 12 9 15 21 22 20 20 18 19 16 11 8 14 8 9 10 10 10 11 11 12 14 19 26 30 38 43 41 44 47 48 49 49 48 47 45 42 41 39 36
15 12 9 11 9 15 4 10 12 18 19 22 17 12 7 10 13 3 8 11 13 13 14 15 15 16 18 21 28 30 33 39 43 45 46 47 47 48 47 45 44 42 40 40
18 10 9 11 11 14 6 9 9 12 6 1 11 12 11 14 17 20 10 15 16 17 18 18 18 19 20 22 26 31 34 36 40 47 49 47 45 45 44 45 45 42 41 40
18 17 8 11 12 13 6 5 12 9 4 10 11 10 12 15 10 3 14 16 18 18 17 19 21 20 19 23 25 33 36 40 46 49 48 46 45 43 44 43 43 41 39 40
11 11 15 14 11 11 5 6 4 6 2 14 12 13 14 8 12 13 13 15 17 18 17 18 16 15 14 17 27 37 37 43 44 33 33 37 40 41 39 39 36 35 36 33
5 7 7 10 8 16 7 0 2 4 13 14 16 15 16 15 14 12 12 15 17 20 18 18 15 11 7 10 25 31 35 30 31 30 32 34 39 37 32 36 34 33 33 34
3 3 4 5 6 5 8 11 12 10 14 18 19 18 17 16 14 13 12 14 17 19 22 21 17 13 8 6 15 21 23 27 26 29 31 30 30 32 29 32 33 31 33 28
2 2 4 4 2 8 16 12 10 13 16 17 17 18 18 16 15 14 12 11 13 18 21 26 22 18 19 15 10 12 17 21 23 26 25 24 25 26 28 25 26 27 27 27
3 8 5 5 11 16 7 8 13 17 15 16 14 14 16 14 14 13 13 10 10 13 17 19 23 22 21 19 14 9 9 15 20 22 23 23 22 25 24 25 23 24 25 25
6 4 3 3 12 11 11 13 15 17 17 13 14 15 14 13 13 12 12 11 11 11 13 14 18 19 21 21 19 16 14 15 13 16 17 20 20 18 19 19 20 24 23 26

GFSCGP_850_spd_075.txt.gz
Wind_Speed
21 15 19 23 20 21 15 17 21 18 16 17 22 16 17 18 22 23 25 26 29 33 33 31 31 30 28 27 26 26 25 24 22 18 17 16 14 13 10 9 7 7 6 5
14 21 20 19 17 19 20 14 16 20 17 16 19 17 20 17 19 23 24 25 27 30 33 33 32 32 31 30 28 28 28 27 25 20 18 16 15 13 11 9 9 9 8 7
21 11 20 20 18 17 18 18 15 16 15 18 17 20 19 8 18 22 23 25 26 31 36 36 34 34 33 32 31 30 31 30 28 21 20 18 16 13 13 11 9 10 9 8
21 21 8 22 20 17 18 17 18 16 17 16 20 16 22 27 27 19 20 27 28 30 33 36 35 36 36 35 31 30 31 32 29 29 22 22 19 18 15 13 12 12 11 10
21 20 21 16 20 18 18 16 17 18 16 16 19 18 17 24 20 22 23 27 30 31 35 38 39 38 37 35 34 32 32 33 30 33 25 24 21 18 15 14 15 13 12 11
18 21 20 25 16 15 18 17 16 16 15 17 23 20 19 17 22 22 26 30 30 32 33 34 36 36 36 35 34 33 34 36 36 34 33 28 25 21 17 18 15 14 12 12
17 20 20 19 20 21 16 19 13 14 14 18 23 23 17 18 21 19 27 31 32 33 32 34 35 37 38 39 38 37 38 39 41 38 36 34 30 28 20 18 19 15 14 13
14 17 23 20 20 22 21 21 13 21 16 17 23 25 21 20 12 13 28 34 32 33 33 34 35 37 39 40 42 41 42 43 43 44 41 39 36 25 25 22 18 17 15 13
11 18 6 23 22 23 24 22 23 23 21 18 18 26 20 27 21 16 17 28 32 34 33 34 35 37 38 40 43 44 42 44 43 45 45 42 40 34 26 25 24 18 17 14
8 12 14 10 12 15 21 16 22 17 23 23 18 19 19 23 22 23 14 18 26 34 32 32 35 36 38 39 41 44 44 44 46 45 46 45 42 39 35 30 27 22 21 20
13 8 18 10 8 18 17 19 16 17 21 18 15 13 13 23 19 17 23 22 22 24 30 31 33 35 37 37 37 41 43 43 43 43 44 43 42 40 40 36 31 31 24 21
10 9 14 20 16 20 24 19 27 15 21 20 16 13 8 14 19 23 23 30 27 26 28 28 30 32 35 38 38 39 41 42 41 41 45 45 45 42 39 42 39 33 29 27
11 10 13 17 15 18 17 19 19 24 22 21 18 16 10 5 2 11 25 23 17 12 17 20 21 29 33 37 39 39 39 39 39 39 41 43 45 44 44 38 40 36 33 32
9 14 18 15 6 12 12 24 22 19 17 22 19 19 16 12 8 11 12 11 10 8 6 10 18 25 28 34 39 39 38 37 37 36 39 43 45 45 45 43 40 39 37 35
12 18 19 19 19 16 14 15 13 16 18 19 18 19 15 10 12 15 7 4 5 4 6 5 15 22 26 28 34 39 38 38 38 41 40 44 46 46 44 45 44 42 39 39
15 12 17 19 19 16 19 17 18 19 20 22 22 19 18 19 10 2 2 4 5 6 6 5 5 7 15 23 29 34 41 40 41 41 44 42 44 44 46 46 45 43 42 39
6 8 11 17 18 20 22 23 20 21 22 21 21 18 17 11 6 14 12 5 7 9 9 9 8 8 11 15 24 31 35 39 39 40 41 40 41 43 45 45 44 44 43 40
15 11 5 11 13 16 14 7 10 14 16 23 22 21 19 13 9 14 8 7 10 13 14 13 11 11 11 14 19 26 31 38 41 42 40 42 42 43 44 43 45 45 44 41
17 13 6 7 13 15 9 9 5 4 12 20 20 23 20 15 16 18 10 9 12 14 17 17 16 17 14 17 18 20 31 35 41 42 47 45 45 44 43 47 48 47 45 43
17 16 11 11 13 15 9 4 4 3 11 15 16 15 16 18 8 9 18 17 16 16 17 19 20 22 17 19 18 23 27 36 42 48 47 44 44 43 44 47 49 48 46 45
7 11 15 14 13 14 7 7 4 5 2 12 13 16 16 11 16 24 22 17 17 18 19 17 17 15 17 18 18 27 31 38 41 36 38 41 42 43 42 40 42 46 47 36
5 5 9 12 16 19 9 7 8 8 9 13 14 11 14 17 18 19 19 16 16 18 21 18 17 16 10 13 18 24 34 32 32 33 36 39 39 39 35 39 38 36 39 40
3 4 5 6 7 2 1 7 14 15 12 13 16 16 15 17 17 16 17 16 14 16 18 17 16 16 12 9 6 12 19 27 27 31 33 35 36 37 35 37 37 34 35 32
3 7 4 12 12 12 10 14 9 7 13 17 18 18 16 15 16 14 15 14 14 14 17 17 16 15 13 9 7 7 14 17 23 28 31 32 34 36 39 32 30 30 29 29
2 8 5 7 17 22 4 14 14 17 18 20 20 18 18 15 15 13 14 14 14 13 13 14 15 16 17 9 6 7 9 16 22 24 26 29 30 32 35 32 30 29 28 28
2 3 3 4 19 16 20 16 18 17 18 20 21 20 19 16 15 12 13 13 13 9 10 11 10 13 15 14 6 6 7 14 15 22 26 27 27 27 30 32 29 29 27 30

GFSCGP_850_spd_078.txt.gz
Wind_Speed
20 11 16 19 20 20 20 20 17 17 18 19 16 16 15 12 6 15 21 30 36 37 33 30 30 30 29 29 28 28 26 26 22 19 23 14 10 12 7 10 9 8 1 2
14 19 18 18 20 21 21 21 19 17 18 17 18 19 20 12 15 44 42 33 31 38 38 32 32 32 31 32 30 32 29 26 25 19 20 18 15 13 11 11 11 9 5 5
19 15 21 20 18 19 18 19 18 17 17 16 16 15 15 9 5 18 38 33 31 36 42 37 35 34 33 35 34 33 32 28 27 23 21 19 18 14 14 16 14 10 8 6
19 22 18 20 21 18 19 16 19 18 16 13 17 15 26 20 14 17 16 13 34 33 40 38 37 36 36 36 34 33 36 32 31 26 23 25 22 18 19 14 12 10 11 8
17 21 21 19 17 21 18 16 14 16 18 18 22 14 9 26 25 13 19 40 31 35 40 42 41 39 37 35 37 35 34 35 32 32 25 26 23 21 17 15 15 16 12 12
16 20 20 22 18 14 16 17 18 17 15 16 20 18 17 17 19 14 27 39 31 37 37 41 41 39 38 37 37 37 36 38 36 35 31 29 28 23 18 18 20 16 11 16
16 19 20 19 19 22 18 15 12 14 14 16 19 19 14 15 28 26 25 34 39 37 40 38 41 41 42 42 42 40 39 38 39 37 37 33 31 28 24 22 17 14 16 15
14 11 21 17 20 20 18 19 14 18 13 16 20 19 18 23 24 40 45 38 43 41 41 41 42 42 44 42 44 43 43 41 39 42 40 38 34 33 28 19 26 20 16 19
10 14 18 13 24 20 20 21 21 23 20 17 17 17 23 21 18 9 12 12 16 16 43 42 42 44 44 45 45 47 45 44 40 41 42 44 40 35 33 26 23 23 21 15
10 17 19 15 17 25 21 18 20 15 21 22 19 19 15 19 19 19 16 9 16 39 43 42 43 43 43 45 44 44 44 46 44 40 44 44 45 41 35 33 27 25 22 19
13 12 20 19 11 15 13 19 21 14 17 16 15 15 15 23 21 18 21 29 34 38 42 23 43 43 44 43 44 44 44 44 46 44 41 45 45 44 41 34 33 30 28 28
16 8 14 18 20 14 14 18 19 12 15 14 16 16 17 13 22 19 16 33 35 16 32 50 36 46 45 44 43 45 45 44 45 45 43 43 46 46 44 43 37 37 32 31
12 7 11 15 16 19 15 17 20 20 19 20 15 18 6 10 6 21 20 16 11 36 59 51 43 39 42 43 42 43 44 45 41 42 43 42 44 46 45 44 45 38 38 36
9 12 17 16 14 18 15 19 22 20 16 18 19 19 2 6 22 12 20 21 16 16 10 10 7 33 40 43 44 41 41 41 42 40 42 43 44 45 46 43 43 47 39 39
8 15 18 22 22 23 21 21 18 18 22 20 18 18 14 20 23 21 12 13 14 13 16 16 18 14 19 37 41 41 39 40 40 42 43 43 45 45 42 42 42 42 43 43
3 13 13 20 22 19 24 23 21 19 15 19 19 18 18 7 21 25 25 20 18 18 17 21 23 22 10 12 38 42 41 40 40 42 45 41 41 42 44 43 42 41 41 40
9 8 8 12 17 20 20 23 19 19 18 16 18 16 8 10 6 16 24 15 20 20 20 21 20 20 19 13 12 33 38 38 38 40 41 42 42 44 45 44 43 43 44 42
15 12 5 7 13 10 14 20 17 24 23 20 20 18 21 7 12 12 18 16 15 16 19 20 19 21 24 19 12 7 21 35 38 38 39 41 43 44 45 45 45 45 44 44
13 12 5 5 11 13 28 7 9 16 10 14 15 18 26 21 2 22 21 21 18 17 18 18 18 20 23 24 21 19 14 14 38 42 40 40 43 44 44 45 44 44 43 42
13 13 12 12 11 5 14 6 8 14 10 16 17 16 18 14 11 7 20 20 18 16 17 20 18 16 15 16 17 22 21 22 30 39 41 38 39 43 45 46 44 42 42 44
8 4 11 14 14 13 5 2 15 10 4 17 18 16 13 10 15 20 18 16 19 14 16 19 17 14 16 14 16 16 20 21 26 33 38 39 40 42 44 42 41 41 41 41
4 6 4 6 9 12 19 5 6 9 13 16 17 18 18 14 14 18 20 19 15 16 16 18 18 16 18 16 19 17 14 22 26 24 36 40 41 41 40 40 40 40 40 40
1 1 2 3 7 30 24 21 32 16 15 17 14 18 22 25 17 14 15 16 19 15 15 16 18 20 20 18 20 19 8 13 20 29 36 38 38 40 40 39 41 40 40 40
4 5 3 9 9 25 27 18 15 17 15 20 19 22 22 25 24 22 18 14 17 17 16 15 16 18 20 18 19 19 13 12 23 30 34 35 37 38 39 39 39 42 40 41
2 7 5 10 12 25 13 26 20 20 20 22 21 21 22 22 23 21 21 19 17 16 15 14 14 14 17 19 19 17 12 6 16 17 26 29 31 35 37 38 35 39 40 39
5 3 2 4 19 16 22 29 27 25 21 20 22 23 22 22 21 21 21 18 16 14 12 12 11 13 15 15 19 19 12 5 8 12 16 22 26 29 35 34 37 35 35 36

GFSCGP_850_spd_081.txt.gz
Wind_Speed
11 3 6 8 9 11 14 13 10 9 13 8 15 15 20 28 23 21 24 7 30 27 26 35 38 37 38 34 32 27 28 23 22 31 28 21 16 16 9 9 8 5 6 9
6 9 7 10 14 12 16 14 14 12 10 9 15 16 16 16 11 25 31 27 20 34 33 29 39 41 40 37 34 30 29 27 22 29 29 21 15 16 10 9 11 6 3 6
10 11 16 14 12 14 13 10 10 10 17 9 13 6 5 6 7 14 21 26 22 28 43 33 37 43 40 38 36 34 34 29 26 22 28 22 17 15 13 15 12 9 5 7
8 14 15 12 15 13 8 9 10 11 8 4 4 5 11 14 10 11 14 16 28 29 38 41 39 42 43 40 37 34 36 32 29 25 28 27 24 22 19 16 15 8 8 8
8 10 12 13 11 13 11 10 8 6 8 6 17 2 6 9 12 18 24 33 34 52 48 46 49 43 43 42 41 39 36 37 33 29 28 30 28 24 20 18 13 14 8 8
9 19 6 7 13 11 5 8 9 6 2 4 11 3 2 12 20 18 30 43 48 44 54 51 48 45 43 44 43 42 39 39 38 34 31 32 31 28 21 20 20 18 12 12
8 10 10 13 8 10 4 3 4 4 4 6 9 8 9 22 17 19 25 40 43 39 53 51 47 45 44 45 47 45 43 40 40 38 36 34 34 31 24 21 19 23 16 12
3 8 4 6 8 6 7 6 5 6 4 8 9 6 10 12 25 30 37 48 39 45 54 54 53 51 48 47 48 47 46 43 41 41 40 36 34 33 28 23 21 20 14 13
7 7 17 15 18 6 8 7 11 6 9 8 7 8 11 15 7 26 27 26 31 37 41 49 52 51 52 50 50 50 47 44 41 40 41 41 36 37 34 28 25 20 17 15
8 5 6 15 16 10 4 6 3 4 4 7 7 10 5 10 19 17 19 28 27 24 33 27 22 42 55 54 52 50 49 46 42 40 42 46 41 36 37 33 30 30 23 22
12 7 10 9 5 11 15 7 5 2 4 9 4 8 6 20 11 17 21 32 40 21 31 44 26 23 24 48 54 54 53 49 46 41 39 44 46 41 39 39 32 31 28 26
8 3 5 14 18 16 14 15 2 2 7 3 2 8 16 21 21 23 28 35 39 48 50 46 41 38 25 25 47 56 56 53 49 44 41 39 44 46 43 42 39 35 31 29
8 4 5 10 6 6 7 18 22 6 5 6 3 6 10 19 24 42 26 12 28 39 36 28 17 35 48 33 37 50 55 55 52 48 44 41 39 44 48 45 42 40 35 34
3 3 3 5 13 12 15 22 21 17 6 7 10 12 11 15 21 31 43 46 13 26 19 14 24 23 64 48 32 52 53 54 53 50 47 45 42 41 43 46 45 43 39 38
3 3 7 11 14 16 20 18 20 19 16 8 10 12 6 9 11 26 32 30 35 29 22 22 4 37 28 35 41 51 51 51 50 48 46 44 41 40 39 40 44 44 45 42
2 1 5 7 13 15 19 20 18 20 18 15 12 4 4 19 28 31 34 34 29 31 30 29 25 16 13 23 26 30 38 49 47 47 44 40 37 34 37 39 40 40 43 47
1 4 1 3 9 14 12 11 16 19 18 15 10 10 8 9 15 22 29 35 29 31 31 31 31 26 23 12 16 25 17 18 45 49 45 41 38 36 33 35 38 40 41 42
6 4 3 0 4 4 6 16 13 13 19 20 17 17 13 18 17 17 15 24 33 31 32 31 26 30 26 20 12 16 20 15 20 45 47 45 41 38 36 34 36 39 40 40
10 3 2 4 4 11 11 6 11 9 12 16 14 14 21 22 23 23 24 16 23 30 23 26 24 23 21 17 12 14 27 31 18 37 45 45 43 41 39 39 37 37 39 40
9 5 3 1 3 4 7 5 4 12 3 18 18 17 19 23 6 7 23 21 18 27 26 26 24 20 21 21 13 2 9 19 15 8 36 42 40 40 42 40 39 38 38 39
5 2 0 3 5 2 13 23 21 3 5 30 13 12 18 8 10 17 20 21 16 22 26 28 24 22 19 23 19 13 12 13 11 11 12 31 39 39 41 42 40 40 39 38
2 3 2 4 3 3 24 6 6 9 22 23 20 19 16 19 21 20 19 18 17 20 22 24 25 23 25 26 24 23 20 19 17 16 16 21 38 38 40 42 43 41 40 39
2 1 1 2 3 11 15 12 14 16 17 19 20 18 15 19 22 25 24 21 21 19 18 21 23 19 21 24 24 24 21 21 19 20 22 22 30 40 40 40 43 43 41 40
4 3 2 4 3 13 18 18 20 19 21 27 30 29 18 16 19 20 25 25 22 21 20 20 21 17 20 20 20 21 20 20 19 18 18 22 24 36 39 38 39 42 43 41
2 2 1 5 11 17 1 19 22 26 21 20 23 27 27 23 25 20 21 26 24 23 20 20 18 16 18 19 19 20 19 17 17 14 4 12 17 27 37 38 39 39 42 42
9 6 4 4 2 4 16 15 18 27 26 24 26 31 33 29 31 27 22 20 23 24 22 18 15 16 18 18 18 19 19 17 17 15 9 9 16 21 28 33 37 39 39 40

GFSCGP_850_spd_084.txt.gz
Wind_Speed
5 4 3 7 5 6 4 4 8 14 10 6 16 14 23 26 17 20 26 35 38 29 28 36 42 40 37 34 35 30 25 25 32 30 25 21 18 16 13 13 11 11 13 14
3 2 8 7 6 7 6 7 12 11 5 2 9 13 15 19 19 25 30 29 34 40 33 42 48 44 42 38 36 32 27 23 27 27 30 23 22 17 12 13 12 10 12 11
6 9 9 6 6 6 6 6 11 10 6 8 12 8 12 12 16 21 29 39 37 40 38 40 47 48 45 43 40 35 30 24 23 26 32 25 21 19 19 17 15 10 12 11
6 16 10 9 8 6 7 7 10 6 3 1 4 3 8 14 13 15 30 35 36 43 39 41 49 51 50 45 41 37 33 28 26 25 35 30 28 27 22 18 14 11 12 11
7 4 6 6 10 7 11 10 7 2 3 5 3 5 4 14 12 14 32 37 36 49 49 46 45 52 51 47 44 40 36 31 29 28 38 31 28 25 21 19 17 14 11 13
6 6 5 5 5 5 7 4 7 5 3 4 7 4 2 13 26 20 28 30 38 45 52 47 39 47 50 49 47 42 38 35 32 32 31 36 31 29 25 20 20 17 14 13
6 5 6 9 5 6 3 6 3 4 4 5 2 4 8 19 18 25 26 32 40 39 43 51 40 44 51 53 50 45 41 39 35 36 33 34 35 31 26 22 21 20 18 15
4 6 8 6 1 3 3 7 5 5 3 4 6 4 5 11 24 35 40 45 42 30 40 50 52 43 53 54 52 48 45 41 39 37 37 34 36 35 30 26 27 24 22 16
4 4 4 6 7 2 8 2 7 6 1 4 3 8 9 17 15 14 33 34 40 41 34 45 50 44 49 53 52 52 48 44 42 39 37 38 37 38 36 31 25 26 21 14
6 3 4 8 8 9 7 6 3 3 5 3 4 5 3 16 20 21 13 32 41 37 36 38 41 44 43 49 52 51 50 47 44 42 38 39 39 39 39 34 26 26 22 19
4 4 8 4 6 4 7 8 6 1 4 6 2 3 6 12 16 20 21 34 36 43 40 48 43 46 52 41 46 52 53 50 47 44 40 39 42 41 41 40 32 29 26 24
4 4 2 5 5 3 6 8 6 4 7 3 3 2 4 12 24 34 29 7 23 36 41 45 46 37 43 46 44 50 51 52 52 43 41 39 40 43 41 43 40 33 31 30
6 4 4 9 7 8 5 12 7 4 2 2 2 3 7 19 27 37 41 37 23 13 8 4 16 28 39 51 45 41 45 49 51 50 44 40 39 42 45 43 43 40 36 32
7 4 5 4 6 5 9 14 10 3 2 7 3 12 9 13 17 27 34 35 36 33 21 7 7 17 20 25 36 30 33 37 43 50 50 44 41 40 42 45 43 45 42 38
5 3 2 0 6 5 10 12 10 6 6 1 9 14 6 7 12 21 27 28 30 31 34 26 20 14 10 13 24 28 32 18 35 45 52 49 44 41 38 40 46 45 45 44
4 1 2 4 4 8 8 8 6 6 8 8 7 2 7 5 18 26 26 26 27 30 32 27 22 25 23 13 14 28 28 31 27 43 52 52 47 45 43 41 40 44 48 47
3 4 3 3 4 8 5 7 10 5 10 5 6 7 17 6 15 20 21 26 26 25 27 25 22 24 25 22 5 3 15 23 28 35 42 47 47 46 44 42 41 43 44 49
3 4 3 3 4 2 6 6 7 14 13 11 9 13 16 12 11 27 28 22 22 16 18 25 28 27 26 24 17 9 10 16 17 18 28 34 43 47 43 40 38 38 41 43
5 4 2 4 3 5 3 7 6 6 4 13 11 13 16 25 11 13 27 22 21 18 19 19 19 22 23 24 19 9 7 20 16 17 16 21 37 45 44 40 38 33 33 36
7 5 4 3 4 5 1 10 16 5 3 12 20 16 19 17 4 3 25 22 16 16 14 18 19 20 22 25 23 19 10 4 18 37 31 33 28 41 43 44 40 37 34 31
4 3 2 2 3 1 4 15 14 2 3 17 14 16 18 6 9 21 20 22 17 16 17 15 18 23 21 23 25 19 12 8 12 18 28 19 24 38 52 49 44 41 38 37
2 2 2 2 2 5 8 2 1 6 14 10 10 14 21 23 23 23 23 21 21 18 18 18 18 20 22 24 24 23 18 12 10 15 13 26 42 43 51 51 48 45 43 40
2 5 4 6 4 6 2 3 2 9 18 20 21 25 25 26 25 26 27 25 22 20 18 16 18 19 19 22 23 24 22 18 14 13 12 17 37 34 38 44 49 45 44 43
1 4 2 2 3 8 6 2 7 11 17 21 21 21 19 22 20 28 31 30 25 20 17 16 15 13 21 22 21 24 22 22 19 17 16 14 24 29 32 37 41 43 42 44
5 8 5 5 10 7 10 3 5 9 17 19 19 23 25 29 31 29 30 36 30 22 19 15 16 18 17 20 24 24 23 23 22 18 16 17 11 22 26 32 35 41 39 39
10 6 5 5 7 8 14 11 10 14 15 17 19 25 26 24 28 28 30 32 33 29 19 18 18 19 17 17 24 23 23 25 24 21 17 15 11 14 24 30 39 37 37 37

GFSCGP_850_spd_087.txt.gz
Wind_Speed
6 4 4 6 6 4 3 3 2 4 7 6 15 9 11 17 10 24 27 32 33 38 36 39 42 40 38 33 32 28 27 25 25 22 21 18 15 12 11 9 9 9 11 7
5 3 7 1 4 4 2 1 5 6 4 6 3 4 6 12 14 25 30 32 35 34 38 38 45 44 41 38 34 32 28 27 29 27 23 17 15 13 11 11 9 8 12 9
5 4 3 4 3 2 3 3 4 6 2 5 8 3 2 3 7 11 19 31 32 34 37 40 46 48 46 42 37 33 31 27 24 31 27 23 19 17 17 15 13 10 13 11
3 3 5 4 5 6 5 7 7 4 3 2 3 2 5 8 10 12 17 28 29 33 31 41 45 53 50 45 37 34 33 30 22 23 32 31 25 23 20 16 15 11 11 11
6 2 5 5 9 6 9 5 7 5 3 3 3 4 3 8 11 18 27 23 30 30 33 41 46 52 52 47 42 37 35 32 26 23 28 33 29 24 20 18 18 13 12 12
5 1 3 6 3 8 7 4 6 4 4 3 4 5 4 6 20 17 23 26 28 35 33 33 43 47 52 50 46 40 38 36 30 25 27 35 33 27 25 21 20 18 14 14
4 4 5 7 3 4 5 6 2 2 2 5 5 3 2 9 11 16 21 32 37 37 39 37 39 44 52 54 51 46 41 39 34 30 29 32 36 29 28 24 21 21 17 15
3 2 7 7 2 1 3 6 5 5 4 4 6 5 1 6 15 20 19 28 26 35 40 37 44 48 50 53 54 50 46 42 37 33 28 30 34 34 29 27 22 21 19 15
2 2 5 4 6 2 3 5 0 6 4 4 2 3 5 22 15 20 22 19 30 38 43 43 45 46 50 51 54 54 49 45 40 35 29 29 31 34 34 30 25 23 21 20
1 2 3 6 7 10 7 2 4 4 4 3 4 4 3 17 20 20 22 23 18 37 40 43 42 50 48 50 51 51 51 47 42 38 33 29 30 32 34 34 30 27 23 24
2 3 6 3 7 6 7 6 5 3 3 5 3 2 5 10 11 15 25 38 16 32 29 35 39 40 45 46 48 48 51 51 47 42 35 33 31 31 33 36 35 31 24 24
5 3 3 3 7 10 16 5 3 4 5 2 3 1 7 8 12 21 29 36 38 20 6 12 23 30 30 37 42 46 48 51 50 44 40 38 35 32 33 36 38 36 29 27
3 4 3 4 6 8 7 7 5 3 2 2 1 2 8 13 13 22 30 32 37 36 25 15 13 6 11 23 31 38 43 45 47 49 45 41 40 38 35 36 38 40 37 30
8 4 5 5 3 2 3 5 6 4 3 3 2 5 7 12 11 18 21 34 33 35 35 29 21 17 5 4 13 25 33 37 40 45 46 46 43 39 38 36 38 40 41 39
5 3 2 3 2 2 1 2 3 1 3 3 4 4 9 10 11 18 15 18 30 30 34 31 28 25 18 3 8 18 18 29 36 36 43 47 46 41 38 38 37 40 41 43
4 2 2 2 3 3 2 4 4 2 3 3 4 3 12 15 18 20 24 20 22 24 28 30 27 25 25 19 4 10 17 24 17 29 40 41 44 45 41 39 39 38 41 43
3 4 3 2 3 2 3 5 6 6 9 4 5 4 9 11 15 21 24 25 21 21 22 27 28 28 26 23 17 7 10 15 27 29 31 31 39 41 36 38 40 42 40 40
5 4 2 2 3 2 3 5 6 10 6 6 6 8 9 7 0 20 24 26 25 22 18 19 21 23 25 27 21 13 9 6 9 23 26 31 32 30 32 33 36 41 43 42
4 4 3 3 3 4 2 4 3 3 1 5 3 8 12 18 8 8 19 22 21 19 20 18 15 21 24 27 26 21 10 12 12 12 20 24 23 22 26 31 35 34 40 43
5 6 4 2 4 4 3 4 7 6 4 10 10 9 12 17 4 1 21 23 20 16 16 21 20 15 20 22 22 22 20 10 6 16 19 16 17 19 17 27 33 34 34 39
3 3 3 2 2 3 3 9 8 5 2 7 9 10 12 3 9 24 25 25 21 19 18 18 19 19 13 19 20 21 22 20 11 6 10 21 20 22 24 27 28 37 34 33
3 3 2 2 2 6 6 1 2 2 1 8 12 14 22 25 29 32 32 30 28 24 21 17 20 22 15 15 23 26 26 24 22 16 10 12 26 30 30 24 26 32 35 34
2 5 4 7 5 2 7 5 6 7 10 10 14 16 19 25 27 29 33 34 31 30 27 21 19 20 21 14 17 23 21 23 19 18 13 16 18 26 30 32 28 24 31 40
2 4 2 2 1 8 8 6 7 8 10 10 11 14 17 23 28 33 36 36 39 36 34 26 21 21 22 19 18 19 23 23 22 19 17 15 21 22 23 30 26 23 31 39
5 7 4 4 8 8 15 16 9 5 6 11 15 19 20 25 28 28 33 38 36 36 37 33 27 24 24 21 21 20 23 26 24 22 20 20 20 18 25 25 33 35 36 44
11 7 5 6 10 7 8 9 15 13 15 19 22 27 27 28 31 33 35 34 36 37 34 34 31 26 23 21 21 21 21 24 24 22 21 21 20 17 13 28 35 39 37 39

GFSCGP_850_spd_090.txt.gz
Wind_Speed
5 4 5 7 6 4 4 4 1 2 4 4 9 7 8 15 14 18 23 30 31 33 37 31 31 32 31 31 30 29 27 22 20 18 16 15 13 9 8 6 4 4 8 7
5 4 7 5 7 5 2 3 2 3 1 7 3 3 4 11 5 18 22 25 29 28 31 34 33 34 35 34 33 31 28 24 20 18 17 15 11 10 8 7 6 4 7 5
6 5 6 5 4 4 2 4 3 4 3 2 2 3 3 2 5 11 20 22 22 29 34 37 36 38 39 37 36 34 31 26 22 19 20 18 13 12 10 10 8 6 6 6
4 1 5 3 2 5 2 7 5 2 2 2 2 3 1 3 5 6 11 18 25 27 31 40 37 39 43 40 37 35 34 29 24 24 26 22 17 15 13 10 9 6 5 8
6 5 4 3 6 6 8 6 6 4 3 2 2 4 5 1 7 11 15 19 25 30 32 34 44 40 41 43 41 37 36 34 25 25 28 26 23 18 14 13 12 10 8 7
0 1 3 4 3 8 4 5 7 5 3 2 2 4 5 4 7 7 5 19 26 34 30 36 37 43 40 42 42 40 37 37 28 26 26 28 26 23 20 18 15 13 11 9
6 3 6 4 1 3 5 6 3 3 2 5 5 4 1 7 6 7 10 13 30 36 33 30 36 42 44 43 46 44 40 38 34 29 27 25 26 26 24 20 17 14 14 12
3 4 7 10 3 0 2 6 5 6 5 4 2 5 5 5 11 17 15 17 14 34 40 41 37 41 43 45 48 48 45 41 37 33 29 25 24 27 27 22 21 18 15 13
3 2 5 4 5 3 1 5 2 7 3 4 1 4 2 15 16 26 27 24 27 21 38 43 44 40 42 44 45 48 47 44 41 35 31 29 27 26 29 26 24 22 17 15
1 3 2 5 6 9 7 1 3 3 4 3 3 3 3 17 20 20 25 30 35 9 28 31 34 44 41 42 44 44 48 47 42 39 34 30 28 27 27 30 27 25 22 20
2 3 4 5 8 5 6 5 5 4 3 5 4 2 6 9 13 15 21 27 32 29 7 18 23 28 34 37 41 46 47 46 46 43 39 35 31 28 27 28 30 28 24 22
3 4 5 1 4 3 5 2 2 4 3 2 3 1 6 10 15 17 21 25 33 33 26 13 8 12 22 33 36 41 45 46 44 46 43 39 34 31 28 29 29 30 30 26
1 4 4 4 6 5 5 5 3 3 2 1 4 3 6 13 15 20 19 25 28 35 33 30 20 14 9 18 30 36 38 42 42 42 45 44 40 37 32 28 29 30 31 31
7 4 3 6 3 2 2 3 3 4 3 4 2 5 7 11 12 20 21 23 25 33 34 30 29 24 16 6 14 23 29 33 33 35 38 43 43 41 38 34 30 29 32 33
5 3 3 3 1 2 2 4 4 0 4 2 4 5 6 8 11 16 21 22 26 26 31 32 29 27 23 16 4 11 17 23 28 32 33 36 39 41 41 39 37 33 31 34
4 3 2 2 3 4 2 5 3 3 4 4 8 5 5 7 14 22 23 24 24 25 24 24 26 28 29 22 17 7 8 14 19 29 34 33 33 34 35 37 38 37 35 34
3 5 3 2 3 2 3 3 1 3 4 1 3 2 5 7 12 15 19 22 24 24 23 23 22 22 25 28 23 14 7 9 11 21 22 29 34 35 35 33 35 37 36 35
5 4 2 3 2 3 4 2 2 6 6 4 4 5 7 8 5 6 14 17 19 21 22 21 22 20 20 21 25 23 14 7 6 5 18 24 26 27 29 33 35 33 33 35
3 5 3 4 2 3 1 2 2 2 3 4 3 7 8 15 12 10 7 15 16 18 19 20 21 21 18 17 19 24 22 14 8 7 9 17 25 28 30 31 32 33 33 33
5 6 4 2 3 6 4 4 5 5 2 4 2 1 7 15 4 2 12 24 23 19 19 22 21 21 20 17 13 17 23 22 17 12 9 11 12 17 20 20 23 26 30 30
3 3 5 3 2 5 4 5 7 5 3 6 0 5 6 3 8 24 29 30 27 27 25 21 22 22 20 20 18 14 15 20 23 21 17 10 15 16 15 17 16 16 14 21
5 5 3 3 2 7 9 4 6 3 2 1 1 5 11 14 20 23 26 28 29 29 29 25 24 24 23 19 19 21 16 15 20 24 25 25 13 10 22 23 18 17 19 19
2 5 4 7 5 2 11 5 4 2 3 2 6 7 10 16 19 24 29 30 31 31 32 31 28 28 26 25 19 22 22 18 15 17 21 25 27 19 12 20 26 25 21 22
3 6 3 2 3 9 13 9 8 8 6 5 4 6 10 17 23 27 32 34 35 35 33 33 30 31 32 28 26 22 22 24 19 19 19 19 21 25 17 16 18 25 28 29
4 10 5 4 7 5 11 16 13 12 11 9 11 14 17 19 25 28 31 31 36 37 34 32 34 32 34 31 31 26 22 23 21 23 25 23 22 23 28 23 18 24 27 31
10 7 5 5 11 6 4 4 7 15 16 14 15 18 19 22 27 30 35 37 39 41 37 34 36 33 33 32 31 31 26 25 23 21 21 26 27 24 23 25 21 25 32 34

GFSCGP_850_spd_093.txt.gz
Wind_Speed
9 7 11 11 6 3 7 6 5 2 4 6 6 6 7 13 16 19 24 26 25 25 26 24 24 22 19 22 23 25 25 23 21 17 15 13 11 9 7 6 4 5 8 7
7 10 10 7 5 7 4 5 4 2 3 6 3 3 4 11 13 18 23 23 25 24 23 24 25 24 23 24 25 27 26 24 19 17 13 12 11 8 6 8 5 7 9 8
12 9 10 7 8 8 5 5 4 3 1 1 1 0 4 1 5 11 16 20 22 24 26 24 25 26 27 27 28 28 27 25 20 17 15 14 11 10 9 8 6 7 7 8
9 7 12 9 9 7 9 7 4 3 2 3 3 3 7 6 4 3 9 17 20 24 24 25 26 27 28 31 30 30 28 27 24 20 18 17 14 12 11 8 6 3 5 7
5 11 11 9 7 7 3 5 6 3 4 2 4 2 6 5 7 7 8 11 18 20 24 27 28 29 31 30 31 31 31 29 28 25 22 17 18 13 10 9 8 6 4 4
4 3 2 2 3 10 10 6 4 3 2 6 3 2 5 6 9 11 10 6 14 20 26 25 26 27 32 30 33 34 33 32 30 28 25 23 19 17 15 13 12 10 6 4
4 4 2 5 6 5 7 8 5 6 5 5 3 5 5 7 11 11 14 13 11 13 24 30 29 29 33 35 31 34 36 34 31 30 29 26 22 21 19 16 14 13 11 7
5 6 5 10 3 2 11 10 5 11 9 7 0 8 5 7 11 14 15 17 15 14 20 31 36 34 36 35 37 34 34 35 33 31 30 27 23 20 23 20 17 15 12 9
4 4 1 7 7 3 5 6 2 5 1 9 5 6 4 11 15 19 21 21 22 21 13 25 28 30 32 38 37 38 35 36 37 32 30 29 25 22 22 21 20 18 14 11
2 5 6 4 1 10 3 3 5 2 9 10 4 4 5 12 16 17 23 27 26 25 13 9 17 23 26 29 33 35 35 37 37 36 32 29 27 25 21 22 25 20 18 15
2 1 3 1 7 8 2 2 3 1 2 6 7 5 5 9 10 14 21 24 25 28 25 18 5 11 18 30 33 32 34 34 36 41 39 34 29 27 24 22 26 26 20 20
4 3 5 4 2 4 7 4 1 5 5 2 0 5 4 9 13 15 19 23 25 30 30 23 16 7 4 7 21 30 29 30 33 36 41 40 35 30 29 25 24 25 28 23
1 3 4 2 3 1 3 4 3 1 1 4 6 6 8 12 15 18 18 20 24 28 32 30 24 16 7 5 11 15 19 23 25 31 34 38 40 37 33 30 25 24 25 27
5 3 2 2 4 2 1 2 4 2 3 7 2 13 7 11 11 15 18 19 21 23 28 32 31 27 22 9 3 14 15 19 19 22 27 32 34 37 37 34 31 28 26 27
3 4 4 6 5 1 1 2 1 1 3 3 14 10 8 9 11 12 13 17 18 22 24 26 28 29 29 21 14 2 11 17 19 21 21 25 27 28 31 36 37 34 32 29
2 5 4 3 3 1 1 1 5 3 4 7 14 10 10 10 9 12 14 15 17 18 19 21 23 25 26 27 25 15 10 6 15 20 25 26 26 26 26 27 30 34 35 35
2 6 4 4 3 2 4 4 4 6 4 3 10 7 10 9 9 10 10 12 13 15 17 19 19 21 22 21 22 24 17 8 7 13 18 20 25 28 28 27 27 29 31 32
6 5 1 4 5 5 4 2 3 11 7 7 11 8 7 4 1 3 8 11 11 13 15 17 17 18 18 18 16 17 21 22 10 8 13 17 22 23 25 28 29 31 31 32
2 4 3 4 7 2 4 6 7 6 5 4 7 6 2 3 2 9 3 10 13 14 14 15 15 16 17 17 17 17 13 17 21 16 9 12 21 27 26 25 27 28 29 31
3 2 3 3 4 6 4 8 7 5 6 13 7 3 2 6 4 5 7 14 17 17 18 17 18 18 16 16 18 17 16 12 10 15 19 19 11 16 24 27 26 21 25 29
2 1 7 5 5 2 6 12 9 7 4 13 7 4 2 2 3 11 14 15 16 19 20 22 23 21 20 18 17 19 18 18 13 9 11 16 20 17 17 22 23 20 18 23
6 6 3 2 5 7 17 9 6 8 12 11 7 6 4 3 5 9 12 14 17 20 23 22 25 26 26 25 21 20 20 19 19 17 9 11 13 18 18 15 22 21 21 24
5 3 3 6 3 2 14 2 9 9 10 10 9 7 3 4 7 10 14 16 18 18 19 22 24 28 28 27 26 26 23 21 23 20 21 14 9 12 22 16 12 20 26 25
5 5 2 3 6 6 11 7 5 5 5 8 7 6 5 7 10 14 16 19 20 21 22 23 24 26 30 28 29 30 30 24 23 25 22 23 18 13 17 26 16 16 20 29
1 10 6 4 5 2 10 14 11 10 8 10 9 8 9 11 14 16 19 20 22 24 26 26 25 26 30 31 31 31 30 28 26 25 26 23 24 24 17 23 23 17 19 22
11 6 6 5 9 7 3 8 10 13 12 12 10 11 12 12 15 18 21 21 23 26 28 27 27 29 29 30 31 30 29 27 26 24 24 24 25 26 25 22 26 22 23 22

GFSCGP_850_spd_096.txt.gz
Wind_Speed
17 10 15 17 16 8 11 9 10 6 14 9 10 10 12 14 14 16 17 21 24 25 23 22 19 16 15 16 16 16 17 17 17 13 12 9 7 7 5 4 4 8 7 7
11 15 14 12 7 9 12 12 12 9 7 6 5 7 4 15 12 14 18 18 20 24 25 24 20 17 16 17 16 18 18 20 18 12 10 9 7 7 4 6 4 6 6 6
14 13 11 13 13 13 13 13 10 10 7 5 6 11 12 6 8 8 14 18 20 22 26 27 23 20 17 16 17 19 21 20 19 13 11 10 9 7 5 7 6 6 7 5
10 10 17 15 15 15 14 5 4 8 8 9 13 3 9 10 11 8 8 10 16 17 22 25 26 25 21 19 18 19 21 21 19 15 11 10 7 7 6 6 6 6 9 7
8 14 17 15 13 12 5 9 10 8 10 3 15 11 8 10 9 5 11 10 12 17 19 23 26 26 24 21 20 20 21 23 20 18 13 12 10 6 6 7 8 5 7 8
8 4 11 12 10 12 5 10 9 8 10 11 11 12 8 5 6 5 4 2 10 16 18 21 23 25 24 22 21 20 21 25 24 22 19 17 12 11 9 8 8 5 5 3
10 10 4 2 12 11 13 15 10 11 9 9 11 8 9 7 7 7 10 6 3 8 19 22 24 27 26 25 22 21 21 24 25 25 23 22 19 13 11 10 8 8 6 5
12 12 5 1 6 10 18 18 9 12 13 12 6 7 7 8 10 14 13 12 9 6 15 22 27 27 28 27 25 23 23 25 25 25 25 23 23 17 13 13 11 11 9 7
9 6 5 4 3 6 19 13 7 6 6 10 12 11 11 7 11 14 18 18 18 15 7 23 24 26 25 25 26 24 23 23 24 26 25 24 23 23 15 15 13 12 12 10
2 9 1 3 3 2 6 3 10 8 13 14 11 14 9 6 8 11 17 19 20 20 21 8 14 18 22 22 22 22 25 26 25 25 26 25 23 22 21 17 16 15 14 13
2 5 8 6 3 2 7 9 10 8 5 14 10 8 6 8 8 11 15 19 20 20 20 17 12 7 14 17 18 19 20 19 21 23 23 27 27 24 22 20 18 17 17 15
4 3 6 8 6 1 2 4 9 10 13 9 7 7 8 9 9 11 14 17 20 22 22 22 18 10 11 9 8 13 14 16 17 17 19 22 28 30 23 21 20 17 19 20
3 2 7 8 8 5 3 1 3 7 9 16 12 9 9 11 11 12 14 16 19 21 24 23 23 21 13 3 8 2 7 13 14 14 15 18 22 29 31 27 23 21 19 20
3 1 5 3 7 4 6 3 2 8 11 12 10 17 10 11 9 10 13 15 17 20 22 23 24 25 22 15 6 4 9 6 7 11 13 16 19 21 25 30 29 25 23 21
3 2 1 4 4 2 0 3 3 7 5 9 16 18 12 11 11 10 10 12 14 16 18 19 21 21 20 19 16 10 2 5 11 7 12 12 14 17 19 21 26 29 26 26
2 3 4 3 1 3 7 5 7 6 4 4 19 10 14 13 14 12 11 10 12 14 15 16 17 18 20 21 20 20 13 6 5 10 9 11 14 14 14 16 18 21 25 28
3 5 7 8 3 4 8 13 11 7 5 7 11 13 15 13 12 10 9 10 11 11 12 14 15 16 17 18 18 18 18 13 6 2 6 11 14 15 17 16 17 19 21 23
4 7 4 3 7 9 6 3 4 8 6 3 14 17 17 13 11 9 8 7 8 9 10 12 13 14 14 14 16 16 15 16 16 12 4 4 8 12 15 17 21 22 20 21
4 6 4 5 11 5 6 8 11 14 10 7 12 14 13 10 10 10 5 4 5 7 9 10 10 13 13 13 15 15 14 14 14 12 11 9 6 7 12 17 23 21 22 24
5 6 7 5 7 7 9 12 6 3 9 15 14 14 13 9 8 9 3 3 5 7 8 11 13 13 12 13 14 14 13 13 14 15 12 10 11 9 16 20 22 27 28 29
8 7 10 9 7 1 6 11 10 8 5 18 13 10 8 5 8 4 3 5 6 8 10 12 12 13 14 15 16 16 14 12 14 15 15 15 9 5 8 8 14 21 23 21
7 5 5 8 6 12 13 10 8 7 14 13 10 7 5 4 2 2 3 5 8 10 11 12 13 13 14 17 18 18 17 16 16 16 16 17 17 15 9 5 8 14 20 25
5 5 3 5 1 5 12 2 6 7 9 7 6 5 4 2 1 3 6 8 10 12 13 14 16 17 17 15 16 21 22 22 22 21 20 18 19 19 18 17 10 10 14 22
7 6 5 2 8 7 13 9 11 7 6 7 7 8 6 4 5 6 8 10 12 13 15 16 18 19 20 18 18 19 23 25 26 24 23 20 19 20 22 20 20 16 11 17
3 9 8 8 5 5 11 15 13 9 7 7 8 8 6 6 7 8 10 13 14 15 16 16 18 20 22 21 22 21 21 22 24 25 23 21 21 21 21 21 24 22 18 13
9 7 6 5 4 12 4 17 15 13 11 10 11 10 8 7 8 10 12 14 16 18 18 19 19 20 22 23 25 25 23 22 23 25 24 22 21 21 21 21 21 24 25 22

GFSCGP_850_spd_099.txt.gz
Wind_Speed
19 13 16 20 22 21 15 15 10 14 15 13 5 13 12 29 25 23 17 19 23 23 22 20 19 17 17 16 16 16 16 16 15 12 10 8 5 6 3 3 4 6 6 5
12 17 16 15 15 13 19 17 13 12 15 15 18 16 9 12 13 19 27 23 19 17 23 22 21 18 18 18 17 17 17 16 14 12 12 8 5 3 5 5 4 6 5 6
14 14 14 13 15 12 15 13 15 13 10 14 10 14 19 18 17 20 13 22 20 18 21 25 23 20 17 18 18 19 18 17 16 12 8 8 9 8 6 6 4 7 6 5
15 13 13 13 14 18 16 16 15 13 14 12 9 3 7 16 9 7 12 14 16 22 23 27 25 22 19 18 18 18 19 18 16 14 9 11 11 9 9 10 8 6 7 5
16 12 14 16 16 16 11 9 6 12 15 18 16 6 9 15 14 11 14 16 19 21 21 26 26 24 21 18 19 18 19 18 16 14 11 9 7 4 8 8 6 9 9 7
14 13 14 16 14 15 4 9 14 13 13 12 22 8 5 7 3 18 17 16 19 20 22 23 21 24 23 20 20 20 20 19 18 15 14 10 9 6 10 7 8 8 7 6
9 12 14 9 15 11 9 13 10 11 12 12 25 14 8 9 11 13 12 12 5 14 22 23 24 23 26 24 22 22 21 21 20 18 15 14 12 11 2 6 6 9 12 9
13 16 10 12 18 10 16 19 12 12 14 14 19 11 10 18 20 15 13 12 9 3 13 18 23 24 27 25 24 23 23 22 20 19 18 16 15 11 10 10 10 8 8 8
14 10 10 4 11 9 18 20 23 12 15 14 11 15 13 15 17 15 11 10 9 9 9 19 22 24 29 29 26 25 23 23 21 20 19 18 17 16 13 12 10 7 11 8
3 11 14 12 11 14 13 13 18 9 16 15 16 18 15 14 10 8 12 13 13 12 15 17 13 19 18 24 28 25 23 22 19 19 19 18 18 17 19 14 14 14 11 13
9 5 11 6 13 16 12 10 11 15 16 13 11 10 15 14 11 9 11 12 14 15 15 13 9 9 6 20 7 29 23 20 19 18 19 19 18 18 17 17 15 14 16 12
2 7 10 15 6 5 12 10 14 11 16 14 11 4 9 12 15 14 12 13 14 15 16 16 14 8 6 7 4 10 19 18 14 15 19 18 18 20 18 18 17 15 15 17
2 9 7 6 7 5 11 11 12 15 16 12 16 7 9 15 14 16 15 14 15 17 18 19 18 12 8 10 8 8 12 7 8 15 15 17 18 18 20 19 17 17 15 17
6 14 10 6 8 7 16 8 12 15 12 12 11 19 16 14 14 15 15 13 15 17 19 20 20 19 19 9 3 5 9 11 10 7 9 16 17 18 17 20 18 17 18 17
5 11 5 4 3 8 2 6 7 14 16 16 16 16 18 16 15 17 15 14 13 15 17 18 18 19 19 20 17 10 3 12 11 6 3 7 11 14 15 17 18 20 20 19
4 8 5 10 6 7 8 10 8 9 9 6 17 16 11 14 17 16 14 13 13 13 14 15 15 15 16 16 16 21 17 7 9 12 10 10 11 9 12 12 17 16 19 21
6 9 6 13 11 8 14 15 12 12 10 11 13 13 21 15 15 14 14 12 11 11 11 12 12 13 13 15 16 17 18 14 9 1 7 12 11 10 10 13 14 17 19 21
5 8 8 11 7 13 0 8 8 13 8 4 14 22 23 21 17 14 11 11 9 8 8 9 9 10 10 11 12 11 10 12 15 14 9 2 7 12 14 15 11 16 18 19
5 7 7 11 9 4 6 4 5 8 9 6 14 14 21 20 18 12 9 6 5 5 5 6 7 8 8 9 10 11 10 9 9 11 13 13 10 6 8 11 15 13 16 22
7 7 7 5 12 12 17 10 5 4 9 12 16 20 21 18 12 11 12 6 5 4 5 6 8 8 7 8 9 10 10 11 10 11 11 12 13 12 10 10 13 16 17 19
7 7 10 9 7 2 8 10 5 8 5 19 15 15 14 8 12 15 9 6 4 4 5 8 9 8 9 10 11 10 10 10 11 13 13 12 12 13 14 13 12 13 14 19
6 6 6 8 13 12 12 8 5 7 6 9 9 12 11 10 9 8 5 3 3 4 6 7 7 9 11 12 12 12 12 13 15 17 18 17 16 14 14 16 16 15 16 16
5 5 4 4 4 6 6 4 7 5 9 8 10 10 10 9 6 4 2 1 2 4 6 7 8 10 11 12 13 15 15 16 18 20 21 21 20 19 18 20 21 20 18 16
7 7 4 6 8 6 4 3 8 8 9 7 7 9 7 6 5 3 2 2 4 5 7 9 10 11 12 12 13 15 17 18 19 21 22 22 21 19 19 19 18 19 18 21
6 5 6 11 8 3 8 10 11 11 8 8 8 8 7 6 5 4 3 4 5 6 8 9 11 13 14 14 15 16 17 18 20 22 22 22 22 21 21 21 20 20 22 21
7 7 6 7 8 8 10 15 16 13 11 10 10 10 8 8 7 5 5 5 6 7 9 10 11 13 15 17 18 19 18 18 20 22 23 22 23 23 22 23 23 23 25 27

GFSCGP_850_spd_102.txt.gz
Wind_Speed
17 11 15 19 20 20 21 18 11 7 23 18 13 15 15 16 16 18 26 28 28 27 25 23 22 22 20 17 18 18 16 16 14 12 8 6 7 7 10 8 11 10 9 10
11 16 17 20 18 23 23 13 10 13 23 20 16 11 8 10 12 19 25 26 26 26 31 27 24 24 22 20 19 19 18 16 15 13 10 10 5 6 6 7 9 8 8 17
17 14 19 17 19 21 21 17 12 12 17 19 16 6 10 8 22 29 21 27 25 25 29 27 25 25 23 21 21 21 19 17 20 12 10 10 5 9 8 5 6 7 8 14
19 17 18 17 17 18 17 17 19 22 18 8 13 5 15 19 26 17 26 23 25 23 26 29 27 28 28 25 21 21 20 18 21 17 11 9 8 9 9 8 7 9 9 7
18 15 16 17 18 13 18 11 14 19 13 20 19 6 5 3 13 19 28 23 22 27 28 24 28 27 31 27 24 23 24 21 18 15 18 11 13 11 14 13 9 11 9 7
15 19 11 11 14 12 21 12 9 6 9 11 21 14 8 3 7 9 25 24 22 22 29 23 29 26 32 28 27 24 26 23 22 20 16 18 11 6 18 12 12 10 10 10
17 17 12 15 17 17 15 13 8 10 9 12 20 11 6 14 10 11 14 11 5 12 24 26 27 29 24 32 30 28 24 25 22 19 19 16 17 7 11 10 12 13 15 12
13 14 17 13 14 10 13 18 10 14 12 12 18 11 10 19 17 16 8 6 6 12 21 23 29 26 26 29 32 31 23 23 24 21 18 15 14 13 10 11 9 5 14 16
14 15 15 6 16 1 16 17 18 15 20 13 9 14 13 18 16 15 8 8 9 8 8 17 25 24 34 20 25 34 24 21 22 22 19 17 14 12 11 9 10 13 7 8
13 11 15 10 6 9 14 9 17 14 14 14 11 13 13 16 14 12 12 12 12 13 17 11 12 13 17 26 22 15 26 23 22 23 21 20 17 14 14 13 13 13 5 3
16 9 9 15 11 15 11 11 12 17 15 10 11 4 6 17 13 14 14 11 9 11 14 15 18 11 14 25 24 12 15 27 23 24 23 20 20 17 19 20 16 17 17 8
12 4 11 13 13 19 16 13 16 12 17 10 7 3 5 11 16 16 15 12 10 10 11 15 19 16 19 23 37 36 3 13 26 22 23 23 21 17 15 19 17 13 15 17
10 9 3 8 7 7 8 13 15 12 15 15 5 6 7 16 16 14 16 14 14 12 13 15 18 22 17 18 22 19 13 28 10 17 21 22 22 21 22 19 16 15 12 15
7 12 8 5 12 9 17 15 13 13 11 13 8 19 15 15 13 14 16 15 16 16 16 16 19 21 22 22 15 12 13 15 14 11 9 21 21 21 20 21 20 19 17 15
4 9 11 4 7 11 14 20 17 10 15 11 17 19 15 13 13 15 16 16 16 16 16 18 19 20 21 23 22 17 7 5 12 17 11 14 16 14 15 17 21 18 22 21
2 8 10 10 6 5 10 6 3 5 11 14 18 18 17 22 20 20 16 16 16 15 14 15 17 20 21 21 21 17 16 11 2 8 8 10 13 15 17 16 16 18 21 21
4 7 10 11 13 12 10 10 9 8 11 4 14 15 19 17 19 17 15 15 14 13 13 13 14 15 16 15 14 17 17 17 15 11 6 4 8 9 14 16 18 18 19 24
2 8 9 10 9 14 7 7 9 12 11 4 12 22 22 23 23 22 19 15 13 12 11 10 10 10 11 12 13 14 12 14 16 16 14 11 7 5 10 8 9 13 17 17
3 6 6 9 11 12 9 3 4 7 8 17 19 19 20 21 22 17 15 14 11 10 8 8 7 8 8 11 11 11 11 12 10 10 10 13 15 13 7 7 14 15 12 15
6 6 7 7 11 12 12 11 3 0 5 10 21 21 22 19 9 11 15 13 11 8 7 6 6 6 6 9 10 9 10 10 9 9 9 8 8 11 12 10 9 10 14 15
5 5 7 8 6 4 9 11 4 4 2 18 20 26 29 13 11 23 18 12 9 7 6 6 6 6 7 8 8 8 7 6 8 9 9 9 8 8 9 15 14 12 11 12
3 5 5 7 9 6 7 4 4 4 6 10 5 26 26 21 21 18 13 9 6 5 4 4 4 5 6 7 7 8 8 11 13 14 14 14 13 11 10 11 16 17 16 17
5 5 4 6 3 5 5 9 6 4 8 9 8 11 16 14 13 12 9 6 4 2 2 2 3 4 5 7 8 9 11 14 15 16 18 19 18 18 16 14 15 17 16 17
9 6 4 4 9 8 5 5 3 4 10 7 8 7 7 9 9 8 6 6 4 1 0 2 4 5 6 8 8 9 12 14 15 15 16 17 19 20 20 18 17 15 15 17
7 3 5 7 12 3 2 3 6 7 7 11 9 11 11 10 10 9 8 6 4 2 1 2 4 5 7 9 10 11 14 15 16 16 17 18 18 19 21 20 19 18 19 20
9 5 4 6 5 7 9 8 11 9 9 10 11 10 11 11 11 10 9 7 5 3 2 3 4 6 8 10 10 11 15 13 15 17 17 17 19 21 21 20 23 20 22 23

GFSCGP_850_spd_105.txt.gz
Wind_Speed
7 3 7 12 13 16 12 10 10 11 10 10 6 8 12 7 6 16 21 26 27 26 29 27 25 23 21 18 22 20 18 14 21 16 16 14 12 11 9 9 10 9 10 15
3 9 13 16 17 18 15 3 7 10 7 12 13 6 4 10 9 18 11 28 28 28 29 27 26 24 24 19 24 18 18 16 19 16 13 11 12 10 8 6 12 10 7 13
10 12 18 17 15 17 12 7 16 8 8 8 10 4 2 3 7 16 21 9 33 32 34 31 30 29 26 20 23 21 19 14 21 13 10 12 13 13 11 5 7 7 11 10
10 20 15 15 11 12 9 1 24 23 12 6 14 4 4 6 2 7 18 11 23 34 33 30 31 33 28 22 18 22 20 15 20 14 10 8 11 11 11 8 8 12 11 9
10 13 14 13 15 12 10 22 24 12 6 6 16 4 3 9 8 8 17 19 15 35 35 29 32 34 30 25 21 21 21 19 21 14 12 12 11 12 11 11 11 13 10 6
13 21 11 8 14 13 9 5 13 5 5 3 14 5 4 9 8 6 22 29 31 30 36 29 33 34 33 28 23 22 22 24 24 18 15 11 11 13 16 13 12 12 12 10
11 15 10 13 5 8 7 3 2 2 3 11 17 6 1 16 16 13 18 35 26 28 36 28 31 28 36 32 25 22 23 26 23 19 17 15 13 12 20 13 11 12 10 9
6 8 13 6 6 8 5 7 5 4 6 6 10 6 6 17 23 29 25 5 6 16 14 25 17 14 34 34 26 22 24 25 24 19 18 14 13 6 11 11 13 9 11 11
4 9 9 9 9 5 6 4 9 3 6 3 4 8 8 11 10 12 10 16 17 12 9 13 13 16 26 33 33 24 21 24 22 21 18 17 14 14 12 9 7 10 14 12
4 4 6 4 4 3 3 5 5 3 2 2 4 6 7 12 10 9 10 15 20 11 9 20 15 12 16 26 31 32 23 21 21 17 20 19 18 15 14 14 12 14 12 11
5 5 8 6 2 5 1 4 2 1 1 4 5 2 3 9 8 11 13 12 14 20 21 18 15 28 21 19 27 25 24 18 15 20 19 20 19 18 20 22 15 13 15 6
4 2 3 6 8 4 5 7 4 4 8 3 5 3 3 10 15 16 15 15 16 20 22 17 14 13 15 24 25 21 23 19 9 8 20 22 21 20 21 22 20 17 17 14
5 5 6 7 2 4 2 6 6 4 3 4 5 5 3 19 18 15 17 15 19 23 21 19 18 13 7 15 21 19 24 20 9 27 21 22 24 21 21 22 24 19 18 18
3 7 4 5 8 4 6 8 9 2 2 5 4 13 10 13 13 17 17 17 21 25 24 25 25 24 20 17 13 17 23 12 11 15 13 20 25 22 21 22 21 20 17 17
4 3 12 14 7 8 7 14 11 4 5 5 15 17 14 13 13 19 19 22 23 23 24 24 23 26 26 24 19 13 14 12 8 2 17 16 23 17 22 21 21 22 21 19
3 5 9 9 10 8 6 11 4 5 12 10 16 11 13 20 22 21 19 21 23 23 23 24 24 25 23 25 24 21 17 11 8 13 14 17 14 23 20 24 24 24 22 23
3 4 1 5 10 9 6 5 7 6 6 15 12 9 19 15 19 19 18 22 24 23 22 22 22 22 20 24 19 20 20 18 18 15 10 4 10 19 19 18 22 23 27 27
3 4 2 4 5 2 5 7 7 9 6 14 18 19 21 22 23 24 22 20 20 20 21 18 20 22 15 17 19 18 17 14 13 14 13 12 11 5 1 6 8 9 17 24
3 3 3 2 3 4 9 6 6 5 7 20 23 21 25 26 24 15 21 22 18 17 17 16 11 11 15 12 14 14 11 6 7 10 9 9 10 10 7 5 3 10 12 13
4 5 3 3 3 1 3 10 18 5 5 13 27 22 30 31 11 8 23 20 18 14 12 12 10 9 5 6 8 9 5 2 3 4 5 5 5 6 6 7 6 7 4 6
1 2 1 4 2 4 6 14 16 4 3 8 24 30 31 10 15 30 25 21 15 11 11 8 4 6 6 4 3 3 1 3 5 6 6 5 4 3 4 5 7 8 7 7
1 3 2 2 2 3 9 9 5 4 22 28 30 29 31 26 30 30 24 19 16 13 11 7 4 5 3 3 3 3 4 7 8 8 9 10 10 9 9 9 9 10 10 10
1 4 2 4 2 9 17 13 12 21 21 23 30 31 31 28 22 20 21 18 15 12 9 4 3 3 2 4 4 4 7 10 11 11 11 11 10 11 12 12 12 12 12 12
4 6 1 4 6 6 17 11 10 10 15 17 19 21 19 21 22 22 17 15 15 12 10 6 6 2 3 7 8 8 11 11 11 11 11 11 10 9 8 9 10 11 11 11
4 3 1 0 2 3 12 10 6 5 8 8 9 11 13 21 20 18 17 17 11 9 8 6 4 3 4 9 11 11 11 12 11 11 11 10 10 11 13 13 14 13 12 12
4 2 3 2 9 5 5 2 14 12 8 9 10 11 11 9 14 14 12 11 10 10 8 5 5 7 10 10 8 10 12 12 12 12 10 10 11 12 13 14 16 15 17 20

GFSCGP_850_spd_108.txt.gz
Wind_Speed
3 4 5 10 5 6 2 8 3 7 9 9 4 6 9 10 18 24 25 21 23 34 40 37 30 28 24 20 20 18 13 15 15 14 16 16 15 14 13 11 11 16 18 18
6 5 10 7 7 7 5 7 4 11 8 3 5 7 5 8 17 28 27 12 26 30 40 38 32 30 26 22 22 21 16 20 15 12 14 11 12 11 8 13 13 12 17 17
6 11 8 5 9 8 9 6 6 7 10 12 6 3 2 1 21 22 27 12 7 41 39 40 37 32 27 24 24 25 18 16 21 15 14 12 11 11 11 14 12 8 14 14
6 17 10 7 10 7 9 6 12 18 6 5 6 3 5 7 9 24 26 18 6 34 43 41 39 33 27 25 21 24 21 17 22 17 10 13 11 15 11 11 10 12 16 14
9 3 7 8 12 9 11 7 14 15 4 7 5 3 3 13 10 13 23 20 9 13 38 44 40 33 29 26 22 24 22 19 25 20 14 12 12 13 13 13 13 12 14 9
8 20 6 11 12 12 11 14 10 5 4 1 9 4 4 10 13 13 20 21 15 10 13 28 38 34 31 29 23 21 24 23 25 20 16 13 13 12 13 16 15 14 13 11
7 7 5 7 8 3 7 6 2 4 3 6 10 5 5 8 10 14 20 33 22 12 14 11 37 40 35 33 26 21 25 26 28 23 17 14 16 15 16 12 13 16 14 12
3 8 3 4 7 8 4 7 6 4 4 5 5 6 1 3 5 13 10 7 10 17 26 13 29 42 38 35 29 23 25 28 31 24 19 16 16 14 18 12 13 13 13 11
3 5 5 3 5 8 5 2 3 5 2 4 5 3 5 5 6 6 5 7 4 2 15 27 21 32 37 38 32 23 23 27 29 25 22 17 17 10 16 15 15 13 12 12
0 4 3 7 3 3 8 4 4 3 4 4 2 8 7 10 9 7 9 6 6 2 13 11 23 28 29 31 33 27 22 26 28 25 21 19 15 15 14 15 14 13 9 15
2 2 8 0 2 4 3 3 5 3 4 5 4 0 5 13 12 10 8 10 14 14 10 15 15 18 25 26 32 33 27 24 26 24 24 21 18 16 17 17 14 15 13 11
2 3 1 4 9 4 4 4 5 4 4 3 4 3 7 13 15 16 9 7 11 12 11 11 21 21 22 18 23 30 31 27 24 23 21 22 22 19 18 19 17 16 13 14
3 4 4 10 8 9 5 3 5 3 3 1 5 4 8 15 16 22 11 10 14 12 13 12 14 18 20 23 23 24 30 26 19 19 20 15 20 23 21 20 22 21 17 17
5 3 5 5 6 5 8 6 3 5 4 3 2 13 11 13 10 20 17 16 15 15 16 16 13 14 17 25 26 24 24 20 24 18 13 19 22 24 22 21 20 23 21 19
5 4 4 4 9 10 7 5 11 5 7 5 14 15 17 15 14 20 20 20 20 17 21 23 21 15 15 16 20 18 20 20 15 6 12 7 9 21 19 23 21 22 22 23
3 2 3 2 13 12 5 9 10 11 10 11 14 14 18 24 25 24 21 21 19 19 21 23 26 25 22 18 15 13 15 15 11 4 5 4 5 7 13 16 25 25 24 25
4 3 3 3 5 8 5 6 3 5 6 20 11 10 22 19 23 25 23 22 23 21 23 21 22 20 25 24 22 21 18 14 12 9 5 7 7 14 10 9 20 20 23 28
3 3 2 1 8 5 3 5 3 8 13 7 16 22 23 24 26 25 28 27 27 24 25 24 21 21 21 18 17 17 15 14 11 9 7 4 7 10 16 12 12 14 20 24
6 4 2 4 4 4 3 6 7 3 5 7 21 22 26 28 27 21 32 35 31 26 24 20 17 17 17 16 14 11 10 9 9 9 9 9 7 5 5 6 5 12 15 17
7 7 4 1 1 3 1 5 16 3 3 9 31 27 31 33 12 12 38 37 30 24 19 16 11 10 11 11 10 7 7 6 6 6 5 5 5 5 5 4 4 3 1 2
3 3 4 1 1 2 3 13 5 5 5 21 26 33 34 14 12 36 37 33 28 23 20 16 11 8 8 7 6 6 5 4 1 1 3 4 4 5 4 3 4 2 1 0
3 3 0 2 2 2 12 7 5 3 10 20 28 29 27 25 42 40 35 31 25 22 17 12 9 6 5 2 3 4 5 4 4 5 5 4 4 4 6 7 7 7 6 5
2 5 4 5 4 6 19 16 12 16 24 26 31 29 31 42 39 35 31 28 25 22 17 10 6 6 4 4 5 6 7 8 9 8 7 7 6 5 5 5 6 7 7 7
7 3 3 4 6 4 19 17 17 16 24 27 27 31 37 39 35 33 30 28 25 20 15 11 8 7 6 5 6 7 8 7 8 8 7 6 6 7 7 7 6 7 7 8
3 5 2 2 6 3 8 13 17 19 20 20 20 22 28 32 30 32 26 23 23 20 17 14 11 8 7 7 9 9 7 8 7 7 8 8 8 8 8 9 9 9 8 10
1 4 3 3 3 4 8 1 8 13 16 17 18 14 20 23 24 24 28 27 24 21 16 14 10 8 7 8 7 7 7 8 9 8 8 9 10 10 10 11 11 11 14 14

GFSCGP_850_spd_111.txt.gz
Wind_Speed
4 4 5 6 5 4 1 2 3 4 4 4 6 4 9 13 22 19 16 18 29 36 37 34 31 27 22 18 15 18 19 15 14 13 19 15 16 15 14 15 15 14 15 12
6 3 6 4 7 4 4 2 3 4 3 4 3 4 1 2 9 28 28 9 23 26 33 36 34 30 24 19 17 17 13 17 17 12 13 12 14 14 14 13 13 15 16 16
5 4 6 4 1 2 3 4 5 5 8 9 11 1 4 2 10 23 28 14 7 27 38 37 35 32 26 22 18 15 14 16 17 13 15 14 14 12 13 16 12 12 14 16
4 4 3 4 4 6 3 8 9 12 4 5 1 1 5 4 5 21 33 26 8 24 37 39 36 33 27 22 19 15 17 15 18 16 15 13 12 12 11 12 11 11 14 15
6 2 3 5 8 7 8 5 7 6 4 6 0 4 4 10 9 15 25 33 16 7 31 43 40 35 27 22 20 17 20 18 19 18 13 14 11 11 11 12 12 13 15 13
7 8 5 8 6 8 8 9 10 6 3 1 8 6 4 13 14 17 25 26 22 4 23 30 35 37 31 26 25 20 23 22 21 23 17 12 13 13 15 14 13 14 15 12
6 4 4 6 3 2 5 5 3 3 2 5 5 4 2 9 11 20 27 38 32 12 10 20 29 35 37 30 27 24 24 25 23 25 20 16 14 13 12 13 13 15 15 13
2 6 5 4 8 8 9 9 6 6 5 3 1 4 3 5 12 15 22 28 28 19 7 13 16 31 37 33 28 27 24 26 25 25 20 16 13 16 13 11 14 15 13 11
4 5 3 4 4 8 5 4 6 7 1 3 3 3 5 9 10 17 19 18 19 23 12 15 17 23 35 38 34 28 25 24 24 26 21 16 12 12 12 15 13 13 14 13
2 3 1 6 1 3 8 6 2 3 5 3 1 3 5 9 11 12 12 16 13 14 12 16 25 29 27 38 36 33 26 23 25 27 22 18 15 13 10 16 14 15 13 13
2 1 6 3 4 1 4 2 6 6 2 5 3 3 3 5 10 10 13 15 13 14 12 16 23 27 35 35 35 33 24 23 25 27 22 19 17 16 13 16 16 14 12 11
2 3 3 5 6 5 1 1 3 5 3 3 4 1 9 11 10 16 16 17 13 12 10 12 11 33 29 31 37 29 23 22 26 25 23 21 19 18 18 18 17 14 12 13
2 2 3 7 7 7 6 5 3 4 2 3 6 2 1 7 10 12 15 15 12 10 8 11 10 23 27 24 21 18 23 27 28 24 20 20 20 22 21 19 17 17 14 13
9 3 4 5 5 3 6 5 2 3 3 6 3 9 7 8 7 10 13 14 14 13 11 10 13 14 16 18 12 17 24 27 25 13 14 20 20 22 25 24 20 18 17 16
4 5 4 4 5 2 4 5 6 6 5 6 11 19 16 13 10 14 15 15 12 14 14 13 11 16 18 19 20 21 21 22 11 22 19 15 14 18 22 24 21 18 19 19
3 2 1 1 5 8 5 10 8 5 9 8 18 9 8 20 21 19 20 17 13 14 16 17 14 12 15 16 17 17 15 18 18 15 14 11 7 6 10 20 17 16 17 19
3 3 3 1 3 5 6 8 7 2 4 17 10 10 23 16 21 22 23 23 21 18 20 20 19 19 19 18 18 17 17 16 14 11 9 7 7 6 5 4 9 13 16 19
4 3 3 1 5 4 7 6 3 6 7 2 8 19 21 25 23 23 25 32 28 26 22 21 21 22 23 22 20 20 18 16 13 10 6 4 3 3 7 9 8 7 10 19
4 4 4 4 3 3 3 3 5 5 5 3 15 17 22 25 22 15 19 29 32 28 24 21 19 17 16 16 17 15 14 12 11 11 9 8 7 4 2 2 7 6 9 8
6 7 4 2 3 6 6 5 10 4 3 4 22 22 26 30 9 6 27 30 29 26 23 20 16 14 12 11 8 6 8 7 7 6 5 5 4 4 5 5 3 2 2 1
4 3 4 2 2 4 2 8 12 4 6 20 28 27 27 13 8 29 37 34 27 24 23 18 14 12 10 8 5 3 3 2 2 0 1 1 2 2 1 2 2 2 3 1
3 4 2 2 2 2 9 3 2 4 1 18 23 29 29 16 27 40 40 36 30 27 22 17 15 11 8 5 2 1 2 2 4 5 5 5 5 7 6 6 6 5 5 4
2 4 5 5 5 6 8 3 4 4 9 23 26 27 30 26 41 38 37 34 28 24 20 15 11 9 5 1 2 3 3 5 6 7 7 7 7 8 9 8 8 7 8 8
3 2 3 3 3 7 7 9 10 7 13 21 27 31 26 30 42 35 31 28 23 19 17 13 8 4 0 3 5 6 6 5 5 5 5 5 6 7 9 9 9 10 10 9
2 3 3 1 2 2 8 11 13 14 14 15 18 22 28 37 39 36 34 32 26 21 16 10 6 3 1 4 5 6 5 5 5 4 4 4 5 6 7 7 8 8 7 9
2 4 4 4 5 5 2 9 15 16 19 18 19 24 25 31 36 32 29 26 25 21 17 13 7 2 3 5 5 4 4 3 3 3 4 4 4 4 6 7 6 8 8 9

GFSCGP_850_spd_114.txt.gz
Wind_Speed
5 5 6 6 5 5 3 2 1 2 6 4 3 4 9 18 21 16 19 25 21 31 29 27 23 21 20 19 19 19 19 17 18 18 20 19 16 14 12 12 14 9 11 8
5 4 7 7 4 4 2 1 1 2 2 4 5 5 1 12 22 27 14 13 25 26 27 27 26 24 22 19 21 21 19 16 13 12 16 15 16 13 12 13 13 14 12 11
6 2 10 6 4 4 2 5 4 3 6 6 4 3 4 3 12 24 20 13 8 23 30 29 29 27 25 23 21 22 19 15 15 13 15 14 15 15 14 14 12 14 14 13
3 2 4 4 4 5 3 6 6 10 4 3 2 4 4 8 6 17 29 25 11 8 28 34 31 31 30 26 22 22 17 18 18 13 15 14 15 14 11 12 11 11 13 15
5 2 2 2 6 8 5 3 8 6 5 4 2 2 2 9 10 12 26 28 18 6 24 33 34 32 30 27 25 20 19 18 20 16 16 14 13 10 9 11 13 11 11 13
5 2 5 7 5 9 8 9 8 5 4 1 4 3 3 6 12 13 22 31 29 13 20 32 33 30 29 28 27 22 21 20 17 18 15 14 13 9 11 12 13 12 13 12
4 4 3 5 4 2 5 5 3 3 1 5 2 4 5 5 5 18 25 31 35 22 5 23 28 29 28 31 29 26 23 23 19 18 17 11 10 8 11 11 10 13 15 12
5 4 6 4 8 9 8 8 5 5 5 3 3 4 3 2 3 15 28 37 31 27 6 8 25 25 28 31 28 28 24 24 22 18 19 15 12 11 9 12 12 11 12 10
3 5 4 5 4 7 6 4 5 7 3 4 3 1 2 5 4 13 22 30 29 32 18 11 11 26 28 29 30 30 27 24 23 19 18 17 15 11 13 11 12 12 12 11
4 1 2 5 1 3 6 5 3 2 6 4 3 3 4 7 8 8 12 22 29 37 34 17 16 16 21 26 29 28 27 25 23 21 19 17 13 11 11 12 15 13 12 12
5 3 6 1 4 1 3 0 5 5 3 6 4 5 1 6 8 10 12 18 28 31 31 30 20 22 21 25 32 28 27 27 25 23 21 19 14 13 11 9 17 14 12 11
1 5 1 4 3 3 2 2 4 5 4 2 3 3 3 6 9 14 13 17 18 22 21 24 26 28 27 27 30 25 26 23 23 21 21 20 16 15 13 12 9 10 11 12
4 2 3 8 6 5 5 4 3 2 3 5 6 4 1 11 14 13 15 15 13 14 14 14 17 9 28 35 36 31 29 28 26 22 20 20 17 16 17 15 15 14 13 11
5 2 5 5 4 3 5 6 2 4 3 5 4 8 7 10 9 12 15 15 14 10 10 12 12 9 19 21 18 11 19 27 26 22 20 15 13 14 16 17 18 17 16 15
4 3 2 3 3 2 1 6 8 5 3 5 7 10 17 14 12 18 15 13 11 9 8 10 12 12 20 12 14 13 16 17 23 15 18 8 7 10 14 17 18 20 17 16
3 0 0 1 1 5 3 6 7 5 3 3 8 1 7 15 18 18 18 17 13 10 8 10 13 17 16 14 17 15 17 17 13 26 22 11 9 9 8 15 15 20 19 18
3 4 3 3 4 3 4 5 5 4 1 5 5 5 16 11 16 18 17 18 18 17 15 14 12 16 22 23 22 23 26 17 14 21 20 19 11 9 7 9 10 14 14 15
5 4 3 2 2 2 6 2 8 4 4 5 3 7 12 18 14 19 18 21 20 19 20 20 20 21 22 24 24 24 23 25 21 18 16 13 8 6 9 8 7 7 6 6
5 5 3 3 1 4 6 5 2 4 4 3 6 10 18 21 19 12 18 21 24 24 23 24 23 24 25 24 24 24 22 22 21 18 15 11 9 7 6 6 6 5 6 6
5 7 4 2 3 5 4 3 5 6 6 6 12 15 22 24 6 4 21 22 22 21 20 21 21 22 22 20 17 17 17 15 15 13 12 10 8 7 6 5 3 3 2 3
4 4 4 2 2 5 4 13 4 4 5 10 18 26 28 11 9 26 26 26 24 23 23 20 19 18 16 15 12 12 12 10 10 8 6 5 5 5 4 4 3 3 2 2
4 4 2 2 2 3 11 7 1 4 3 15 19 19 20 16 20 30 31 29 26 24 22 18 17 15 14 10 7 7 5 6 5 3 3 3 3 2 1 1 1 1 1 1
0 5 4 6 5 4 7 4 8 8 5 10 22 19 24 23 28 34 35 31 28 23 20 16 13 13 11 8 5 3 3 3 2 2 3 3 2 2 2 3 4 4 5 5
1 2 2 3 2 2 3 2 6 9 5 10 17 23 22 23 31 35 33 29 26 22 19 16 12 9 7 5 3 2 2 2 2 2 2 2 2 3 4 4 5 6 6 7
3 2 3 2 4 2 3 5 6 8 8 8 16 19 22 21 32 32 25 17 18 22 17 12 9 5 3 3 3 3 3 3 1 1 2 1 1 1 2 3 4 5 6 6
3 4 4 5 6 3 4 5 7 8 8 8 10 15 18 25 33 36 30 28 32 25 20 16 10 4 1 2 3 2 2 2 1 1 1 1 1 0 0 0 2 3 4 6

GFSCGP_850_spd_117.txt.gz
Wind_Speed
5 6 12 10 4 5 7 6 5 4 9 9 5 9 16 24 26 21 26 18 19 20 17 18 20 18 15 16 17 18 18 18 15 16 17 17 17 14 11 12 13 10 10 8
6 11 6 4 6 6 4 5 4 6 5 2 8 12 14 21 25 25 24 21 18 14 15 18 22 21 19 16 17 18 17 18 15 16 17 17 15 14 12 11 13 10 12 9
12 4 7 8 6 7 4 4 6 3 6 3 12 9 12 14 13 16 23 25 15 14 18 19 22 23 21 20 18 20 18 16 14 13 16 17 17 15 13 13 14 12 12 11
8 6 10 7 6 5 8 7 7 10 7 3 2 4 8 14 15 21 22 25 24 11 17 20 21 25 25 20 17 19 19 17 15 12 12 13 16 16 13 12 12 11 13 13
5 10 9 7 6 6 1 3 10 7 3 3 6 3 5 13 15 20 28 28 25 22 15 19 24 22 22 22 19 19 20 18 19 14 12 12 11 10 10 11 12 10 12 13
5 1 3 3 3 10 9 10 9 6 2 4 6 7 6 11 20 20 29 30 28 21 17 13 15 18 21 24 21 20 21 17 20 16 14 12 11 11 9 9 13 12 11 11
7 7 3 3 6 7 4 11 4 3 4 3 2 6 4 11 8 20 27 35 31 26 16 13 17 18 21 25 24 23 21 19 19 17 14 12 11 10 9 8 9 10 11 12
8 7 8 7 10 7 15 12 7 13 6 6 5 6 2 4 7 11 26 33 32 27 18 11 17 19 20 22 24 23 23 21 19 17 17 14 9 9 9 9 8 7 11 10
5 4 3 6 4 10 7 9 4 3 1 5 3 3 5 3 5 11 21 27 31 26 16 12 15 17 18 21 22 23 23 22 22 19 16 16 13 10 10 10 9 10 9 10
6 3 2 3 4 2 7 6 7 3 8 7 4 4 4 6 7 11 18 28 31 27 22 15 13 16 21 22 21 22 21 22 22 20 18 15 14 12 12 14 12 12 11 11
3 2 4 3 2 3 4 5 2 3 3 9 4 4 2 7 10 11 17 22 27 28 32 20 14 14 14 20 23 22 20 22 19 23 19 16 16 12 10 9 11 14 12 11
2 1 1 3 3 2 1 1 4 7 7 1 4 4 3 5 10 12 12 14 19 22 20 23 23 18 14 20 17 23 19 18 18 20 21 19 17 14 11 11 5 15 12 11
4 1 2 4 4 3 3 3 1 1 1 8 9 3 1 11 13 11 12 13 14 15 13 21 23 24 23 24 24 20 20 17 18 22 22 20 19 17 14 12 10 9 12 12
2 2 3 6 2 1 0 4 2 5 6 6 7 6 9 13 14 15 15 14 10 10 12 9 11 11 15 15 25 26 30 16 16 24 26 22 21 19 16 16 15 14 14 13
1 1 1 5 5 4 5 6 3 6 2 8 7 11 15 18 16 19 15 14 12 10 10 10 11 10 9 11 18 22 22 19 21 25 23 21 17 17 17 16 16 17 16 16
1 3 1 4 2 3 2 6 4 5 3 6 3 7 4 18 19 18 17 16 12 10 12 13 12 12 12 14 20 18 16 19 19 16 18 16 10 6 9 14 18 16 18 18
0 4 3 3 4 4 6 6 9 6 4 5 3 3 10 15 20 20 18 16 14 12 12 14 14 15 16 15 16 16 12 7 7 12 17 16 13 8 6 7 13 17 17 17
4 4 1 1 1 8 4 1 4 5 3 3 5 1 11 15 15 17 18 19 16 13 12 12 14 18 22 20 19 19 17 12 8 7 9 12 16 14 10 7 8 12 12 12
2 4 3 3 4 4 4 2 4 3 6 4 3 9 17 21 19 14 14 14 17 17 16 13 13 18 21 24 24 25 30 22 19 18 15 12 10 10 9 7 8 9 8 7
5 5 3 2 3 5 3 3 9 1 5 1 5 13 21 24 8 4 18 20 21 21 21 19 18 20 21 21 22 25 24 21 16 14 14 12 10 6 7 8 7 7 7 7
1 3 2 3 3 3 0 10 4 5 2 4 7 15 21 12 4 23 24 25 25 24 22 20 20 19 19 17 15 16 16 15 13 11 9 8 9 8 7 7 7 6 6 5
3 4 3 2 2 5 7 2 3 4 5 6 6 8 13 9 22 26 27 27 25 24 22 20 20 17 16 12 11 14 13 14 13 11 11 9 8 8 8 7 6 6 6 6
2 1 1 3 1 2 4 2 6 7 7 2 10 13 16 19 20 20 25 27 25 24 23 20 18 17 15 12 8 7 9 9 9 8 8 8 7 7 7 7 7 7 7 7
2 1 1 3 3 3 3 2 5 7 4 5 10 15 19 20 24 23 25 24 25 23 21 18 15 14 12 9 7 5 6 6 6 6 6 5 5 5 5 5 6 6 6 6
1 4 3 2 3 3 3 3 7 9 9 7 10 13 18 19 22 30 28 20 19 18 18 16 14 12 9 8 6 5 5 5 4 4 4 4 4 3 3 2 2 2 2 3
7 4 4 2 2 0 2 1 3 6 8 7 7 12 16 18 25 29 27 12 2 12 17 17 14 10 10 8 6 6 7 7 5 5 5 4 3 2 2 1 0 1 1 1

GFSCGP_850_spd_120.txt.gz
Wind_Speed
16 10 16 16 13 7 4 5 9 9 11 14 14 10 23 21 19 13 15 19 20 18 15 14 13 12 12 13 14 14 14 13 14 10 10 9 9 9 8 8 10 8 8 5
10 15 16 4 5 9 9 8 10 6 10 7 8 10 20 26 29 27 20 26 19 19 15 14 14 14 13 13 14 14 14 13 14 10 11 11 10 9 8 9 10 8 9 8
15 15 7 10 11 11 8 7 9 7 10 4 8 7 14 16 22 25 22 15 15 13 18 17 16 16 15 13 14 15 14 14 14 12 12 14 11 12 12 10 10 8 10 10
10 6 11 13 12 11 11 5 4 11 13 5 14 5 13 16 17 27 29 31 25 22 18 19 18 18 17 15 13 14 15 14 14 13 12 13 12 11 11 11 12 10 10 10
7 10 12 12 11 8 2 3 7 7 7 5 11 8 14 17 15 19 27 30 29 26 19 18 19 19 16 15 14 13 15 16 15 13 12 12 10 10 8 10 11 11 12 11
12 8 7 8 7 9 1 7 6 5 5 9 8 11 12 16 21 20 28 31 30 29 23 17 18 18 18 16 15 14 15 17 16 15 11 12 11 10 9 9 10 10 9 11
8 13 9 5 9 8 12 12 8 9 8 9 7 7 6 13 9 23 26 31 33 25 25 17 18 21 19 19 17 15 15 16 15 15 12 12 10 9 9 8 9 12 11 11
12 15 14 13 11 8 14 17 11 11 10 11 8 6 2 7 6 12 24 30 32 25 24 23 18 20 21 19 18 17 16 16 14 15 13 11 11 11 11 9 9 8 10 12
8 7 8 13 11 13 14 16 15 14 11 8 10 8 6 7 8 13 17 27 31 27 25 22 21 19 19 20 19 19 17 16 15 15 13 13 11 9 9 10 12 9 10 11
5 7 9 12 9 12 12 8 15 10 13 14 7 8 4 10 10 12 16 26 31 28 27 19 18 18 20 20 19 18 18 17 16 15 13 12 11 11 10 9 9 10 12 11
3 8 11 10 13 15 12 12 8 15 15 12 13 8 6 5 8 12 16 23 28 29 28 22 16 16 17 17 17 18 18 17 17 17 15 14 11 11 10 10 11 11 11 13
3 7 9 11 6 5 9 15 16 11 14 10 14 4 5 6 6 10 14 21 24 30 27 21 16 14 13 14 16 18 17 17 17 16 17 14 13 12 12 11 10 12 14 13
2 6 7 7 9 6 10 6 11 10 13 11 14 12 5 8 7 10 14 15 19 23 26 25 17 16 15 12 12 14 16 16 17 18 17 15 15 13 12 12 12 8 15 13
3 7 10 6 7 1 9 8 7 13 12 14 12 8 8 11 11 13 13 15 16 15 20 20 17 16 12 14 14 15 17 17 19 17 18 16 14 16 15 14 14 12 11 12
4 9 5 7 4 2 2 6 6 12 16 14 10 12 9 11 12 15 15 15 16 16 16 15 15 14 12 12 11 13 20 22 20 21 21 21 20 19 20 17 16 15 14 13
2 6 8 9 4 5 8 6 7 5 6 9 10 7 5 11 12 15 15 17 16 16 14 14 14 12 10 9 12 14 17 22 26 25 21 21 20 20 19 19 18 18 16 14
3 2 7 11 6 7 11 6 1 2 3 4 8 8 3 10 12 15 15 13 12 11 11 10 11 12 12 13 16 20 23 22 23 21 22 20 17 14 12 12 15 19 18 18
4 6 4 9 5 13 7 4 4 4 5 1 5 5 3 8 11 13 14 13 10 8 8 10 10 12 16 16 18 15 13 4 9 12 16 21 19 13 8 7 6 11 16 17
4 7 4 8 10 10 5 4 4 6 2 5 5 1 7 13 14 12 13 13 12 12 11 12 14 17 19 20 21 21 14 13 15 13 12 10 13 10 9 10 8 8 9 11
3 6 7 4 10 7 11 6 4 4 9 7 6 3 13 17 8 3 14 15 16 14 13 13 14 17 21 25 28 24 19 17 16 14 12 9 14 14 9 11 12 10 10 10
9 8 11 9 8 3 5 7 3 9 3 9 5 2 15 12 7 21 17 17 16 17 18 17 16 17 17 18 21 27 24 17 15 15 13 12 12 12 11 8 10 11 11 10
8 8 7 7 7 11 5 3 7 7 6 6 2 4 14 5 14 19 19 21 21 22 23 22 21 19 18 16 14 16 15 15 13 11 12 11 9 10 12 12 11 10 8 7
5 4 5 4 4 5 5 4 5 7 8 7 2 5 9 17 20 21 23 23 21 21 17 19 17 17 16 14 9 11 10 9 10 11 11 12 11 10 10 10 9 9 10 8
4 3 4 3 6 5 4 3 6 7 7 3 3 10 12 18 18 22 20 19 22 19 18 17 16 15 13 11 12 9 11 11 11 10 9 10 10 10 9 8 9 9 7 7
3 4 5 4 4 4 5 4 5 7 7 8 8 10 12 16 20 22 24 22 16 15 15 14 13 13 12 11 10 10 9 9 9 9 9 8 7 7 7 7 8 7 7 7
7 5 5 4 6 4 9 4 4 6 8 9 9 11 12 16 21 25 23 26 12 6 11 10 10 10 9 8 7 7 7 7 6 6 6 6 6 6 5 5 5 6 6 5